[[{"header":{"parameterUnit":"m.s-1","parameterCategory":1,"la1":30.6,"la2":29.2853,"lo1":-89.7004,"lo2":-87.6739,"dy":0.0162,"dx":0.0183,"nx":112,"ny":82,"refTime":"2024-07-25T12:00:00:Z","depth":0,"parameterNumber":2,"parameterNumberName":"U-component_of_WINDS"},"data":[0.0,0.0,0.0,0.0,0.0,0.0,0.0,0.0,0.0,0.0,0.0,0.0,0.0,0.0,0.0,0.0,0.0,0.0,0.0,0.0,0.0,0.0,0.0,0.0,0.0,0.0,0.0,0.0,0.0,0.0,0.0,0.0,0.0,0.0,0.0,0.0,0.0,0.0,0.0,0.0,0.0,0.0,0.0,0.0,0.0,0.0,0.0,0.0,0.0,0.0,0.0,0.0,0.0,0.0,0.0,0.0,0.0,0.0,0.0,0.0,0.0,0.0,0.0,0.0,0.0,0.0,0.0,0.0,0.0,0.0,0.0,0.0,0.0,0.0,0.0,0.0,0.0,0.0,0.0,0.0,0.0,0.0,0.0,0.0,0.0,0.0,0.0,0.0,0.0,0.0,1.4156,1.5007,1.7147,1.8539,1.8592,1.9236,1.8563,1.6098,0.0,0.0,0.0,0.0,0.0,0.0,0.0,0.0,0.0,0.0,0.0,0.0,0.0,0.0,0.0,0.0,0.0,0.0,0.0,0.0,0.0,0.0,0.0,0.0,0.0,0.0,0.0,0.0,0.0,0.0,0.0,0.0,0.0,0.0,0.0,0.0,0.0,0.0,0.0,0.0,0.0,0.0,0.0,0.0,0.0,0.0,0.0,0.0,0.0,0.0,0.0,0.0,0.0,0.0,0.0,0.0,0.0,0.0,0.0,0.0,0.0,0.0,0.0,0.0,0.0,0.0,0.0,0.0,0.0,0.0,0.0,0.0,0.0,0.0,0.0,0.0,0.0,0.0,0.0,0.0,0.0,0.0,0.0,0.0,0.0,0.0,0.0,0.0,0.0,0.0,0.0,0.0,0.0,0.0,0.0,0.0,0.0,0.0,0.0,0.0,0.0,0.0,0.0,0.0,1.4902,1.7087,1.8021,1.863,1.8988,1.9139,1.8444,1.6682,0.0,0.0,0.0,0.0,0.0,0.0,0.0,0.0,0.0,0.0,0.0,0.0,0.0,0.0,0.0,0.0,0.0,0.0,0.0,0.0,0.0,0.0,0.0,0.0,0.0,0.0,0.0,0.0,0.0,0.0,0.0,0.0,0.0,0.0,0.0,0.0,0.0,0.0,0.0,0.0,0.0,0.0,0.0,0.0,0.0,0.0,0.0,0.0,0.0,0.0,0.0,0.0,0.0,0.0,0.0,0.0,0.0,0.0,0.0,0.0,0.0,0.0,0.0,0.0,0.0,0.0,0.0,0.0,0.0,0.0,0.0,0.0,0.0,0.0,0.0,0.0,0.0,0.0,0.0,0.0,0.0,0.0,0.0,0.0,0.0,0.0,0.0,0.0,0.0,0.0,0.0,0.0,0.0,0.0,0.0,0.0,0.0,0.0,0.0,0.0,0.0,0.0,0.0,1.4059,1.5407,1.7571,1.8226,1.8669,1.9064,1.9288,1.8515,1.6338,1.5004,0.0,0.0,0.0,0.0,0.0,0.0,0.0,0.0,0.0,0.0,0.0,0.0,0.0,0.0,0.0,0.0,0.0,0.0,0.0,0.0,0.0,0.0,0.0,0.0,0.0,0.0,0.0,0.0,0.0,0.0,0.0,0.0,0.0,0.0,0.0,0.0,0.0,0.0,0.0,0.0,0.0,0.0,0.0,0.0,0.0,0.0,0.0,0.0,0.0,0.0,0.0,0.0,0.0,0.0,0.0,0.0,0.0,0.0,0.0,0.0,0.0,0.0,0.0,0.0,0.0,0.0,0.0,0.0,0.0,0.0,0.0,0.0,0.0,0.0,0.0,0.0,0.0,0.0,0.0,0.0,0.0,0.0,0.0,0.0,0.0,0.0,0.0,0.0,0.0,0.0,0.0,0.0,0.0,0.0,0.0,0.0,0.0,0.0,0.0,0.0,0.0,0.0,1.5237,1.5928,1.7478,1.7988,1.8383,1.8898,1.8958,1.8041,1.5932,1.424,0.0,0.0,0.0,0.0,0.0,0.0,0.0,0.0,0.0,0.0,0.0,0.0,0.0,0.0,0.0,0.0,0.0,0.0,0.0,0.0,0.0,0.0,0.0,0.0,0.0,0.0,0.0,0.0,0.0,0.0,0.0,0.0,0.0,0.0,0.0,0.0,0.0,0.0,0.0,0.0,0.0,0.0,0.0,0.0,0.0,0.0,0.0,0.0,0.0,0.0,0.0,0.0,0.0,0.0,0.0,0.0,0.0,0.0,0.0,0.0,0.0,0.0,0.0,0.0,0.0,0.0,0.0,0.0,0.0,0.0,0.0,0.0,0.0,0.0,0.0,0.0,0.0,0.0,0.0,0.0,0.0,0.0,0.0,0.0,0.0,0.0,0.0,0.0,0.0,0.0,0.0,0.0,0.0,0.0,0.0,0.0,0.0,0.0,0.0,0.0,0.0,0.0,1.5328,1.6546,1.7162,1.7282,1.7639,1.8461,1.7421,1.6455,1.5859,1.3361,0.0,0.0,0.0,0.0,0.0,0.0,0.0,0.0,0.0,0.0,0.0,0.0,0.0,0.0,0.0,0.0,0.0,0.0,0.0,0.0,0.0,0.0,0.0,0.0,0.0,0.0,0.0,0.0,0.0,0.0,0.0,0.0,0.0,0.0,0.0,0.0,0.0,0.0,0.0,0.0,0.0,0.0,0.0,0.0,0.0,0.0,0.0,0.0,0.0,0.0,0.0,0.0,0.0,0.0,0.0,0.0,0.0,0.0,0.0,0.0,0.0,0.0,0.0,0.0,0.0,0.0,0.0,0.0,0.0,0.0,0.0,0.0,0.0,0.0,0.0,0.0,0.0,0.0,0.0,0.0,0.0,0.0,0.0,0.0,0.0,0.0,0.0,0.0,0.0,0.0,0.0,0.0,0.0,0.0,0.0,0.0,0.0,0.0,0.0,0.0,0.0,0.0,1.5216,1.649,1.7464,1.7557,1.7828,1.8461,1.804,1.7058,1.546,0.0,0.0,0.0,0.0,0.0,0.0,0.0,0.0,0.0,0.0,0.0,0.0,0.0,0.0,0.0,0.0,0.0,0.0,0.0,0.0,0.0,0.0,0.0,0.0,0.0,0.0,0.0,0.0,0.0,0.0,0.0,0.0,0.0,0.0,0.0,0.0,0.0,0.0,0.0,0.0,0.0,0.0,0.0,0.0,0.0,0.0,0.0,0.0,0.0,0.0,0.0,0.0,0.0,0.0,0.0,0.0,0.0,0.0,0.0,0.0,0.0,0.0,0.0,0.0,0.0,0.0,0.0,0.0,0.0,0.0,0.0,0.0,0.0,0.0,0.0,0.0,0.0,0.0,0.0,0.0,0.0,0.0,0.0,0.0,0.0,0.0,0.0,0.0,0.0,0.0,0.0,0.0,0.0,0.0,0.0,0.0,0.0,0.0,0.0,0.0,0.0,0.0,1.376,1.5372,1.6637,1.7518,1.7598,1.7787,1.8226,1.7918,1.695,1.5203,0.0,0.0,0.0,0.0,0.0,0.0,0.0,0.0,0.0,0.0,0.0,0.0,0.0,0.0,0.0,0.0,0.0,0.0,0.0,0.0,0.0,0.0,0.0,0.0,0.0,0.0,0.0,0.0,0.0,0.0,0.0,0.0,0.0,0.0,0.0,0.0,0.0,0.0,0.0,0.0,0.0,0.0,0.0,0.0,0.0,0.0,0.0,0.0,0.0,0.0,0.0,0.0,0.0,0.0,0.0,0.0,0.0,0.0,0.0,0.0,0.0,0.0,0.0,0.0,0.0,0.0,0.0,0.0,0.0,0.0,0.0,0.0,0.0,0.0,0.0,0.0,0.0,0.0,0.0,0.0,0.0,0.0,0.0,0.0,0.0,0.0,0.0,0.0,0.0,0.0,0.0,0.0,0.0,0.0,0.0,0.0,0.0,0.0,0.0,0.0,0.0,0.0,1.3631,1.5787,1.7199,1.7199,1.7199,1.7352,1.776,1.6642,1.5702,0.0,0.0,0.0,0.0,0.0,0.0,0.0,0.0,0.0,0.0,0.0,0.0,0.0,0.0,0.0,0.0,0.0,0.0,0.0,0.0,0.0,0.0,0.0,0.0,0.0,0.0,0.0,0.0,0.0,0.0,0.0,0.0,0.0,0.0,0.0,0.0,0.0,0.0,0.0,0.0,0.0,0.0,0.0,0.0,0.0,0.0,0.0,0.0,0.0,0.0,0.0,0.0,0.0,0.0,0.0,0.0,0.0,0.0,0.0,0.0,0.0,0.0,0.0,0.0,0.0,0.0,0.0,0.0,0.0,0.0,0.0,0.0,0.0,0.0,0.0,0.0,0.0,0.0,0.0,0.0,0.0,0.0,0.0,0.0,0.0,0.0,0.0,0.0,0.0,0.0,0.0,0.0,0.0,0.0,0.0,0.0,0.0,0.0,0.0,0.0,0.0,0.0,0.0,1.3821,1.5875,1.7199,1.7199,1.7199,1.724,1.7352,1.7048,1.622,1.4766,0.0,0.0,0.0,0.0,0.0,0.0,0.0,0.0,0.0,0.0,0.0,0.0,0.0,0.0,0.0,0.0,0.0,0.0,0.0,0.0,0.0,0.0,0.0,0.0,0.0,0.0,0.0,0.0,0.0,0.0,0.0,0.0,0.0,0.0,0.0,0.0,0.0,0.0,0.0,0.0,0.0,0.0,0.0,0.0,0.0,0.0,0.0,0.0,0.0,0.0,0.0,0.0,0.0,0.0,0.0,0.0,0.0,0.0,0.0,0.0,0.0,0.0,0.0,0.0,0.0,0.0,0.0,0.0,0.0,0.0,0.0,0.0,0.0,0.0,0.0,0.0,0.0,0.0,0.0,0.0,0.0,0.0,0.0,0.0,0.0,0.0,0.0,0.0,0.0,0.0,0.0,0.0,0.0,0.0,0.0,0.0,0.0,0.0,0.0,0.0,0.0,0.0,1.3801,1.5875,1.7199,1.7199,1.7199,1.7199,1.7199,1.7199,1.6493,1.4828,0.0,0.0,0.0,0.0,0.0,0.0,0.0,0.0,0.0,0.0,0.0,0.0,0.0,0.0,0.0,0.0,0.0,0.0,0.0,0.0,0.0,0.0,0.0,0.0,0.0,0.0,0.0,0.0,0.0,0.0,0.0,0.0,0.0,0.0,0.0,0.0,0.0,0.0,0.0,0.0,0.0,0.0,0.0,0.0,0.0,0.0,0.0,0.0,0.0,0.0,0.0,0.0,0.0,0.0,0.0,0.0,0.0,0.0,0.0,0.0,0.0,0.0,0.0,0.0,0.0,0.0,0.0,0.0,0.0,0.0,0.0,0.0,0.0,0.0,0.0,0.0,0.0,0.0,0.0,0.0,0.0,0.0,0.0,0.0,0.0,0.0,0.0,0.0,0.0,0.0,0.0,0.0,0.0,0.0,0.0,0.0,0.0,0.0,0.0,0.0,0.0,0.0,1.3644,1.5787,1.7199,1.7199,1.7199,1.7199,1.7199,1.7199,1.6599,1.5162,0.0,0.0,0.0,0.0,0.0,0.0,0.0,0.0,0.0,0.0,0.0,0.0,0.0,0.0,0.0,0.0,0.0,0.0,0.0,0.0,0.0,0.0,0.0,0.0,0.0,0.0,0.0,0.0,0.0,0.0,0.0,0.0,0.0,0.0,0.0,0.0,0.0,0.0,0.0,0.0,0.0,0.0,0.0,0.0,0.0,0.0,0.0,0.0,0.0,0.0,0.0,0.0,0.0,0.0,0.0,0.0,0.0,0.0,0.0,0.0,1.1443,1.0755,0.0,0.0,0.0,0.0,0.0,0.0,0.0,0.0,0.0,0.0,0.0,0.0,0.0,0.0,0.0,0.0,0.0,0.0,0.0,0.0,0.0,0.0,0.0,0.0,0.0,0.0,0.0,0.0,0.0,0.0,0.0,0.0,0.0,0.0,0.0,0.0,0.0,0.0,0.0,0.0,1.3696,1.5787,1.7199,1.7199,1.7199,1.7199,1.7199,1.7199,1.677,1.5774,1.4413,0.0,0.0,0.0,0.0,0.0,0.0,0.0,0.0,0.0,0.0,0.0,0.0,0.0,0.0,0.0,0.0,0.0,0.0,0.0,0.0,0.0,0.0,0.0,0.0,0.0,0.0,0.0,0.0,0.0,0.0,0.0,0.0,0.0,0.0,0.0,0.0,0.0,0.0,0.0,0.0,0.0,0.0,0.0,0.0,0.0,0.0,0.0,0.0,0.0,0.0,0.0,0.0,0.0,0.0,0.0,0.0,0.0,0.0,0.0,1.3238,1.2962,0.0,0.0,0.0,0.0,0.0,0.0,0.0,0.0,0.0,0.0,0.0,0.0,0.0,0.0,0.0,0.0,0.0,0.0,0.0,0.0,0.0,0.0,0.0,0.0,0.0,0.0,0.0,0.0,0.0,0.0,0.0,0.0,0.0,0.0,0.0,0.0,0.0,0.0,0.0,0.0,1.4062,1.5944,1.7199,1.7199,1.7199,1.7199,1.7199,1.7199,1.6914,1.6201,1.507,0.0,0.0,0.0,0.0,0.0,0.0,0.0,0.0,0.0,0.0,0.0,0.0,0.0,0.0,0.0,0.0,0.0,0.0,0.0,0.0,0.0,0.0,0.0,0.0,0.0,0.0,0.0,0.0,0.0,0.0,0.0,0.0,0.0,0.0,0.0,0.0,0.0,0.0,0.0,0.0,0.0,0.0,0.0,0.0,0.0,0.0,0.0,0.0,0.0,0.0,0.0,0.0,0.0,1.2999,1.3296,1.4281,1.3803,1.4079,1.4889,1.4963,1.5163,1.5356,1.4935,0.0,0.0,0.0,0.0,0.0,0.0,0.0,0.0,0.0,0.0,0.0,0.0,0.0,0.0,0.0,0.0,0.0,0.0,0.0,0.0,0.0,0.0,1.6307,1.6575,1.6769,1.6625,1.5494,0.0,0.0,0.0,0.0,0.0,0.0,0.0,0.0,0.0,0.0,0.0,1.4611,1.6179,1.7199,1.7199,1.7199,1.7199,1.7199,1.7199,1.7003,1.6558,1.5676,1.4711,0.0,0.0,0.0,0.0,0.0,0.0,0.0,0.0,0.0,0.0,0.0,0.0,0.0,0.0,0.0,0.0,0.0,0.0,0.0,0.0,0.0,0.0,0.0,0.0,0.0,0.0,0.0,0.0,0.0,0.0,0.0,0.0,0.7747,0.8196,0.0,0.0,0.0,0.0,0.0,0.0,0.0,0.0,0.0,0.0,0.0,0.0,0.0,1.3254,1.3804,1.3782,1.3846,1.3969,1.3899,1.4264,1.4955,1.4779,1.533,1.6483,1.6575,0.0,1.4949,1.4455,0.0,0.0,0.0,0.0,0.0,0.0,0.0,0.0,0.0,0.0,0.0,0.0,0.0,0.0,0.0,0.0,0.0,0.0,0.0,0.0,0.0,0.0,1.8332,1.8364,1.8474,1.855,1.8359,1.6506,1.4661,1.3928,1.3616,1.3232,0.0,0.0,0.0,0.0,0.0,0.0,1.5291,1.6441,1.7199,1.7199,1.7199,1.7199,1.7199,1.7199,1.7173,1.7094,1.6546,1.6006,1.556,1.4346,0.0,0.0,0.0,0.0,0.0,0.0,0.0,0.0,0.0,0.0,0.0,0.0,0.0,0.0,0.0,0.0,0.0,0.0,0.0,0.0,0.0,0.0,0.0,0.0,0.0,0.0,0.0,0.0,0.0,0.7308,0.8344,0.8783,0.9391,0.9686,0.0,0.0,0.0,0.0,0.0,0.0,0.0,0.0,0.0,1.3369,1.4114,1.47,1.5198,1.5235,1.5342,1.5543,1.5566,1.5576,1.5682,1.5828,1.6189,1.6701,1.6974,1.6812,1.6437,1.6093,1.5525,1.4844,0.0,0.0,0.0,0.0,1.4073,1.4235,1.4072,1.4205,1.4315,1.3684,0.0,0.0,0.0,0.0,0.0,0.0,0.0,1.6005,1.6174,1.7115,1.8147,1.8652,1.8643,1.8644,1.9094,1.8033,1.6702,1.561,1.5036,1.435,1.3095,1.316,0.0,0.0,0.0,1.5271,1.5762,1.6921,1.7726,1.7804,1.7748,1.7708,1.7708,1.7395,1.7199,1.7199,1.6977,1.6665,1.6202,1.5451,1.4305,0.0,0.0,0.0,0.0,0.0,0.0,0.0,0.0,0.0,0.0,0.0,0.0,0.0,0.0,0.0,0.0,0.0,0.0,0.0,0.0,0.0,0.0,0.0,0.0,0.0,0.0,0.0,0.0,0.8152,0.9152,0.9649,1.0349,1.0662,0.0,0.0,0.0,0.0,0.0,0.0,1.2326,1.3516,1.4307,1.4619,1.5361,1.5908,1.623,1.623,1.6406,1.6665,1.6846,1.6728,1.6478,1.6919,1.7066,1.7071,1.7365,1.7592,1.7802,1.7375,1.6819,1.616,1.5886,1.5708,1.5575,1.5759,1.5881,1.5975,1.5899,1.6112,1.6251,1.5174,1.5055,1.5226,1.4558,0.0,0.0,0.0,0.0,1.6665,1.6795,1.7345,1.801,1.8619,1.8598,1.8585,1.9269,1.8892,1.819,1.7232,1.6676,1.5866,1.4314,1.443,0.0,1.4175,1.5081,1.6008,1.6446,1.739,1.8093,1.8291,1.8228,1.8208,1.831,1.7761,1.7434,1.7434,1.729,1.7016,1.6611,1.6361,1.5465,1.3815,0.0,0.0,0.0,0.0,0.0,0.0,0.0,0.0,0.0,0.0,0.0,0.0,0.0,0.0,0.0,0.0,0.0,0.0,0.0,0.0,0.0,0.0,0.0,0.0,0.0,0.0,0.0,0.0,0.0,1.1269,1.1737,0.0,0.0,0.0,0.0,1.3109,1.3627,1.417,1.46,1.5459,1.6007,1.6027,1.6426,1.668,1.6699,1.6699,1.6709,1.6738,1.7148,1.7334,1.7334,1.7945,1.819,1.8218,1.8157,1.8189,1.8107,1.7367,1.7286,1.7586,1.6711,1.6903,1.7564,1.6701,1.6645,1.6948,1.6507,1.6368,1.642,1.6746,1.6859,1.689,1.7402,1.7346,0.0,0.0,1.8123,1.8542,1.8061,1.8412,1.8888,1.8744,1.885,1.902,1.9319,1.8724,1.8252,1.8701,1.8754,1.8397,1.7365,0.0,1.708,1.6675,1.6678,1.6956,1.7518,1.7664,1.7879,1.8235,1.8316,1.8431,1.8813,1.8375,1.8048,1.8048,1.7512,1.7186,1.716,1.7133,1.6598,1.5419,1.4411,0.0,0.0,0.0,0.0,0.0,0.0,0.0,0.0,0.0,0.0,0.0,0.0,0.0,0.0,0.0,0.0,0.0,0.0,0.0,0.0,0.0,0.0,0.0,0.0,0.0,0.0,0.0,0.0,1.1483,1.2485,0.0,1.2941,1.3502,1.3834,1.38,1.4667,1.5088,1.4874,1.5603,1.5854,1.5444,1.5829,1.6306,1.6786,1.6853,1.7064,1.7559,1.7988,1.8047,1.7812,1.7995,1.8289,1.8686,1.8085,1.8213,1.8755,1.7949,1.768,1.7704,1.7366,1.7423,1.7701,1.7363,1.7363,1.7462,1.7303,1.7253,1.7274,1.7368,1.7438,1.7444,1.7672,1.7662,1.7547,1.7707,1.7937,1.8094,1.811,1.8228,1.8339,1.8453,1.8444,1.8483,1.8632,1.8684,1.8744,1.8916,1.8326,1.7612,1.7106,1.735,1.7321,1.6608,1.6989,1.7388,1.7482,1.7943,1.8338,1.859,1.8772,1.8948,1.9092,1.8487,1.81,1.81,1.7525,1.7199,1.7199,1.7199,1.6846,1.6088,1.5351,1.3994,0.0,0.0,0.0,0.0,0.0,0.0,0.0,0.0,0.0,0.0,0.0,0.0,0.0,0.0,0.0,0.0,0.0,0.0,0.0,0.0,0.0,0.0,0.0,0.0,0.0,1.0617,1.1962,1.1773,1.3039,1.3744,1.3365,1.3972,1.4333,1.4355,1.507,1.5478,1.5201,1.565,1.5729,1.5317,1.5547,1.5956,1.6515,1.6515,1.6733,1.7235,1.7638,1.7703,1.746,1.7679,1.8064,1.849,1.7862,1.8128,1.8947,1.8234,1.7992,1.7955,1.772,1.778,1.8031,1.8076,1.809,1.807,1.8173,1.8185,1.8185,1.8185,1.8185,1.8185,1.8185,1.8185,1.8185,1.8185,1.8185,1.8217,1.8249,1.8201,1.8083,1.8298,1.8245,1.8171,1.8374,1.8578,1.8793,1.8869,1.8401,1.7888,1.7545,1.7799,1.782,1.7029,1.7464,1.7808,1.764,1.8043,1.8486,1.8762,1.8946,1.9133,1.9246,1.861,1.8183,1.8183,1.7544,1.7199,1.7199,1.7199,1.7029,1.6676,1.5892,1.4638,1.2871,0.0,0.0,0.0,0.0,0.0,0.0,0.0,0.0,0.0,0.0,0.0,0.0,0.0,0.0,0.0,0.0,0.0,0.0,0.0,0.0,0.0,0.0,0.0,0.988,1.145,1.2504,1.2313,1.3439,1.3941,1.3404,1.3713,1.4188,1.4763,1.5002,1.53,1.5658,1.5675,1.5675,1.5604,1.5604,1.5675,1.5675,1.5675,1.5675,1.5675,1.6203,1.6383,1.6392,1.6976,1.7459,1.7859,1.7516,1.7823,1.8609,1.8073,1.8082,1.8479,1.7731,1.7911,1.8654,1.8809,1.8863,1.8884,1.9059,1.9116,1.9116,1.9116,1.9116,1.9116,1.9116,1.9106,1.9085,1.9085,1.9085,1.8971,1.8516,1.8392,1.8342,1.8237,1.8182,1.8233,1.8527,1.8355,1.8304,1.8527,1.916,1.9436,1.8875,1.8792,1.8684,1.8251,1.8141,0.0,1.8141,1.813,1.8282,1.8768,1.881,1.8958,1.9368,1.8696,1.8295,1.8295,1.7565,1.7157,1.7199,1.7199,1.7199,1.7199,1.6075,1.5033,1.4053,0.0,0.0,0.0,0.0,0.0,0.0,0.0,0.0,0.0,0.0,0.0,0.0,0.0,0.0,0.0,0.0,0.0,0.0,0.0,0.0,0.0,0.9538,1.0059,1.0166,1.1561,1.249,1.2273,1.3405,1.4049,1.364,1.4293,1.4712,1.4646,1.5101,1.5283,1.495,1.4752,1.4482,1.4129,1.4129,1.4338,1.4887,1.4887,1.5171,1.5675,1.6203,1.6383,1.6392,1.6238,1.6548,1.7168,1.6185,1.6421,1.7402,1.6676,1.6736,1.742,1.8008,1.8429,1.8692,1.9131,1.9595,1.9941,2.0019,2.0058,2.0058,2.0058,2.0058,2.0058,2.0058,1.9831,1.964,1.964,1.9323,1.9044,1.8909,1.863,1.8415,1.8353,1.8093,1.7853,1.7915,1.8166,1.8365,1.8286,1.8923,1.9385,1.9077,1.9044,1.9056,1.9264,1.9264,1.9264,1.9264,1.8931,1.8746,1.8858,1.8807,1.8851,1.8958,1.8325,1.7941,1.7941,1.7003,1.6565,1.685,1.685,1.6934,1.7199,1.6075,1.5465,0.0,0.0,0.0,0.0,0.0,0.0,0.0,0.0,0.0,0.0,0.0,0.0,0.0,0.0,0.0,0.0,0.0,0.0,0.0,0.0,0.0,0.0,1.0064,1.0616,1.1003,1.2232,1.2868,1.2461,1.352,1.4024,1.3525,1.3964,1.4191,1.4027,1.4543,1.4694,1.4336,1.4408,1.4253,1.4099,1.4099,1.432,1.4751,1.4751,1.4906,1.5209,1.5493,1.5589,1.5597,1.5192,1.536,1.588,1.5003,1.5239,1.6205,1.5713,1.5886,1.6505,0.0,0.0,0.0,0.0,1.9521,2.0317,2.0124,2.0206,2.042,2.042,2.042,2.042,2.042,2.0245,2.0038,2.0038,1.9706,1.9354,1.9354,1.9079,1.8671,1.8671,1.8475,1.8299,1.8299,1.8495,1.8664,1.8596,1.8956,0.0,1.9331,1.9194,1.9227,1.9629,1.9559,1.9499,1.9688,1.9424,1.9137,1.8919,1.8855,1.8752,1.8541,1.8076,0.0,0.0,0.0,1.6876,1.6992,1.6935,0.0,0.0,0.0,0.0,0.0,1.6788,0.0,0.0,1.6684,1.7021,0.0,0.0,0.0,0.0,0.0,0.0,0.0,0.0,0.0,0.0,0.0,0.0,0.0,0.0,0.0,0.0,1.0703,1.1338,1.2205,1.3104,1.3386,1.2828,1.3678,1.4011,1.333,1.325,1.3323,1.3323,1.3739,1.4011,1.4084,1.4362,0.0,0.0,0.0,1.4999,1.4999,1.4999,1.486,1.4575,1.4575,1.4575,1.4567,1.4238,1.4229,1.4517,1.4199,1.4479,1.5162,1.5172,1.5435,1.5875,1.5875,1.6533,1.764,1.8104,1.9004,2.0009,1.959,0.0,0.0,2.0339,2.035,2.035,2.035,2.0391,2.036,2.036,2.0112,1.99,1.99,1.953,1.922,1.922,1.9178,1.9214,1.9214,1.9106,1.9075,1.9075,1.9131,1.9274,1.9539,1.9345,1.9275,1.967,1.9467,1.9396,1.973,1.9815,1.9597,1.9114,1.9011,0.0,1.8221,1.8014,1.7894,1.7836,1.7775,1.7612,1.7451,1.7398,1.7643,1.8179,1.8236,1.8574,1.9256,1.9346,1.9642,2.0053,1.8314,1.8528,0.0,0.0,0.0,0.0,0.0,0.0,0.0,0.0,0.0,0.0,0.0,0.0,0.0,0.0,0.0,1.122,1.1696,1.2198,1.3014,1.3486,1.3561,1.3337,1.3841,1.4088,1.3601,1.3737,1.3812,1.3812,1.3945,1.4209,1.4728,1.4816,1.4999,1.5321,1.5335,1.5335,1.5335,1.5335,1.5306,1.5248,1.5248,0.0,1.5233,1.4904,1.475,1.4815,1.4565,1.4672,1.5042,1.5419,1.581,1.6161,1.6163,1.6891,1.7863,1.7938,1.8443,1.912,1.9324,1.9495,1.9618,1.9947,1.9966,1.9966,1.9966,2.0124,0.0,2.0222,2.0276,2.0296,2.0296,2.0234,2.0162,2.0162,1.9893,1.9624,1.9624,1.9401,1.9075,1.9075,1.9341,1.9539,1.9605,1.9521,1.9652,1.9962,2.0217,2.0355,2.043,2.033,2.0228,2.0125,1.9769,1.9321,1.8793,1.8331,1.7924,1.7508,1.77,1.7749,1.7698,1.8272,1.8623,1.8741,1.8948,1.9046,1.9002,1.9543,2.0069,2.0475,1.9778,2.0034,0.0,0.0,0.0,0.0,0.0,0.0,0.0,0.0,0.0,0.0,0.0,0.9031,0.9766,0.0,1.1043,1.2011,1.2428,1.2813,1.3662,1.3967,1.408,1.3846,1.3985,1.4004,1.3845,1.3906,1.4048,1.4216,1.4523,1.4918,1.5409,1.557,1.5804,1.6133,1.614,1.614,1.614,1.614,1.606,1.5899,1.5899,1.5899,1.5884,1.557,1.5431,1.5416,1.5087,1.5182,1.5648,1.6119,1.6575,1.6867,1.6713,1.6792,1.709,1.7301,1.7812,1.8351,1.8564,1.8854,1.9136,1.9554,1.9687,1.9648,1.9837,2.0227,2.0529,2.0529,2.067,2.0772,2.0772,2.0596,2.042,2.042,2.0255,2.0089,2.0089,1.9737,1.9484,1.9484,1.9431,1.9407,1.9539,1.9605,1.9802,2.0237,2.0506,2.07,2.0903,2.0814,2.0687,2.0435,2.0194,1.9849,1.9333,1.9057,1.8804,1.8552,1.8389,1.8244,1.8244,1.849,1.8892,1.9446,1.9917,2.0494,2.1068,2.1568,2.2034,2.2374,2.2164,2.2105,0.0,0.0,0.0,0.0,0.0,0.0,0.0,0.7683,0.8082,0.9045,0.9499,1.0004,1.1009,1.1209,1.1516,1.2419,1.2702,1.3113,1.3916,1.4372,1.4626,1.4439,1.4343,1.4238,1.4172,1.4223,1.437,1.4633,1.5196,1.5694,1.6082,1.633,1.6608,1.6938,1.6945,1.6916,1.6857,1.6857,1.6718,1.6462,1.6462,1.6499,1.6543,1.6235,1.6096,1.6255,1.6007,1.6194,1.668,1.694,1.7319,1.7686,1.7246,1.6901,1.6679,1.6858,1.722,1.7689,1.7836,1.8145,1.8639,1.8993,1.9133,1.9189,1.9418,1.9991,2.0557,2.0702,2.0913,2.11,2.1174,2.0969,2.069,2.069,2.0627,2.0555,2.0555,2.0203,1.9893,1.9893,1.952,1.9333,1.961,1.9669,1.9857,2.0442,2.0571,2.07,2.1031,2.1158,2.1009,2.0595,2.0561,2.0354,1.9872,1.9746,1.9688,1.9688,1.928,1.9017,1.9017,1.8855,1.9258,2.0204,2.1,2.1934,2.3029,2.3527,2.3863,2.4016,2.4179,2.4005,0.4065,0.4617,0.5399,0.6245,0.65,0.6774,0.0,0.7629,0.7817,0.9027,0.9544,1.0165,1.1517,1.1316,1.1222,1.2023,1.2353,1.2698,1.3264,1.417,1.4954,1.5209,1.5292,1.5153,1.486,1.5101,1.5284,1.5321,1.5657,1.6118,1.6718,1.6784,1.6945,1.7267,1.7274,1.7135,1.6857,1.6857,1.6835,1.6799,1.6799,1.6945,1.7208,1.6894,1.7018,1.7445,1.7556,1.7841,1.8239,1.7902,1.8096,1.8402,1.8036,1.784,1.7775,1.715,1.6918,1.7046,1.745,1.7562,1.77,1.8082,1.8132,1.8141,1.8175,1.8674,1.9301,1.9825,2.042,2.1028,2.1573,2.1694,2.1652,2.1652,2.1331,2.1041,2.1041,2.0679,2.0348,2.0348,1.9986,1.9754,1.9754,1.9937,2.0042,2.0161,2.0431,2.0635,2.0635,2.0967,2.121,2.1152,2.1078,2.0882,2.0377,1.9941,1.9688,1.9688,1.9948,2.0153,2.0153,2.0419,2.0754,2.1045,2.191,2.2352,2.243,2.3513,2.3965,2.3761,2.4511,2.484,0.4576,0.5211,0.592,0.6498,0.6981,0.748,0.8132,0.8205,0.8333,0.9212,0.9539,0.9899,1.0777,1.1029,1.1278,1.1879,1.2166,1.2692,1.3718,1.4056,1.4328,1.4543,1.4719,1.4871,1.4889,1.5065,1.5306,1.5687,1.6001,1.6455,1.7099,1.6952,1.6916,1.7047,1.6872,1.6704,1.6572,1.6572,1.6572,1.6572,1.6572,1.6645,1.6769,1.6828,1.7044,1.7482,1.7604,1.8111,1.8734,1.8838,1.9134,1.9538,1.917,1.9033,1.8913,1.7929,1.7569,1.756,1.7492,1.7466,1.7492,1.7655,1.7706,1.7749,1.7971,1.8442,1.9073,1.9301,2.0079,2.0944,2.1175,2.1568,2.1807,2.1807,2.1652,2.1518,2.1518,2.1155,2.0824,2.0824,2.0452,2.0222,2.0453,2.0562,2.0687,2.088,2.0939,2.0967,2.0967,2.1094,2.1221,2.1221,2.1221,2.1078,2.0871,2.0664,2.0549,2.0549,2.0433,2.0379,2.0379,2.0486,2.081,2.1311,2.2103,2.289,2.3609,2.43,2.4747,2.4975,2.5334,2.5514,0.5072,0.5647,0.6199,0.6536,0.7096,0.7678,0.8113,0.8216,0.8388,0.9124,0.9348,0.9622,1.0263,1.0707,1.1135,1.1575,1.1817,1.2343,1.3477,1.3487,1.3567,1.381,1.3937,1.4137,1.4426,1.4743,1.5104,1.5742,1.6242,1.6704,1.7172,1.6982,1.6813,1.6726,1.6491,1.633,1.6243,1.6243,1.6243,1.6243,1.6243,1.6287,1.6374,1.6795,1.7115,1.7415,1.7717,1.8205,1.8904,1.9347,1.9706,1.9966,1.9804,1.9744,1.957,1.893,1.8528,1.8314,1.8031,1.7937,1.792,1.7817,1.7775,1.7809,1.798,1.8362,1.8763,1.8922,1.9627,2.0479,2.0789,2.1098,2.1328,2.1721,2.1645,2.1568,2.1731,2.1538,2.13,2.13,2.0928,2.0689,2.0997,2.1034,2.109,2.1501,2.1509,2.1396,2.1259,2.1186,2.1221,2.1221,2.1221,2.1221,2.1221,2.1221,2.1221,2.1221,2.0814,2.0618,2.0618,2.0554,2.0819,2.1463,2.2157,2.3051,2.4092,2.4523,2.4921,2.537,2.555,2.5758,0.5241,0.5604,0.6018,0.6314,0.6542,0.6839,0.72,0.7208,0.7554,0.8495,0.9064,0.9661,1.0767,1.0699,1.0616,1.0945,1.1211,1.145,1.1724,1.2328,1.293,1.34,1.322,1.3156,1.3438,1.4309,1.5039,1.5356,1.6299,1.685,1.6865,1.6857,1.6711,1.6396,1.6374,1.6228,1.5935,1.5928,1.5928,1.5928,1.5928,1.6082,1.6455,1.6903,1.735,1.7803,1.823,1.8757,1.9204,1.9204,1.9213,1.9247,1.9598,1.9744,1.9778,2.0103,1.9761,1.9136,1.9127,1.9119,1.9059,1.8674,1.8554,1.8485,1.8143,1.8031,1.8201,1.8843,1.9002,1.9311,2.0557,2.0459,2.0294,2.1492,2.1339,2.1098,2.1645,2.1797,2.1787,2.1787,2.1414,2.1093,2.1093,2.103,2.1171,2.1522,2.1896,2.1901,2.1353,2.1263,2.1221,2.1221,2.1221,2.1221,2.1221,2.1221,2.1221,2.1221,2.121,2.121,2.121,2.1187,2.1325,2.1675,2.2298,2.2761,2.3148,2.3728,2.4021,2.4079,2.4694,2.5347,0.5277,0.5785,0.6327,0.6684,0.712,0.7466,0.7722,0.8001,0.8316,0.8613,0.867,0.8861,0.9296,0.9566,0.9823,1.0198,1.046,1.0952,1.202,1.2081,1.2122,1.2403,1.2518,1.2367,1.1865,1.3112,1.4329,1.5356,1.5666,1.6173,1.6843,1.6645,1.6389,1.6074,1.6067,1.6016,1.5913,1.6118,1.6213,1.6213,1.6009,1.5972,1.606,1.6011,1.6316,1.6881,1.6764,1.7133,1.7858,1.8118,1.8473,1.8749,1.9229,1.9521,1.9761,1.9881,1.9924,1.9881,1.9641,1.9555,1.9487,1.9102,1.8802,1.8562,1.8442,1.8228,1.804,1.8273,1.8683,1.9152,1.9991,2.006,2.0216,2.1492,2.1339,2.1098,2.1645,2.1807,2.1807,2.1807,2.191,2.1945,2.1945,2.2189,2.2448,2.2895,2.268,2.24,2.2241,2.2205,2.2042,2.1709,2.1663,2.1537,2.1256,2.1221,2.1221,2.1221,2.1221,2.1221,2.1221,2.1221,2.1371,2.1698,2.1925,2.2516,2.3603,2.3837,2.432,2.5097,2.5292,2.5775,0.5547,0.627,0.6954,0.7401,0.7841,0.8164,0.83,0.8475,0.868,0.8609,0.8503,0.8476,0.8453,0.8793,0.9314,0.9771,1.0001,1.0592,1.1821,1.1586,1.1432,1.1872,1.198,1.1866,1.1446,1.2371,1.3397,1.4545,1.5127,1.5812,1.6471,1.6562,1.6404,1.6089,1.6074,1.6074,1.6074,1.6272,1.6367,1.6367,1.617,1.6074,1.6074,1.5862,1.6014,1.6453,1.6425,1.6722,1.7227,1.7653,1.8151,1.8531,1.888,1.9281,1.9744,1.9744,1.9975,2.0257,2.0018,1.9941,1.9872,1.9495,1.9204,1.8973,1.8836,1.8537,1.8228,1.8228,1.8377,1.8754,1.945,1.9362,1.952,2.0857,2.0857,2.0702,2.1328,2.1645,2.1807,2.1807,2.2025,2.2176,2.2176,2.2628,2.315,2.3519,2.3413,2.3155,2.2972,2.2788,2.2559,2.2226,2.2203,2.2065,2.1732,2.1774,2.1774,2.1774,2.1774,2.1617,2.1445,2.167,2.1888,2.198,2.2221,2.2855,2.3875,2.3875,2.424,2.4937,2.5192,2.5801,0.6013,0.6898,0.7722,0.829,0.8562,0.8699,0.8689,0.8751,0.8689,0.8484,0.848,0.8459,0.8173,0.8516,0.9098,0.9715,0.9842,1.0277,1.115,1.0966,1.0934,1.1634,1.151,1.1548,1.2097,1.214,1.2415,1.3144,1.4656,1.5647,1.5739,1.6387,1.6704,1.6382,1.6382,1.6396,1.6396,1.6411,1.6411,1.6396,1.6396,1.6382,1.6367,1.6367,1.6468,1.6621,1.704,1.7263,1.7449,1.7857,1.8223,1.8614,1.8614,1.9076,1.9744,1.9744,1.9975,2.0292,2.0292,2.0292,2.0232,1.9881,1.9761,1.9675,1.9307,1.893,1.8614,1.8614,1.8348,1.8146,1.8869,1.8531,1.8345,1.959,1.9904,2.006,2.0779,2.1339,2.1731,2.1807,2.1807,2.1883,2.1959,2.2553,2.3224,2.3593,2.397,2.4028,2.3546,2.3052,2.2742,2.2719,2.2719,2.2708,2.2685,2.2685,2.2685,2.2685,2.2685,2.2467,2.1984,2.2634,2.287,2.2521,2.3179,2.3573,2.3809,2.3809,2.3821,2.3911,2.448,2.5446,0.5917,0.6659,0.7372,0.8384,0.8893,0.9125,0.8956,0.9005,0.9035,0.8816,0.8512,0.8292,0.8163,0.8596,0.906,0.959,0.9932,1.053,1.1478,1.1354,1.1365,1.1898,1.1752,1.1725,1.2113,1.214,1.2216,1.2582,1.3584,1.4638,1.564,1.5922,1.6154,1.6374,1.6601,1.6733,1.6733,1.6967,1.6967,1.6733,1.6733,1.6601,1.6367,1.6367,1.6587,1.6949,1.7124,1.7329,1.7774,1.8201,1.8421,1.859,1.8931,1.9316,1.9744,1.9744,1.9975,2.0292,2.0292,2.0292,2.0275,2.018,1.9966,1.9727,1.9632,1.9333,1.9025,1.9025,1.8751,1.8607,1.9172,1.8725,1.8345,1.959,1.9529,1.9539,2.0634,2.1021,2.1252,2.1731,2.2252,2.2852,2.3446,2.3751,2.3897,2.4043,2.4116,2.4154,2.4016,2.389,2.3661,2.3282,2.3247,2.3098,2.2708,2.2685,2.2685,2.2685,2.2685,2.2616,2.249,2.2684,2.2819,2.3026,2.3211,2.3605,2.4326,2.4326,2.453,2.4915,2.5054,2.5927,0.6215,0.7033,0.7734,0.8944,0.9316,0.9342,0.9171,0.9082,0.8958,0.8685,0.8316,0.7995,0.7807,0.8067,0.8436,0.908,0.9665,1.0347,1.1397,1.1521,1.1677,1.2156,1.1995,1.1984,1.2328,1.2269,1.2307,1.2549,1.3322,1.4069,1.4903,1.5284,1.5584,1.5782,1.6317,1.6785,1.7062,1.7238,1.7238,1.7062,1.7062,1.6967,1.6784,1.6784,1.6891,1.7026,1.747,1.7738,1.7866,1.8559,1.8919,1.9053,1.9153,1.9504,1.9966,1.9804,1.9975,2.0292,2.0292,2.0292,2.0292,2.0292,2.0155,1.9984,1.9984,1.9718,1.9427,1.9427,1.9144,1.892,1.9256,1.8932,1.8702,1.9416,1.9752,2.0111,2.0642,2.1154,2.1649,2.1762,2.2327,2.2927,2.3593,2.3824,2.397,2.42,2.42,2.42,2.42,2.42,2.4085,2.3798,2.3775,2.3661,2.3374,2.3339,2.3339,2.3339,2.3339,2.3247,2.3018,2.3375,2.3583,2.3544,2.3904,2.436,2.4867,2.4867,2.5023,2.5312,2.5312,2.6126,0.6557,0.7352,0.8165,0.9487,0.9649,0.9357,0.9222,0.8931,0.8652,0.8164,0.7822,0.7539,0.73,0.7339,0.7746,0.8579,0.9185,0.9992,1.1102,1.1553,1.1876,1.2355,1.2226,1.2274,1.2721,1.2549,1.2511,1.2748,1.3431,1.3811,1.3902,1.4573,1.4956,1.5051,1.5812,1.6473,1.7138,1.7232,1.7326,1.7326,1.7326,1.7326,1.7326,1.7326,1.7272,1.7189,1.8096,1.837,1.8169,1.8969,1.9521,1.9787,1.9453,1.9718,2.0249,1.9932,2.0018,2.0292,2.0292,2.0292,2.0292,2.0292,2.0292,2.0292,2.0292,2.0069,1.9821,1.9821,1.9538,1.9247,1.9247,1.9213,1.917,1.917,2.0099,2.0819,2.048,2.1392,2.2206,2.1956,2.2176,2.2628,2.3001,2.3446,2.3824,2.4127,2.42,2.42,2.42,2.42,2.42,2.42,2.42,2.42,2.42,2.42,2.42,2.42,2.42,2.4005,2.3569,2.4329,2.4566,2.4096,2.4873,2.5312,2.5312,2.5312,2.5312,2.5312,2.5312,2.6057,0.625,0.6505,0.6852,0.9071,0.9081,0.8568,0.888,0.8436,0.7849,0.737,0.7085,0.6871,0.6813,0.7314,0.8,0.873,0.9292,0.9992,1.1102,1.1553,1.1876,1.2355,1.2377,1.2457,1.2737,1.2549,1.2511,1.2748,1.2958,1.3238,1.3902,1.3998,1.4382,1.5051,1.5812,1.6285,1.6379,1.7044,1.7326,1.7326,1.7326,1.7326,1.7326,1.78,1.8149,1.8456,1.909,1.9604,1.9915,2.0005,2.0138,2.0189,2.0129,2.0172,2.0283,2.0223,2.024,2.0292,2.0292,2.0292,2.0292,2.0292,2.0292,2.0292,2.0292,2.0249,2.0198,2.0198,1.9932,1.9641,1.9641,1.941,1.917,1.917,1.9341,1.9569,1.9651,2.0502,2.142,2.2111,2.2628,2.3001,2.3457,2.3824,2.4116,2.42,2.42,2.42,2.42,2.42,2.42,2.42,2.42,2.42,2.42,2.42,2.42,2.42,2.42,2.4154,2.4074,2.4371,2.4599,2.4648,2.5004,2.5182,2.5312,2.5312,2.5312,2.5312,2.5312,2.5791,0.6298,0.6576,0.6909,0.9078,0.9009,0.847,0.8666,0.8032,0.7327,0.6977,0.6719,0.6557,0.6557,0.7036,0.758,0.8054,0.8635,0.9443,1.0632,1.1106,1.1596,1.2328,1.2414,1.2506,1.2737,1.2549,1.2511,1.2748,1.2764,1.2953,1.3335,1.3335,1.3715,1.4478,1.4854,1.5242,1.5622,1.6379,1.6763,1.6763,1.7138,1.7326,1.7326,1.7893,1.8179,1.8458,1.9279,1.9737,1.992,2.0201,2.0292,2.0292,2.0292,2.0292,2.0292,2.0292,2.0292,2.0292,2.0292,2.0292,2.0292,2.0292,2.0292,2.0292,2.0292,2.0292,2.0292,2.0292,2.0163,2.0026,2.0026,1.9898,1.9752,1.9752,1.9861,2.0084,2.0549,2.0933,2.1282,2.1751,2.2486,2.3075,2.3224,2.3824,2.42,2.42,2.42,2.42,2.42,2.42,2.42,2.42,2.42,2.42,2.42,2.42,2.42,2.42,2.42,2.4273,2.4345,2.4574,2.4718,2.4921,2.5111,2.5241,2.5312,2.5312,2.5312,2.5312,2.5312,2.5734,0.6348,0.673,0.7103,0.8954,0.8864,0.8299,0.8393,0.7698,0.6945,0.6713,0.6476,0.6315,0.6315,0.6654,0.7047,0.7341,0.7962,0.8797,1.004,1.0659,1.1316,1.2231,1.2425,1.2565,1.2748,1.2597,1.2565,1.2748,1.2764,1.2764,1.2764,1.2764,1.305,1.3619,1.3811,1.419,1.486,1.5622,1.6001,1.6001,1.6574,1.7044,1.7225,1.7792,1.8265,1.845,1.9363,1.9737,1.9828,2.011,2.0292,2.0292,2.0292,2.0292,2.0292,2.0292,2.0292,2.0292,2.0292,2.0292,2.0292,2.0292,2.0292,2.0292,2.0292,2.0292,2.0292,2.0292,2.0292,2.0292,2.0292,2.0292,2.0292,2.0292,2.0447,2.0674,2.1349,2.1284,2.1167,2.1499,2.2309,2.2993,2.3154,2.3745,2.42,2.42,2.42,2.42,2.42,2.42,2.42,2.42,2.42,2.42,2.42,2.42,2.42,2.42,2.42,2.4273,2.4502,2.4718,2.4861,2.5123,2.5241,2.5312,2.5312,2.5312,2.5312,2.5312,2.5312,2.5581,0.6005,0.6207,0.6481,0.849,0.8331,0.7779,0.8154,0.7445,0.6702,0.6476,0.6229,0.6056,0.6056,0.6277,0.6676,0.7287,0.7682,0.8355,0.9755,1.0552,1.1257,1.1995,1.2463,1.2737,1.2759,1.2743,1.2737,1.2759,1.2764,1.2764,1.2764,1.2764,1.2861,1.2856,1.3522,1.3908,1.3998,1.4765,1.5242,1.5242,1.5432,1.6089,1.6936,1.7777,1.8611,1.9455,2.0019,2.0201,2.0201,2.0292,2.0292,2.0292,2.0292,2.0292,2.0292,2.0292,2.0292,2.0292,2.0292,2.0292,2.0292,2.0292,2.0292,2.0292,2.0292,2.0292,2.0292,2.0292,2.0292,2.0292,2.0292,2.0292,2.0292,2.0292,2.0009,1.9991,2.0674,2.0503,2.0624,2.1787,2.238,2.2854,2.3503,2.3981,2.42,2.42,2.42,2.42,2.42,2.42,2.42,2.42,2.42,2.42,2.42,2.42,2.42,2.42,2.42,2.4273,2.4502,2.4718,2.4861,2.5123,2.5241,2.5312,2.5312,2.5312,2.5312,2.5312,2.5312,2.5312,0.5962,0.6372,0.6835,0.8477,0.8443,0.7994,0.8188,0.7305,0.6503,0.6417,0.6083,0.5814,0.5814,0.6008,0.6309,0.6746,0.7009,0.7553,0.8694,0.9346,1.0132,1.1273,1.1828,1.2291,1.2721,1.2764,1.2764,1.2764,1.2764,1.2764,1.2764,1.2764,1.2764,1.2764,1.305,1.3238,1.3238,1.4004,1.4382,1.4382,1.5051,1.5906,1.6936,1.777,1.8611,1.9646,2.011,2.0292,2.0292,2.0292,2.0292,2.0292,2.0292,2.0292,2.0292,2.0292,2.0292,2.0292,2.0292,2.0292,2.0292,2.0292,2.0292,2.0292,2.0292,2.0292,2.0292,2.0292,2.0292,2.0292,2.0292,2.0292,2.0292,2.0292,2.018,2.0159,2.0419,2.0456,2.0612,2.1117,2.2257,2.3077,2.3048,2.3916,2.4625,2.4625,2.4625,2.474,2.5073,2.5107,2.5107,2.5107,2.4568,2.42,2.42,2.42,2.42,2.42,2.42,2.4345,2.4646,2.479,2.4921,2.5182,2.5241,2.5312,2.5312,2.5312,2.5312,2.5312,2.5312,2.548,0.6212,0.675,0.7274,0.8487,0.8516,0.8175,0.7973,0.7139,0.6374,0.6299,0.596,0.568,0.568,0.5868,0.6105,0.0,0.6643,0.7171,0.8124,0.8727,0.9523,1.0735,1.1305,1.1849,1.249,1.2678,1.2764,1.2764,1.2764,1.2764,1.2764,1.2764,1.2764,1.2764,1.2764,1.2764,1.2764,1.3335,1.3619,1.3715,1.4484,1.5432,1.6452,1.7109,1.8141,1.9355,1.9729,2.0011,2.0292,2.0292,2.0292,2.0292,2.0292,2.0292,2.0292,2.0292,2.0292,2.0292,2.0292,2.0292,2.0292,2.0292,2.0292,2.0292,2.0292,2.0292,2.0292,2.0292,2.0292,2.0292,2.0292,2.0292,2.0292,2.0292,2.0292,2.0292,2.0292,2.0427,2.0677,2.0844,2.1947,2.288,2.3054,2.3984,2.4827,2.5066,2.5153,2.5279,2.5658,2.5716,2.5716,2.5716,2.5073,2.4579,2.4418,2.4281,2.42,2.42,2.4273,2.4418,2.4801,2.479,2.4992,2.5312,2.5241,2.5241,2.5312,2.5312,2.5312,2.5312,2.5468,2.5973,0.6734,0.7305,0.7657,0.8322,0.8334,0.8088,0.7506,0.6907,0.6326,0.6073,0.5841,0.568,0.568,0.5868,0.6105,0.6353,0.6778,0.7419,0.8377,0.9125,0.9836,1.0552,1.1063,1.1542,1.2102,1.2484,1.2764,1.2764,1.2764,1.2764,1.2764,1.2764,1.2764,1.2764,1.2764,1.2764,1.2764,1.2764,1.2953,1.3147,1.3346,1.4196,1.5406,1.5697,1.6922,1.8796,1.8788,1.9355,2.0292,2.0292,2.0292,2.0292,2.0292,2.0292,2.0292,2.0292,2.0292,2.0292,2.0292,2.0292,2.0292,2.0292,2.0292,2.0292,2.0292,2.0292,2.0292,2.0292,2.0292,2.0292,2.0292,2.0292,2.0292,2.0292,2.0292,2.0292,2.0292,2.0292,2.0555,2.1266,2.1549,2.2101,2.3784,2.4213,2.4624,2.5538,2.5704,2.5704,2.5716,2.5716,2.5716,2.5716,2.5704,2.5486,2.4946,2.4464,2.42,2.42,2.4418,2.4574,2.4801,2.479,2.4992,2.5312,2.5182,2.5182,2.5312,2.5312,2.5312,2.5324,2.5841,2.6737,0.6119,0.6599,0.7016,0.7438,0.7602,0.7548,0.7015,0.667,0.632,0.6073,0.5836,0.568,0.568,0.5868,0.6207,0.6772,0.7128,0.7553,0.8178,0.8877,0.9593,1.0315,1.1537,1.2377,1.2522,1.2673,1.2764,1.2764,1.2764,1.2764,1.2764,1.2764,1.2764,1.2764,1.2764,1.2764,1.2764,1.2953,1.305,1.3147,1.3545,1.4388,1.5406,1.5697,1.6922,1.8788,1.8788,1.9355,2.0292,2.0292,2.0292,2.0292,2.0292,2.0292,2.0292,2.0292,2.0292,2.0292,2.0292,2.0292,2.0292,2.0292,2.0292,2.0292,2.0292,2.0292,2.0292,2.0292,2.0292,2.0292,2.0292,2.0292,2.0292,2.0292,2.0292,2.0292,2.0292,2.0292,2.0382,2.0645,2.1416,2.2361,2.3241,2.4164,2.5154,2.6142,2.6221,2.6358,2.6703,2.6749,2.6749,2.6749,2.6439,2.5865,2.4992,2.4774,2.4545,2.4212,2.4273,2.4429,2.4801,2.479,2.4992,2.5312,2.5241,2.5421,2.5841,2.5841,2.6045,2.643,2.6959,2.7372,0.6103,0.6455,0.6773,0.7025,0.7133,0.7025,0.6692,0.6423,0.6186,0.5943,0.5777,0.568,0.568,0.5943,0.6309,0.6751,0.7101,0.751,0.8131,0.8684,0.9443,1.0433,1.1704,1.2495,1.2495,1.2657,1.2764,1.2764,1.2764,1.2764,1.2764,1.2764,1.2764,1.2764,1.2861,1.2953,1.2953,1.3152,1.3346,1.3443,1.3738,1.4298,1.4943,1.514,1.6075,1.7669,1.8041,1.8788,0.0,2.0102,2.0292,2.0292,2.0292,2.0292,2.0292,2.0292,2.0292,2.0292,2.0292,2.0292,2.0292,2.0292,2.0292,2.0292,2.0292,2.0292,2.0292,2.0292,2.0292,2.0292,2.0292,2.0292,2.0292,2.0292,2.0292,2.0292,2.0292,2.0292,2.0292,2.0473,2.1257,2.2045,2.2801,2.3959,2.5157,2.6069,2.6576,2.6864,2.7185,2.7231,2.7231,2.7231,2.6944,2.6416,2.5566,2.5325,2.5084,2.4786,2.4911,2.5133,2.5366,2.5439,2.5573,2.5925,2.5841,2.6008,2.6418,2.6418,2.6695,2.7236,2.7572,2.7837,0.0,0.6625,0.6678,0.6934,0.6832,0.6577,0.6396,0.6175,0.0,0.5728,0.568,0.569,0.5723,0.6094,0.6417,0.6482,0.688,0.7424,0.8164,0.8733,0.9523,1.0896,1.1671,1.2189,1.2189,1.2501,1.2764,1.2764,1.2764,1.2764,1.2764,1.2764,1.2764,1.2764,1.305,1.3147,1.3147,1.3346,1.3642,1.3931,1.3931,1.4022,1.4298,1.4298,1.486,1.5893,1.6821,1.7762,1.888,1.982,2.0201,2.0292,2.0292,2.0292,2.0292,2.0292,2.0292,2.0292,2.0292,2.0292,2.0292,2.0292,2.0292,2.0292,2.0292,2.0292,2.0292,2.0292,2.0292,2.0292,2.0292,2.0292,2.0292,2.0292,2.0292,2.0292,2.0292,2.0292,2.0382,2.0654,2.0826,2.1347,2.2473,2.3704,2.4744,2.5652,2.661,2.7231,2.7231,2.7231,2.7231,2.7231,2.7231,2.7036,2.6565,2.606,2.575,2.5716,2.6077,2.6306,2.6294,2.6458,2.6697,2.6935,2.6733,2.6757,2.6995,2.7031,2.7296,2.7777,2.7777,2.8041,0.5535,0.0,0.5929,0.5994,0.596,0.5945,0.0,0.5938,0.5954,0.5728,0.0,0.5793,0.6159,0.632,0.6633,0.7354,0.7865,0.8301,0.8712,0.9728,1.081,1.1782,1.2269,1.2592,1.2592,1.27,1.2764,1.2764,1.2764,1.2764,1.2764,1.2764,1.2764,1.2764,1.3152,1.3346,1.3147,1.3346,1.3642,1.3931,1.4118,1.4202,1.4298,1.4298,1.486,1.5792,1.6075,1.7203,1.8788,1.9072,1.9637,2.0292,2.0292,2.0292,2.0292,2.0292,2.0292,2.0292,2.0292,2.0292,2.0292,2.0292,2.0292,2.0292,2.0292,2.0292,2.0292,2.0292,2.0292,2.0292,2.0292,2.0292,2.0292,2.0292,2.0292,2.0292,2.0292,2.0292,2.0292,2.0382,2.0555,2.1087,2.2306,2.3444,2.4563,2.5652,2.661,2.7231,2.7231,2.7231,2.7231,2.7231,2.7231,2.7185,2.7059,2.6577,2.6129,2.5739,2.5923,2.6142,2.6294,2.6458,2.6697,2.6935,2.7256,2.7459,2.7536,2.7945,2.821,2.8318,2.8318,2.839,0.5246,0.5579,0.5809,0.5734,0.5752,0.5855,0.5818,0.0,0.0,0.0,0.0,0.5916,0.6175,0.6487,0.6875,0.7386,0.7962,0.8581,0.9254,1.0482,1.1494,1.208,1.2468,1.2764,1.2764,1.2764,1.2764,1.2764,1.2764,1.2764,1.2764,1.2764,1.2861,1.2958,1.3147,1.3346,1.3244,1.363,1.3919,1.4118,1.4202,1.4298,1.4298,1.4298,1.458,1.514,1.5609,1.6452,1.7483,1.8419,1.9163,1.9637,2.0102,2.0292,2.0292,2.0292,2.0292,2.0292,2.0292,2.0292,2.0292,2.0292,2.0292,2.0292,2.0292,2.0292,2.0292,2.0292,2.0292,2.0292,2.0292,2.0292,2.0292,2.0292,2.0292,2.0292,2.0292,2.0292,2.0382,2.0473,2.0645,2.1087,2.1802,2.328,2.4478,2.5073,2.6362,2.7231,2.7231,2.7231,2.7231,2.7231,2.7231,2.7231,2.7231,2.6978,2.6703,2.6427,2.6709,2.6945,2.7035,2.7347,2.749,2.7657,2.7933,2.8089,2.8089,2.8366,2.851,2.851,2.851,2.851,0.5276,0.5721,0.6016,0.5758,0.5841,0.6016,0.5984,0.0,0.0,0.0,0.0,0.0,0.617,0.6708,0.7165,0.7235,0.7936,0.877,0.9922,1.1015,1.1785,1.2113,1.2468,1.2764,1.2764,1.2764,1.2764,1.2764,1.2764,1.2764,1.2764,1.2764,1.2856,1.305,1.3147,1.3249,1.3539,1.4016,1.4298,1.4298,1.4298,1.4298,1.4298,1.4298,1.4298,1.4394,1.5235,1.5704,1.5893,1.7669,1.8511,1.8888,1.9729,2.0192,2.0292,2.0292,2.0292,2.0292,2.0292,2.0292,2.0292,2.0292,2.0292,2.0292,2.0292,2.0292,2.0292,2.0292,2.0292,2.0292,2.0292,2.0292,2.0292,2.0292,2.0292,2.0292,2.0292,2.0292,2.0382,2.0654,2.0826,2.1096,2.1392,2.294,2.4317,2.4498,2.5946,2.7056,2.7149,2.7231,2.7231,2.7231,2.7231,2.7231,2.7231,2.7231,2.7231,2.7231,2.7638,2.7973,2.7973,2.8351,2.851,2.851,2.851,2.851,2.851,2.851,2.851,2.851,2.851,2.851,0.546,0.5966,0.624,0.5791,0.5841,0.6022,0.6021,0.0,0.0,0.0,0.0,0.0,0.6848,0.7182,0.7526,0.7979,0.8826,0.9701,1.0681,1.1327,1.1785,1.2113,1.2468,1.2764,1.2764,1.2764,1.2764,1.2764,1.2764,1.2764,1.2764,1.2764,1.2764,1.2861,1.3249,1.3443,1.3539,1.3829,1.4118,1.4298,1.4298,1.4298,1.4298,1.4298,1.4298,1.4298,1.4484,1.5045,1.5798,1.617,1.7289,1.8788,1.898,1.9538,2.0292,2.0292,2.0292,2.0292,2.0292,2.0292,2.0292,2.0292,2.0292,2.0292,2.0292,2.0292,2.0292,2.0292,2.0292,2.0292,2.0292,2.0292,2.0292,2.0292,2.0292,2.0292,2.0292,2.0292,2.0382,2.0654,2.0736,2.0925,2.1302,2.2236,2.3347,2.4327,2.5337,2.6268,2.7056,2.7231,2.7231,2.7231,2.7231,2.7231,2.7231,2.7231,2.7231,2.7231,2.7638,2.8042,2.8351,2.8431,2.851,2.851,2.851,2.851,2.851,2.851,2.851,2.851,2.851,2.8578,0.5194,0.5726,0.6137,0.5916,0.6123,0.6386,0.6379,0.6401,0.0,0.0,0.0,0.0,0.7042,0.7602,0.8264,0.8985,0.9588,1.0202,1.0891,1.1505,1.193,1.2129,1.2468,1.2764,1.2764,1.2764,1.2764,1.2764,1.2764,1.2764,1.2764,1.2764,1.2861,1.2958,1.3152,1.3443,1.3738,1.3835,1.4022,1.4298,1.4298,1.4298,1.4298,1.4298,1.4298,1.4298,1.4298,1.458,1.5051,1.5609,1.6358,1.7296,1.8419,1.9072,1.9546,2.0102,2.0292,2.0292,2.0292,2.0292,2.0292,2.0292,2.0292,2.0292,2.0292,2.0292,2.0292,2.0292,2.0292,2.0292,2.0292,2.0292,2.0292,2.0292,2.0292,2.0292,2.0292,2.0292,2.0382,2.0473,2.0645,2.0916,2.1195,2.258,2.3877,2.4413,2.5684,2.6704,2.7138,2.7231,2.7231,2.7231,2.7231,2.7231,2.7231,2.7231,2.7313,2.7557,2.7626,2.795,2.851,2.8431,2.8419,2.851,2.851,2.851,2.851,2.851,2.851,2.851,2.8578,2.8724,0.4994,0.5527,0.6035,0.6094,0.0,0.6635,0.6794,0.6681,0.6606,0.0,0.0,0.7332,0.7332,0.8027,0.8921,0.9927,1.025,1.0536,1.1004,1.1585,1.1968,1.1968,1.2388,1.2684,1.2684,1.2732,1.2764,1.2764,1.2764,1.2764,1.2764,1.2764,1.2861,1.305,1.3147,1.3346,1.3835,1.3835,1.4022,1.4298,1.4298,1.4298,1.4298,1.4298,1.4298,1.4298,1.4298,1.4298,1.4394,1.514,1.5609,1.5988,1.7483,1.8419,1.8888,1.992,2.0292,2.0292,2.0292,2.0292,2.0292,2.0292,2.0292,2.0292,2.0292,2.0292,2.0292,2.0292,2.0292,2.0292,2.0292,2.0292,2.0292,2.0292,2.0292,2.0292,2.0292,2.0292,2.0292,2.0382,2.0736,2.0997,2.1096,2.258,2.3983,2.4413,2.5695,2.6715,2.7149,2.7231,2.7231,2.7231,2.7231,2.7231,2.7231,2.7231,2.7394,2.7893,2.7708,2.7857,2.851,2.8339,2.8339,2.851,2.851,2.851,2.851,2.851,2.851,2.851,2.8724,2.8803,0.5219,0.5687,0.6073,0.6309,0.6396,0.0,0.6961,0.7047,0.0,0.7947,0.811,0.8131,0.8131,0.8554,0.9222,1.039,1.06,1.0778,1.1171,1.1553,1.1725,1.1725,1.2151,1.2441,1.2441,1.2635,1.2764,1.2764,1.2764,1.2764,1.2764,1.2764,1.2764,1.2861,1.3249,1.3443,1.3539,1.3738,1.4022,1.4298,1.4298,1.4298,1.4298,1.4298,1.4298,1.4298,1.4298,1.4298,1.4298,1.4394,1.4956,1.5792,1.5988,1.7203,1.8888,1.992,2.0292,2.0292,2.0292,2.0292,2.0292,2.0292,2.0292,2.0292,2.0292,2.0292,2.0292,2.0292,2.0292,2.0292,2.0292,2.0292,2.0292,2.0292,2.0292,2.0292,2.0292,2.0292,2.0382,2.0654,2.0826,2.1096,2.1302,2.1651,2.2511,2.4241,2.4584,2.5263,2.6974,2.7231,2.7231,2.7231,2.7231,2.7231,2.7231,2.7231,2.7394,2.7893,2.7881,2.8042,2.851,2.851,2.851,2.851,2.851,2.851,2.851,2.851,2.851,2.851,2.8724,2.8882,0.4979,0.5471,0.59,0.6299,0.6396,0.0,0.0,0.7316,0.7645,0.812,0.8451,0.875,0.8985,0.9184,0.9599,1.0487,1.0638,1.0723,1.1198,1.1553,1.1698,1.1698,1.1989,1.2248,1.2398,1.2495,1.2608,1.2754,1.2764,1.2764,1.2764,1.2764,1.2764,1.2764,1.2958,1.3249,1.3539,1.3443,1.3636,1.4022,1.4022,1.4112,1.4298,1.4298,1.4298,1.4298,1.4298,1.4298,1.4298,1.4298,1.4484,1.4949,1.6264,1.7576,1.8888,1.992,2.0292,2.0292,2.0292,2.0292,2.0292,2.0292,2.0292,2.0292,2.0292,2.0292,2.0292,2.0292,2.0292,2.0292,2.0292,2.0292,2.0292,2.0292,2.0292,2.0292,2.0292,2.0292,2.0292,2.0473,2.0736,2.0997,2.1096,2.198,2.3018,2.4327,2.4999,2.5757,2.7056,2.7231,2.7231,2.7231,2.7231,2.7231,2.7231,2.7231,2.7301,2.7615,2.7615,2.7938,2.851,2.8339,2.8351,2.851,2.851,2.851,2.851,2.851,2.851,2.851,2.8816,2.9052,0.4765,0.5273,0.5777,0.6175,0.0,0.0,0.7095,0.751,0.793,0.8388,0.8743,0.912,0.9599,0.9626,0.9809,1.0519,1.0697,1.0891,1.1209,1.1488,1.1591,1.1591,1.1795,1.2005,1.2172,1.2258,1.2398,1.2635,1.2651,1.2684,1.2759,1.2764,1.2764,1.2764,1.2861,1.305,1.3346,1.3147,1.3346,1.3738,1.3738,1.3829,1.401,1.4202,1.4298,1.4208,1.4298,1.4298,1.4298,1.4298,1.4298,1.4484,1.617,1.7296,1.7948,1.898,1.9538,1.982,1.982,2.0011,2.0292,2.0292,2.0292,2.0292,2.0292,2.0292,2.0292,2.0292,2.0292,2.0292,2.0292,2.0292,2.0292,2.0292,2.0292,2.0292,2.0292,2.0292,2.0292,2.0292,2.0645,2.0907,2.0997,2.1882,2.2931,2.3887,2.4819,2.5746,2.6622,2.7056,2.7231,2.7231,2.7231,2.7231,2.7231,2.7231,2.7301,2.7522,2.7603,2.7857,2.8339,2.8339,2.8339,2.851,2.851,2.851,2.851,2.851,2.851,2.851,2.8895,2.9131,0.4661,0.5197,0.5733,0.5965,0.0,0.0,0.7287,0.7639,0.8075,0.9017,0.9211,0.9357,0.983,0.9739,0.9814,1.0519,1.0832,1.1069,1.123,1.1262,1.1262,1.1262,1.1553,1.1698,1.1698,1.1908,1.2145,1.2393,1.2414,1.2511,1.2743,1.2759,1.2759,1.2759,1.2953,1.3147,1.3147,1.3147,1.3249,1.3443,1.3249,1.3244,1.3539,1.401,1.4112,1.3931,1.4208,1.4298,1.4298,1.4298,1.4298,1.4388,1.5425,1.5798,1.5886,1.6922,1.7948,1.8788,1.8788,1.9446,2.0292,2.0292,2.0292,2.0292,2.0292,2.0292,2.0292,2.0292,2.0292,2.0292,2.0292,2.0292,2.0292,2.0292,2.0292,2.0292,2.0292,2.0292,2.0292,2.0292,2.0564,2.0744,2.0997,2.1195,2.182,2.2931,2.3887,2.4829,2.5746,2.661,2.7231,2.7231,2.7231,2.7231,2.7231,2.7231,2.7301,2.7522,2.7708,2.7962,2.8179,2.8419,2.851,2.851,2.851,2.851,2.851,2.851,2.851,2.851,2.8895,2.9131,0.4812,0.5391,0.5976,0.6223,0.6767,0.7266,0.0,0.814,0.0,0.955,0.9707,0.975,0.9895,1.0008,1.0202,1.0573,1.0832,1.1069,1.123,1.1262,1.1262,1.1262,1.1413,1.1521,1.1682,1.1763,1.1903,1.214,1.2156,1.2188,1.2258,1.2425,1.2517,1.2517,1.2775,1.2958,1.3147,1.2958,1.2958,1.3244,1.3147,1.3244,1.3539,1.3829,1.4027,1.3931,1.4208,1.4298,1.4298,1.4298,1.4298,1.4388,1.5425,1.5798,1.5886,1.6922,1.7948,1.8788,1.8788,1.9446,2.0292,2.0292,2.0292,2.0292,2.0292,2.0292,2.0292,2.0292,2.0292,2.0292,2.0292,2.0292,2.0292,2.0292,2.0292,2.0292,2.0292,2.0292,2.0292,2.0292,2.0645,2.0907,2.0997,2.1374,2.1989,2.2931,2.3887,2.5094,2.6622,2.7056,2.7231,2.7231,2.7231,2.7231,2.7231,2.7231,2.7231,2.7301,2.7638,2.7962,2.8179,2.8419,2.851,2.851,2.851,2.851,2.851,2.851,2.851,2.851,2.8895,2.9131,0.5156,0.5626,0.6121,0.6563,0.7063,0.7554,0.8221,0.8689,0.9174,0.9793,0.9846,0.9814,0.99,1.0046,1.025,1.0579,1.0832,1.1069,1.123,1.1262,1.1262,1.1262,1.1262,1.1321,1.1548,1.1558,1.1661,1.1892,1.1908,1.1951,1.2135,1.2188,1.2269,1.2269,1.2501,1.272,1.2816,1.2813,1.2861,1.2953,1.2953,1.3055,1.3249,1.3738,1.3835,1.3738,1.4112,1.4298,1.4298,1.4298,1.4298,1.4394,1.4956,1.5235,1.5235,1.5893,1.7016,1.8226,1.8226,1.9163,2.0292,2.0292,2.0292,2.0292,2.0292,2.0292,2.0292,2.0292,2.0292,2.0292,2.0292,2.0292,2.0292,2.0292,2.0292,2.0292,2.0292,2.0292,2.0292,2.0292,2.0645,2.0907,2.0997,2.1284,2.182,2.2413,2.3627,2.5009,2.6445,2.6962,2.7231,2.7231,2.7231,2.7231,2.7231,2.7231,2.7231,2.7231,2.7638,2.7962,2.8111,2.8351,2.851,2.851,2.851,2.851,2.851,2.851,2.851,2.851,2.8895,2.9131,0.5487,0.5847,0.6218,0.6912,0.73,0.7747,0.8921,0.919,0.934,0.982,0.9755,0.9674,0.9884,0.9938,1.01,1.053,1.0816,1.1063,1.1284,1.1251,1.1262,1.1262,1.1262,1.1262,1.1262,1.1262,1.144,1.1655,1.1666,1.1758,1.1973,1.2097,1.2016,1.2016,1.2253,1.2382,1.2382,1.2592,1.27,1.27,1.27,1.27,1.2796,1.3522,1.3738,1.3539,1.4106,1.4298,1.4298,1.4298,1.4298,1.4298,1.4388,1.449,1.4484,1.458,1.5798,1.7483,1.7483,1.8696,2.0292,2.0292,2.0292,2.0292,2.0292,2.0292,2.0292,2.0292,2.0292,2.0292,2.0292,2.0292,2.0292,2.0292,2.0292,2.0292,2.0292,2.0292,2.0292,2.0292,2.0564,2.0826,2.0997,2.1284,2.1482,2.182,2.3377,2.4829,2.5663,2.661,2.7231,2.7231,2.7231,2.7231,2.7231,2.7231,2.7231,2.7231,2.7638,2.7893,2.7893,2.8283,2.851,2.851,2.851,2.851,2.851,2.851,2.851,2.851,2.8895,2.9131,0.5316,0.5841,0.6439,0.6956,0.7542,0.8161,0.8791,0.9077,0.934,0.982,0.9879,0.9863,0.9911,1.0083,1.025,1.0353,1.0713,1.1004,1.1052,1.123,1.1262,1.1262,1.1262,1.1262,1.1262,1.1262,1.1283,1.1424,1.1429,1.1445,1.1499,1.1671,1.1774,1.1774,1.2,1.2124,1.2124,1.2178,1.2297,1.2297,1.2297,1.2297,1.2308,1.2975,1.3443,1.3835,1.4208,1.4298,1.4298,1.4298,1.4298,1.4394,1.514,1.5514,1.5609,1.6358,1.739,1.8511,1.8511,1.9263,2.0292,2.0292,2.0292,2.0292,2.0292,2.0292,2.0292,2.0292,2.0292,2.0292,2.0292,2.0292,2.0292,2.0292,2.0292,2.0292,2.0292,2.0292,2.0382,2.0564,2.0826,2.1006,2.1293,2.1472,2.1909,2.2668,2.38,2.4829,2.5663,2.661,2.7231,2.7231,2.7231,2.7231,2.7231,2.7231,2.7231,2.7231,2.7638,2.7893,2.7893,2.8283,2.851,2.851,2.851,2.851,2.851,2.851,2.851,2.851,2.8895,2.9131,0.5514,0.6013,0.6563,0.7252,0.7849,0.8337,0.882,0.8953,0.9179,0.9658,0.9841,0.9922,0.9922,1.0024,1.0153,1.0277,1.0498,1.0692,1.0799,1.1025,1.1176,1.1176,1.1278,1.1262,1.1262,1.1262,1.1262,1.1262,1.1262,1.1262,1.1262,1.1467,1.1532,1.1532,1.1758,1.1881,1.1881,1.2086,1.214,1.214,1.214,1.214,1.2151,1.2714,1.3261,1.3749,1.3962,1.4208,1.4298,1.4298,1.4298,1.4394,1.486,1.5045,1.5235,1.617,1.7196,1.8133,1.8603,1.9446,2.0292,2.0292,2.0292,2.0292,2.0292,2.0292,2.0292,2.0292,2.0292,2.0292,2.0292,2.0292,2.0292,2.0292,2.0292,2.0292,2.0292,2.0382,2.0564,2.0654,2.0925,2.1203,2.1392,2.1571,2.1909,2.2334,2.3627,2.4659,2.5158,2.6362,2.7231,2.7231,2.7231,2.7231,2.7231,2.7231,2.7231,2.7231,2.7638,2.7893,2.7893,2.8283,2.851,2.851,2.851,2.851,2.851,2.851,2.851,2.851,2.8895,2.9131,0.5626,0.6137,0.667,0.7575,0.7973,0.8327,0.8705,0.8834,0.9043,0.9373,0.9674,0.9873,0.9911,0.9922,0.9986,1.0196,1.0266,1.0358,1.0552,1.0778,1.0923,1.1006,1.1139,1.1289,1.1289,1.1327,1.1262,1.1262,1.1262,1.1262,1.1262,1.1262,1.1262,1.1262,1.1542,1.1639,1.1639,1.1828,1.193,1.193,1.193,1.193,1.1935,1.2368,1.2873,1.3485,1.3749,1.4052,1.4232,1.428,1.4298,1.4298,1.4484,1.458,1.4669,1.5893,1.6821,1.7669,1.8696,1.9629,2.0292,2.0292,2.0292,2.0292,2.0292,2.0292,2.0292,2.0292,2.0292,2.0292,2.0292,2.0292,2.0292,2.0292,2.0292,2.0292,2.0292,2.0473,2.0744,2.0744,2.1114,2.1482,2.1482,2.1562,2.1741,2.1741,2.3202,2.4317,2.4498,2.5946,2.7056,2.7149,2.7231,2.7231,2.7231,2.7231,2.7231,2.7231,2.7638,2.7893,2.7893,2.8283,2.851,2.851,2.851,2.851,2.851,2.851,2.851,2.851,2.8895,2.9131,0.5023,0.5879,0.6869,0.7612,0.7973,0.8283,0.8501,0.8716,0.895,0.9015,0.9314,0.9685,0.9884,0.9922,0.9933,0.9965,1.0153,1.0304,1.0336,1.0536,1.0681,1.0924,1.0968,1.1115,1.1282,1.131,1.1262,1.1262,1.1262,1.1262,1.1262,1.1262,1.1262,1.1262,1.1294,1.131,1.131,1.1429,1.1445,1.1445,1.1445,1.1445,1.1451,1.1688,1.2265,1.294,1.3566,1.396,1.3972,1.4201,1.4298,1.4394,1.5235,1.5609,1.5798,1.7669,1.8511,1.8696,1.9729,2.0192,2.0292,2.0292,2.0292,2.0292,2.0292,2.0292,2.0292,2.0292,2.0292,2.0292,2.0292,2.0292,2.0292,2.0292,2.0292,2.0292,2.0292,2.0473,2.0744,2.0907,2.1365,2.1651,2.1651,2.1651,2.1741,2.1741,2.2589,2.3617,2.4413,2.5326,2.6268,2.7138,2.7231,2.7231,2.7231,2.7231,2.7231,2.7231,2.7638,2.7893,2.7893,2.8283,2.851,2.851,2.851,2.851,2.851,2.851,2.851,2.851,2.8895,2.9131,0.5343,0.6132,0.6822,0.7399,0.7682,0.7855,0.8226,0.8457,0.8674,0.8936,0.916,0.9428,0.9658,0.9728,0.9771,0.99,1.0013,1.0083,1.0083,1.0293,1.0523,1.0682,1.0886,1.0953,1.1029,1.1171,1.1313,1.1313,1.1445,1.1527,1.1527,1.1613,1.1607,1.1354,1.144,1.144,1.1262,1.1262,1.1262,1.1262,1.1262,1.1262,1.1267,1.1549,1.1987,1.2586,1.3111,1.3407,1.3701,1.3809,1.3948,1.4075,1.454,1.4722,1.4929,1.6577,1.7365,1.788,1.9099,1.982,2.0292,2.0292,2.0292,2.0292,2.0292,2.0292,2.0292,2.0292,2.0292,2.0292,2.0292,2.0292,2.0292,2.0292,2.0382,2.0564,2.0564,2.0736,2.1006,2.1275,2.1553,2.1741,2.1741,2.1741,2.1741,2.1741,2.2501,2.3444,2.4413,2.5242,2.6174,2.7056,2.7231,2.7231,2.7231,2.7231,2.7231,2.7231,2.7638,2.7893,2.7893,2.8283,2.851,2.851,2.851,2.851,2.851,2.851,2.851,2.851,2.8895,2.9131,0.5551,0.61,0.6481,0.7138,0.7359,0.7483,0.8012,0.8298,0.8509,0.887,0.8986,0.9164,0.9466,0.9641,0.9704,0.9878,0.9954,0.9992,0.9992,1.0155,1.0351,1.0584,1.0796,1.0941,1.0947,1.1165,1.1305,1.1305,1.1483,1.1595,1.1595,1.168,1.1702,1.1428,1.1514,1.1547,1.1435,1.1348,1.1262,1.1262,1.1262,1.1262,1.1354,1.1527,1.1886,1.2334,1.267,1.305,1.3423,1.3489,1.3628,1.3809,1.3809,1.3809,1.392,1.5132,1.6132,1.7039,1.8292,1.9372,2.0292,2.0292,2.0292,2.0292,2.0292,2.0292,2.0292,2.0292,2.0292,2.0292,2.0292,2.0292,2.0292,2.0292,2.0473,2.0744,2.0835,2.1015,2.1186,2.1642,2.1741,2.1741,2.1741,2.1741,2.1741,2.1741,2.2334,2.3193,2.4327,2.5084,2.5924,2.7056,2.7231,2.7231,2.7231,2.7231,2.7231,2.7231,2.7557,2.78,2.7893,2.8271,2.8431,2.851,2.851,2.851,2.851,2.851,2.851,2.851,2.8895,2.9131,0.5147,0.5357,0.5658,0.6816,0.722,0.7406,0.7768,0.8232,0.8533,0.8443,0.8753,0.906,0.9338,0.9698,0.9868,0.9801,0.9994,1.0143,1.0143,1.0229,1.0385,1.0761,1.0847,1.1008,1.1163,1.1232,1.1214,1.1214,1.1226,1.1237,1.1237,1.1231,1.1339,1.1572,1.1416,1.1455,1.1699,1.144,1.1262,1.1262,1.1262,1.1262,1.1262,1.1354,1.1618,1.2072,1.2592,1.288,1.3163,1.3417,1.3519,1.3538,1.3538,1.3538,1.3622,1.4707,1.5861,1.701,1.8026,1.9257,2.0292,2.0292,2.0292,2.0292,2.0292,2.0292,2.0292,2.0292,2.0292,2.0292,2.0292,2.0292,2.0292,2.0292,2.0473,2.0835,2.1302,2.1392,2.1482,2.1651,2.1741,2.1741,2.1741,2.1741,2.1741,2.1741,2.1731,2.2422,2.4231,2.4584,2.5263,2.6974,2.7231,2.7231,2.7231,2.7231,2.7231,2.7231,2.7371,2.7615,2.7893,2.8111,2.8339,2.851,2.851,2.851,2.851,2.851,2.851,2.851,2.8895,2.9131,0.4974,0.5314,0.5685,0.6256,0.6733,0.7161,0.7439,0.788,0.8381,0.8644,0.8844,0.9046,0.9379,0.9507,0.9644,0.9738,0.9974,1.0132,1.0132,1.0267,1.0513,1.0738,1.0366,1.0111,1.0188,0.986,0.9836,1.0401,1.0621,1.095,1.1439,1.1599,1.156,1.1322,1.1409,1.1453,1.1449,1.1359,1.1354,1.1527,1.1354,1.1354,1.1527,1.1527,1.1699,1.2049,1.2388,1.2683,1.2862,1.2958,1.3103,1.3266,1.3266,1.3266,1.3284,1.3808,1.4615,1.5539,1.6002,1.6952,1.799,1.8848,1.9101,1.9241,2.0034,2.0292,2.0292,2.0292,2.0292,2.0292,2.0292,2.0292,2.0382,2.0645,2.0925,2.1203,2.1562,2.1482,2.1482,2.1651,2.1741,2.1741,2.1741,2.1741,2.1741,2.1741,2.1741,2.2167,2.3454,2.4145,2.4914,2.6185,2.688,2.7231,2.7231,2.7231,2.7231,2.7231,2.7371,2.7615,2.7893,2.8111,2.8259,2.851,2.851,2.851,2.851,2.851,2.851,2.851,2.8895,2.9131,0.4774,0.5082,0.5432,0.59,0.6338,0.675,0.72,0.7658,0.8117,0.8545,0.8764,0.8961,0.9298,0.935,0.9383,0.9593,0.9862,1.0022,0.9735,0.9941,1.0085,1.001,0.9627,0.9296,0.9296,0.8899,0.8907,0.9529,0.9744,1.0148,1.1027,1.1184,1.1219,1.1226,1.1478,1.156,1.1394,1.1398,1.1525,1.1785,1.1613,1.1613,1.1785,1.1785,1.1957,1.2118,1.2283,1.2534,1.2705,1.2705,1.2813,1.2982,1.2982,1.2982,1.3006,1.3175,1.3799,1.4616,1.4804,1.5553,1.6647,1.784,1.8185,1.8411,1.9563,1.9915,1.9915,1.9915,1.9915,1.9915,1.9915,2.0099,2.0407,2.0872,2.1195,2.1482,2.1651,2.1562,2.1571,2.1651,2.1741,2.1741,2.1741,2.1741,2.1741,2.1741,2.1741,2.2078,2.3008,2.3887,2.4829,2.5735,2.6622,2.7231,2.7231,2.7231,2.7231,2.7231,2.729,2.7534,2.7788,2.795,2.8191,2.8431,2.851,2.851,2.851,2.851,2.851,2.851,2.8816,2.9052,0.0,0.0,0.0,0.5717,0.5919,0.6147,0.7062,0.7551,0.7842,0.8064,0.8425,0.8735,0.9065,0.9114,0.917,0.9495,0.9804,0.9765,0.9066,0.9113,0.903,0.8524,0.8557,0.8685,0.8694,0.8618,0.8618,0.8627,0.8703,0.9008,0.9841,0.9916,1.0334,1.12,1.1459,1.1624,1.1621,1.1632,1.1769,1.2032,1.2032,1.2032,1.2037,1.2037,1.2118,1.2363,1.2448,1.2534,1.2705,1.2705,1.2705,1.2705,1.2705,1.2705,1.2705,1.2705,1.3471,1.4576,1.4576,1.5364,1.6492,1.7454,1.7715,1.7897,1.8896,1.917,1.917,1.917,1.917,1.917,1.9179,1.9627,2.0254,2.0873,2.1168,2.1463,2.1633,2.1722,2.1741,2.1741,2.1741,2.1741,2.1741,2.1741,2.1741,2.1741,2.1741,2.1989,2.2921,2.3887,2.4829,2.5652,2.661,2.7231,2.7231,2.7231,2.7231,2.7231,2.7231,2.7301,2.7522,2.7788,2.7962,2.8179,2.8431,2.851,2.851,2.851,2.851,2.851,2.8724,2.9028,0.3537,0.0,0.0,0.0,0.0,0.0,0.6457,0.6798,0.7244,0.7747,0.7948,0.8193,0.8705,0.8783,0.8776,0.8543,0.8876,0.9146,0.8942,0.8653,0.8436,0.8293,0.7771,0.75,0.7641,0.7061,0.7036,0.7778,0.7863,0.8475,0.9846,1.0443,1.0848,1.1151,1.1266,1.128,1.1271,1.1289,1.1506,1.2009,1.1842,1.1934,1.2283,1.2283,1.2369,1.2448,1.2534,1.2619,1.2705,1.2705,1.2705,1.2705,1.2705,1.2705,1.2705,1.2705,1.2918,1.3243,1.3243,1.3458,1.3985,1.5144,1.59,1.6627,1.7841,1.8629,1.917,1.917,1.917,1.9256,1.9418,1.9677,1.9962,2.0327,2.082,2.1195,2.1282,2.152,2.1741,2.1741,2.1741,2.1741,2.1741,2.1741,2.1741,2.1741,2.1741,2.182,2.2078,2.3454,2.4584,2.4829,2.6279,2.7231,2.7231,2.7231,2.7231,2.7231,2.7231,2.7301,2.7522,2.7788,2.7962,2.8179,2.8431,2.851,2.851,2.851,2.851,2.851,2.8724,2.9028,0.3341,0.3767,0.4258,0.4588,0.0,0.0,0.6203,0.6296,0.6503,0.7465,0.7623,0.7729,0.8132,0.8219,0.8066,0.7704,0.7651,0.7752,0.7863,0.7664,0.7451,0.7176,0.675,0.6546,0.6576,0.6225,0.6293,0.7279,0.7067,0.7626,0.9306,1.0513,1.1111,1.1111,1.1117,1.1183,1.1295,1.1365,1.157,1.1986,1.1823,1.1899,1.2218,1.2326,1.2373,1.2379,1.2571,1.2705,1.2705,1.2705,1.2705,1.2705,1.2705,1.2705,1.2705,1.2705,1.2705,1.2705,1.2705,1.2705,1.29,1.3999,1.4723,1.5432,1.6892,1.7733,1.8263,1.8616,1.8699,1.8817,1.9141,1.9437,1.9649,2.0072,2.0534,2.0906,2.1071,2.13,2.153,2.1704,2.1741,2.1741,2.1741,2.1741,2.1741,2.1741,2.1741,2.1741,2.1741,2.3028,2.4059,2.4498,2.5768,2.6787,2.7149,2.7231,2.7231,2.7231,2.7231,2.7219,2.7371,2.7719,2.7962,2.8111,2.8351,2.851,2.851,2.851,2.851,2.851,2.8724,2.8961,0.3486,0.3589,0.0,0.4624,0.4427,0.0,0.5976,0.582,0.5711,0.6862,0.7108,0.7149,0.723,0.7277,0.7198,0.6832,0.63,0.6026,0.6319,0.6376,0.6215,0.5631,0.5677,0.5759,0.5776,0.5779,0.6126,0.7016,0.6441,0.6813,0.8429,1.0093,1.0932,1.0962,1.1037,1.1232,1.1479,1.1486,1.1618,1.1878,1.1878,1.189,1.1926,1.2161,1.227,1.2282,1.2548,1.2662,1.2662,1.2693,1.2705,1.2705,1.2705,1.2705,1.2705,1.2705,1.2705,1.2705,1.2705,1.2705,1.2875,1.3626,1.3957,1.4294,1.5951,1.6527,1.6862,1.7781,1.804,1.8117,1.8707,1.9041,1.9377,1.9976,2.0261,2.0549,2.0897,2.1044,2.1218,2.1594,2.1704,2.1741,2.1741,2.1741,2.1741,2.1741,2.1741,2.1741,2.1741,2.2501,2.3444,2.4231,2.5158,2.6008,2.6974,2.7056,2.7056,2.7231,2.7231,2.7231,2.7231,2.7638,2.7893,2.7893,2.8283,2.851,2.851,2.851,2.851,2.851,2.8645,2.8803,0.3002,0.3433,0.3842,0.3876,0.418,0.0,0.469,0.4692,0.4743,0.5227,0.5288,0.541,0.5763,0.5897,0.5868,0.5571,0.5498,0.56,0.6144,0.5773,0.5394,0.5459,0.543,0.5494,0.562,0.563,0.5761,0.605,0.6558,0.6993,0.7472,0.9107,1.0013,1.0137,1.0738,1.1135,1.119,1.119,1.1329,1.1606,1.1606,1.1715,1.1926,1.1974,1.1999,1.2011,1.2276,1.2391,1.2403,1.2614,1.2705,1.2705,1.2705,1.2705,1.2705,1.2705,1.2705,1.2705,1.2705,1.2705,1.2705,1.2869,1.3457,1.4041,1.4461,1.5538,1.6862,1.7781,1.804,1.8138,1.8628,1.8807,1.8905,1.937,1.9715,2.0063,2.0145,2.0659,2.1135,2.1209,2.1502,2.1741,2.1741,2.1741,2.1741,2.1741,2.1741,2.1741,2.1741,2.2501,2.3183,2.3357,2.4221,2.5084,2.5997,2.608,2.6434,2.7149,2.7231,2.7231,2.7231,2.7638,2.7893,2.7893,2.8283,2.851,2.851,2.851,2.851,2.851,2.851,2.8736,0.2936,0.3229,0.3584,0.3731,0.3804,0.0,0.0,0.4256,0.4207,0.4853,0.4884,0.4837,0.5027,0.5106,0.4988,0.4599,0.4636,0.488,0.5299,0.516,0.5053,0.5131,0.5142,0.5199,0.5345,0.5359,0.5454,0.5681,0.6883,0.7468,0.7134,0.8657,0.9569,0.9807,1.0551,1.0979,1.1111,1.1111,1.1184,1.1323,1.1323,1.1389,1.1522,1.1661,1.1727,1.1745,1.2005,1.2119,1.2125,1.2264,1.2391,1.2524,1.265,1.2705,1.2705,1.2705,1.2705,1.2705,1.2705,1.2705,1.2705,1.2705,1.3039,1.3457,1.3873,1.4963,1.6206,1.7115,1.7456,1.77,1.8451,1.8772,1.8922,1.9231,1.9467,1.9677,1.9888,2.0246,2.064,2.1034,2.1282,2.1493,2.1704,2.1741,2.1741,2.1741,2.1741,2.1741,2.1741,2.2078,2.2589,2.3008,2.3531,2.4135,2.5073,2.5568,2.5997,2.6445,2.6962,2.7231,2.7231,2.7545,2.7788,2.803,2.8351,2.851,2.851,2.851,2.851,2.851,2.851,2.859,0.3115,0.319,0.338,0.3683,0.3488,0.3441,0.0,0.0,0.0,0.4649,0.4632,0.447,0.4397,0.4396,0.424,0.3779,0.3949,0.4128,0.432,0.4516,0.476,0.4908,0.4918,0.4965,0.5081,0.5064,0.5162,0.544,0.6788,0.738,0.6896,0.813,0.9059,0.9623,1.0208,1.07,1.1105,1.1111,1.1111,1.1111,1.1111,1.1111,1.1117,1.1347,1.1449,1.1467,1.1733,1.1848,1.1854,1.1902,1.2047,1.2264,1.2524,1.2656,1.2705,1.2705,1.2705,1.2705,1.2705,1.2705,1.2705,1.2705,1.2705,1.2875,1.3711,1.4552,1.5387,1.637,1.6862,1.7286,1.8362,1.8851,1.9082,1.9222,1.9301,1.9393,1.9732,1.987,2.0145,2.0851,2.1053,2.1245,2.1667,2.1741,2.1741,2.1741,2.1741,2.1741,2.1741,2.1741,2.1989,2.2755,2.2843,2.3193,2.4145,2.4904,2.54,2.5819,2.6528,2.6974,2.7231,2.7452,2.7765,2.8179,2.8431,2.851,2.851,2.851,2.851,2.851,2.851,2.851,0.3434,0.3542,0.349,0.3324,0.3351,0.3324,0.3212,0.0,0.3304,0.3382,0.0,0.3404,0.3382,0.0,0.0,0.3441,0.3554,0.3708,0.3763,0.3859,0.4187,0.481,0.4918,0.4925,0.4942,0.4819,0.4813,0.4982,0.5192,0.5631,0.644,0.6891,0.7841,0.9462,0.9701,1.0262,1.1105,1.1111,1.1111,1.1111,1.1111,1.1111,1.1111,1.1141,1.116,1.1178,1.1455,1.1576,1.1594,1.183,1.1938,1.1992,1.2252,1.2499,1.2705,1.2705,1.2705,1.2705,1.2705,1.2705,1.2705,1.2705,1.2705,1.2875,1.3711,1.4041,1.4545,1.6198,1.6862,1.7286,1.8362,1.8851,1.9082,1.9222,1.9301,1.932,1.9366,1.9668,2.0063,2.0503,2.0869,2.1245,2.1667,2.1741,2.1741,2.1741,2.1741,2.1741,2.1741,2.1741,2.1731,2.182,2.182,2.2246,2.3183,2.3357,2.4125,2.5735,2.5913,2.6351,2.7149,2.7638,2.795,2.8179,2.8431,2.851,2.851,2.851,2.851,2.851,2.851,2.8578,0.3246,0.3302,0.3317,0.3313,0.331,0.3269,0.3225,0.3235,0.3259,0.34,0.0,0.0,0.0,0.0,0.0,0.0,0.3417,0.3484,0.3533,0.3673,0.3874,0.4209,0.4283,0.4353,0.4636,0.4677,0.4755,0.4908,0.4836,0.5218,0.6233,0.6776,0.7655,0.912,0.9563,1.0178,1.0882,1.0882,1.096,1.1111,1.1111,1.1111,1.1111,1.1111,1.1111,1.1117,1.1238,1.1286,1.1298,1.1407,1.1546,1.1709,1.1817,1.2113,1.2493,1.265,1.2705,1.2705,1.2705,1.2705,1.2705,1.2705,1.2705,1.279,1.3124,1.3294,1.3626,1.5462,1.6124,1.6617,1.8282,1.8851,1.9082,1.9222,1.9301,1.9301,1.9301,1.9439,1.9687,2.0099,2.0493,2.0897,2.13,2.1575,2.1741,2.1741,2.1741,2.1741,2.1741,2.1741,2.1741,2.1741,2.1741,2.182,2.2246,2.328,2.4221,2.4988,2.6019,2.6869,2.7371,2.7719,2.7962,2.8179,2.8431,2.851,2.851,2.851,2.851,2.851,2.851,2.859,0.3132,0.3188,0.3209,0.3337,0.3297,0.3193,0.3302,0.3233,0.3286,0.3479,0.3441,0.0,0.0,0.0,0.3256,0.3224,0.0,0.3348,0.328,0.3401,0.3584,0.3761,0.3817,0.3999,0.4321,0.4402,0.4524,0.4721,0.4633,0.4988,0.6039,0.6582,0.7492,0.8799,0.9354,0.9977,1.0713,1.0719,1.0852,1.1111,1.1111,1.1111,1.1111,1.1111,1.1111,1.1111,1.1111,1.1111,1.1111,1.1111,1.1232,1.1425,1.1504,1.1763,1.2137,1.2475,1.2644,1.2705,1.2705,1.2705,1.2705,1.2705,1.2705,1.2705,1.2705,1.2705,1.3039,1.4552,1.5213,1.5861,1.7772,1.8514,1.8825,1.9222,1.9301,1.9301,1.9301,1.9301,1.943,1.9842,2.0163,2.0484,2.0879,2.1383,2.1741,2.1741,2.1741,2.1741,2.1741,2.1741,2.1741,2.1741,2.1741,2.182,2.2078,2.3367,2.4317,2.4829,2.6373,2.7301,2.7522,2.7788,2.7962,2.8179,2.8431,2.851,2.851,2.851,2.851,2.851,2.851,2.851,0.3304,0.3413,0.3359,0.3233,0.3224,0.3176,0.3031,0.3126,0.3235,0.3366,0.3522,0.3574,0.3577,0.3479,0.3357,0.0,0.3218,0.0,0.0,0.2982,0.3237,0.3751,0.3916,0.4022,0.4033,0.3904,0.3944,0.4194,0.4214,0.4656,0.5649,0.6075,0.699,0.8635,0.8859,0.9485,1.0719,1.0719,1.0852,1.1111,1.1111,1.1111,1.1111,1.1111,1.1111,1.1111,1.1111,1.1111,1.1111,1.1111,1.1117,1.1154,1.1425,1.154,1.1618,1.2131,1.2487,1.2705,1.2705,1.2705,1.2705,1.2705,1.2705,1.2705,1.2705,1.2705,1.2869,1.3795,1.4371,1.5115,1.6927,1.7674,1.8247,1.9134,1.9301,1.9301,1.9301,1.9301,1.943,1.9842,1.9943,2.0072,2.0466,2.12,2.1741,2.1741,2.1741,2.1741,2.1741,2.1741,2.1741,2.1741,2.1741,2.2078,2.3008,2.3096,2.3867,2.5652,2.6704,2.7301,2.7522,2.7788,2.7962,2.8179,2.8431,2.851,2.851,2.851,2.851,2.851,2.851,2.851,0.3026,0.3084,0.3104,0.3169,0.3128,0.3094,0.3115,0.3077,0.3138,0.3366,0.3413,0.3471,0.3583,0.3485,0.3387,0.0,0.0,0.3032,0.0,0.2995,0.3072,0.325,0.3526,0.3733,0.3733,0.3778,0.3917,0.4174,0.4103,0.453,0.5629,0.5951,0.6789,0.8389,0.8554,0.9097,1.0131,1.0375,1.0592,1.0852,1.1033,1.1111,1.1111,1.1111,1.1111,1.1111,1.1111,1.1111,1.1111,1.1111,1.1111,1.1123,1.1214,1.1365,1.1594,1.2119,1.2367,1.2469,1.2644,1.2705,1.2705,1.2705,1.2705,1.2705,1.2705,1.2705,1.2869,1.3789,1.4622,1.5696,1.7025,1.8006,1.8745,1.9222,1.9301,1.9301,1.9301,1.9301,1.9347,1.9485,1.9742,1.9971,2.0108,2.0576,2.1016,2.1282,2.1319,2.142,2.1704,2.1741,2.1741,2.1741,2.1741,2.182,2.2157,2.328,2.4819,2.661,2.7056,2.7394,2.7708,2.7881,2.8042,2.8419,2.851,2.851,2.851,2.851,2.851,2.851,2.851,2.851,0.286,0.2941,0.2997,0.3222,0.3227,0.3159,0.3184,0.3141,0.3187,0.3272,0.3357,0.3482,0.3637,0.3512,0.34,0.0,0.0,0.2986,0.0,0.2959,0.2948,0.2948,0.3297,0.3536,0.3536,0.3671,0.3843,0.4093,0.4026,0.4396,0.5253,0.5673,0.6515,0.7828,0.8242,0.891,0.9868,1.0036,1.0321,1.0586,1.0846,1.0972,1.0972,1.1069,1.1111,1.1111,1.1111,1.1111,1.1111,1.1111,1.1111,1.1111,1.1111,1.122,1.1437,1.1872,1.2155,1.2355,1.2614,1.2705,1.2705,1.2705,1.2705,1.2705,1.2705,1.2705,1.2875,1.3464,1.43,1.5206,1.669,1.7602,1.8336,1.9143,1.9301,1.9301,1.9301,1.9301,1.9301,1.9301,1.9522,1.9705,1.9705,1.9916,2.0319,2.1007,2.1108,2.1264,2.1686,2.1741,2.1741,2.1741,2.1741,2.182,2.2157,2.3887,2.5421,2.6622,2.7056,2.7394,2.7881,2.7893,2.8122,2.851,2.851,2.851,2.851,2.851,2.851,2.851,2.851,2.851]},{"header":{"parameterUnit":"m.s-1","parameterCategory":1,"la1":30.6,"la2":29.2853,"lo1":-89.7004,"lo2":-87.6739,"dy":0.0162,"dx":0.0183,"nx":112,"ny":82,"refTime":"2024-07-25T12:00:00:Z","depth":0,"parameterNumber":3,"parameterNumberName":"V-component_of_WINDS"},"data":[0.0,0.0,0.0,0.0,0.0,0.0,0.0,0.0,0.0,0.0,0.0,0.0,0.0,0.0,0.0,0.0,0.0,0.0,0.0,0.0,0.0,0.0,0.0,0.0,0.0,0.0,0.0,0.0,0.0,0.0,0.0,0.0,0.0,0.0,0.0,0.0,0.0,0.0,0.0,0.0,0.0,0.0,0.0,0.0,0.0,0.0,0.0,0.0,0.0,0.0,0.0,0.0,0.0,0.0,0.0,0.0,0.0,0.0,0.0,0.0,0.0,0.0,0.0,0.0,0.0,0.0,0.0,0.0,0.0,0.0,0.0,0.0,0.0,0.0,0.0,0.0,0.0,0.0,0.0,0.0,0.0,0.0,0.0,0.0,0.0,0.0,0.0,0.0,0.0,0.0,-1.5585,-1.6449,-1.7297,-1.7747,-1.772,-1.7018,-1.5646,-1.3388,0.0,0.0,0.0,0.0,0.0,0.0,0.0,0.0,0.0,0.0,0.0,0.0,0.0,0.0,0.0,0.0,0.0,0.0,0.0,0.0,0.0,0.0,0.0,0.0,0.0,0.0,0.0,0.0,0.0,0.0,0.0,0.0,0.0,0.0,0.0,0.0,0.0,0.0,0.0,0.0,0.0,0.0,0.0,0.0,0.0,0.0,0.0,0.0,0.0,0.0,0.0,0.0,0.0,0.0,0.0,0.0,0.0,0.0,0.0,0.0,0.0,0.0,0.0,0.0,0.0,0.0,0.0,0.0,0.0,0.0,0.0,0.0,0.0,0.0,0.0,0.0,0.0,0.0,0.0,0.0,0.0,0.0,0.0,0.0,0.0,0.0,0.0,0.0,0.0,0.0,0.0,0.0,0.0,0.0,0.0,0.0,0.0,0.0,0.0,0.0,0.0,0.0,0.0,0.0,-1.5773,-1.7927,-1.7942,-1.7679,-1.7323,-1.7157,-1.6175,-1.406,0.0,0.0,0.0,0.0,0.0,0.0,0.0,0.0,0.0,0.0,0.0,0.0,0.0,0.0,0.0,0.0,0.0,0.0,0.0,0.0,0.0,0.0,0.0,0.0,0.0,0.0,0.0,0.0,0.0,0.0,0.0,0.0,0.0,0.0,0.0,0.0,0.0,0.0,0.0,0.0,0.0,0.0,0.0,0.0,0.0,0.0,0.0,0.0,0.0,0.0,0.0,0.0,0.0,0.0,0.0,0.0,0.0,0.0,0.0,0.0,0.0,0.0,0.0,0.0,0.0,0.0,0.0,0.0,0.0,0.0,0.0,0.0,0.0,0.0,0.0,0.0,0.0,0.0,0.0,0.0,0.0,0.0,0.0,0.0,0.0,0.0,0.0,0.0,0.0,0.0,0.0,0.0,0.0,0.0,0.0,0.0,0.0,0.0,0.0,0.0,0.0,0.0,0.0,-1.5011,-1.6236,-1.8275,-1.8068,-1.7639,-1.724,-1.6989,-1.5883,-1.3709,-1.2534,0.0,0.0,0.0,0.0,0.0,0.0,0.0,0.0,0.0,0.0,0.0,0.0,0.0,0.0,0.0,0.0,0.0,0.0,0.0,0.0,0.0,0.0,0.0,0.0,0.0,0.0,0.0,0.0,0.0,0.0,0.0,0.0,0.0,0.0,0.0,0.0,0.0,0.0,0.0,0.0,0.0,0.0,0.0,0.0,0.0,0.0,0.0,0.0,0.0,0.0,0.0,0.0,0.0,0.0,0.0,0.0,0.0,0.0,0.0,0.0,0.0,0.0,0.0,0.0,0.0,0.0,0.0,0.0,0.0,0.0,0.0,0.0,0.0,0.0,0.0,0.0,0.0,0.0,0.0,0.0,0.0,0.0,0.0,0.0,0.0,0.0,0.0,0.0,0.0,0.0,0.0,0.0,0.0,0.0,0.0,0.0,0.0,0.0,0.0,0.0,0.0,0.0,-1.6556,-1.7006,-1.8498,-1.8305,-1.7908,-1.7393,-1.6773,-1.5476,-1.3251,-1.1896,0.0,0.0,0.0,0.0,0.0,0.0,0.0,0.0,0.0,0.0,0.0,0.0,0.0,0.0,0.0,0.0,0.0,0.0,0.0,0.0,0.0,0.0,0.0,0.0,0.0,0.0,0.0,0.0,0.0,0.0,0.0,0.0,0.0,0.0,0.0,0.0,0.0,0.0,0.0,0.0,0.0,0.0,0.0,0.0,0.0,0.0,0.0,0.0,0.0,0.0,0.0,0.0,0.0,0.0,0.0,0.0,0.0,0.0,0.0,0.0,0.0,0.0,0.0,0.0,0.0,0.0,0.0,0.0,0.0,0.0,0.0,0.0,0.0,0.0,0.0,0.0,0.0,0.0,0.0,0.0,0.0,0.0,0.0,0.0,0.0,0.0,0.0,0.0,0.0,0.0,0.0,0.0,0.0,0.0,0.0,0.0,0.0,0.0,0.0,0.0,0.0,0.0,-1.6949,-1.8296,-1.8977,-1.9026,-1.8669,-1.7828,-1.6824,-1.5345,-1.3308,-1.1211,0.0,0.0,0.0,0.0,0.0,0.0,0.0,0.0,0.0,0.0,0.0,0.0,0.0,0.0,0.0,0.0,0.0,0.0,0.0,0.0,0.0,0.0,0.0,0.0,0.0,0.0,0.0,0.0,0.0,0.0,0.0,0.0,0.0,0.0,0.0,0.0,0.0,0.0,0.0,0.0,0.0,0.0,0.0,0.0,0.0,0.0,0.0,0.0,0.0,0.0,0.0,0.0,0.0,0.0,0.0,0.0,0.0,0.0,0.0,0.0,0.0,0.0,0.0,0.0,0.0,0.0,0.0,0.0,0.0,0.0,0.0,0.0,0.0,0.0,0.0,0.0,0.0,0.0,0.0,0.0,0.0,0.0,0.0,0.0,0.0,0.0,0.0,0.0,0.0,0.0,0.0,0.0,0.0,0.0,0.0,0.0,0.0,0.0,0.0,0.0,0.0,0.0,-1.6389,-1.7684,-1.8646,-1.8745,-1.8461,-1.7828,-1.7421,-1.6187,-1.3799,0.0,0.0,0.0,0.0,0.0,0.0,0.0,0.0,0.0,0.0,0.0,0.0,0.0,0.0,0.0,0.0,0.0,0.0,0.0,0.0,0.0,0.0,0.0,0.0,0.0,0.0,0.0,0.0,0.0,0.0,0.0,0.0,0.0,0.0,0.0,0.0,0.0,0.0,0.0,0.0,0.0,0.0,0.0,0.0,0.0,0.0,0.0,0.0,0.0,0.0,0.0,0.0,0.0,0.0,0.0,0.0,0.0,0.0,0.0,0.0,0.0,0.0,0.0,0.0,0.0,0.0,0.0,0.0,0.0,0.0,0.0,0.0,0.0,0.0,0.0,0.0,0.0,0.0,0.0,0.0,0.0,0.0,0.0,0.0,0.0,0.0,0.0,0.0,0.0,0.0,0.0,0.0,0.0,0.0,0.0,0.0,0.0,0.0,0.0,0.0,0.0,0.0,-1.4756,-1.6484,-1.7841,-1.8622,-1.8707,-1.85,-1.8068,-1.7685,-1.644,-1.4053,0.0,0.0,0.0,0.0,0.0,0.0,0.0,0.0,0.0,0.0,0.0,0.0,0.0,0.0,0.0,0.0,0.0,0.0,0.0,0.0,0.0,0.0,0.0,0.0,0.0,0.0,0.0,0.0,0.0,0.0,0.0,0.0,0.0,0.0,0.0,0.0,0.0,0.0,0.0,0.0,0.0,0.0,0.0,0.0,0.0,0.0,0.0,0.0,0.0,0.0,0.0,0.0,0.0,0.0,0.0,0.0,0.0,0.0,0.0,0.0,0.0,0.0,0.0,0.0,0.0,0.0,0.0,0.0,0.0,0.0,0.0,0.0,0.0,0.0,0.0,0.0,0.0,0.0,0.0,0.0,0.0,0.0,0.0,0.0,0.0,0.0,0.0,0.0,0.0,0.0,0.0,0.0,0.0,0.0,0.0,0.0,0.0,0.0,0.0,0.0,0.0,0.0,-1.5139,-1.7534,-1.9101,-1.9101,-1.9101,-1.8936,-1.8553,-1.7461,-1.5978,0.0,0.0,0.0,0.0,0.0,0.0,0.0,0.0,0.0,0.0,0.0,0.0,0.0,0.0,0.0,0.0,0.0,0.0,0.0,0.0,0.0,0.0,0.0,0.0,0.0,0.0,0.0,0.0,0.0,0.0,0.0,0.0,0.0,0.0,0.0,0.0,0.0,0.0,0.0,0.0,0.0,0.0,0.0,0.0,0.0,0.0,0.0,0.0,0.0,0.0,0.0,0.0,0.0,0.0,0.0,0.0,0.0,0.0,0.0,0.0,0.0,0.0,0.0,0.0,0.0,0.0,0.0,0.0,0.0,0.0,0.0,0.0,0.0,0.0,0.0,0.0,0.0,0.0,0.0,0.0,0.0,0.0,0.0,0.0,0.0,0.0,0.0,0.0,0.0,0.0,0.0,0.0,0.0,0.0,0.0,0.0,0.0,0.0,0.0,0.0,0.0,0.0,0.0,-1.4886,-1.7401,-1.9101,-1.9101,-1.9101,-1.9064,-1.8936,-1.8605,-1.7242,-1.4511,0.0,0.0,0.0,0.0,0.0,0.0,0.0,0.0,0.0,0.0,0.0,0.0,0.0,0.0,0.0,0.0,0.0,0.0,0.0,0.0,0.0,0.0,0.0,0.0,0.0,0.0,0.0,0.0,0.0,0.0,0.0,0.0,0.0,0.0,0.0,0.0,0.0,0.0,0.0,0.0,0.0,0.0,0.0,0.0,0.0,0.0,0.0,0.0,0.0,0.0,0.0,0.0,0.0,0.0,0.0,0.0,0.0,0.0,0.0,0.0,0.0,0.0,0.0,0.0,0.0,0.0,0.0,0.0,0.0,0.0,0.0,0.0,0.0,0.0,0.0,0.0,0.0,0.0,0.0,0.0,0.0,0.0,0.0,0.0,0.0,0.0,0.0,0.0,0.0,0.0,0.0,0.0,0.0,0.0,0.0,0.0,0.0,0.0,0.0,0.0,0.0,0.0,-1.493,-1.7401,-1.9101,-1.9101,-1.9101,-1.9101,-1.9101,-1.9101,-1.7921,-1.5221,0.0,0.0,0.0,0.0,0.0,0.0,0.0,0.0,0.0,0.0,0.0,0.0,0.0,0.0,0.0,0.0,0.0,0.0,0.0,0.0,0.0,0.0,0.0,0.0,0.0,0.0,0.0,0.0,0.0,0.0,0.0,0.0,0.0,0.0,0.0,0.0,0.0,0.0,0.0,0.0,0.0,0.0,0.0,0.0,0.0,0.0,0.0,0.0,0.0,0.0,0.0,0.0,0.0,0.0,0.0,0.0,0.0,0.0,0.0,0.0,0.0,0.0,0.0,0.0,0.0,0.0,0.0,0.0,0.0,0.0,0.0,0.0,0.0,0.0,0.0,0.0,0.0,0.0,0.0,0.0,0.0,0.0,0.0,0.0,0.0,0.0,0.0,0.0,0.0,0.0,0.0,0.0,0.0,0.0,0.0,0.0,0.0,0.0,0.0,0.0,0.0,0.0,-1.5153,-1.7534,-1.9101,-1.9101,-1.9101,-1.9101,-1.9101,-1.9101,-1.8195,-1.6118,0.0,0.0,0.0,0.0,0.0,0.0,0.0,0.0,0.0,0.0,0.0,0.0,0.0,0.0,0.0,0.0,0.0,0.0,0.0,0.0,0.0,0.0,0.0,0.0,0.0,0.0,0.0,0.0,0.0,0.0,0.0,0.0,0.0,0.0,0.0,0.0,0.0,0.0,0.0,0.0,0.0,0.0,0.0,0.0,0.0,0.0,0.0,0.0,0.0,0.0,0.0,0.0,0.0,0.0,0.0,0.0,0.0,0.0,0.0,0.0,-1.4779,-1.3953,0.0,0.0,0.0,0.0,0.0,0.0,0.0,0.0,0.0,0.0,0.0,0.0,0.0,0.0,0.0,0.0,0.0,0.0,0.0,0.0,0.0,0.0,0.0,0.0,0.0,0.0,0.0,0.0,0.0,0.0,0.0,0.0,0.0,0.0,0.0,0.0,0.0,0.0,0.0,0.0,-1.5211,-1.7534,-1.9101,-1.9101,-1.9101,-1.9101,-1.9101,-1.9101,-1.8382,-1.6695,-1.5321,0.0,0.0,0.0,0.0,0.0,0.0,0.0,0.0,0.0,0.0,0.0,0.0,0.0,0.0,0.0,0.0,0.0,0.0,0.0,0.0,0.0,0.0,0.0,0.0,0.0,0.0,0.0,0.0,0.0,0.0,0.0,0.0,0.0,0.0,0.0,0.0,0.0,0.0,0.0,0.0,0.0,0.0,0.0,0.0,0.0,0.0,0.0,0.0,0.0,0.0,0.0,0.0,0.0,0.0,0.0,0.0,0.0,0.0,0.0,-1.7488,-1.6443,0.0,0.0,0.0,0.0,0.0,0.0,0.0,0.0,0.0,0.0,0.0,0.0,0.0,0.0,0.0,0.0,0.0,0.0,0.0,0.0,0.0,0.0,0.0,0.0,0.0,0.0,0.0,0.0,0.0,0.0,0.0,0.0,0.0,0.0,0.0,0.0,0.0,0.0,0.0,0.0,-1.5618,-1.7708,-1.9101,-1.9101,-1.9101,-1.9101,-1.9101,-1.9101,-1.8621,-1.7526,-1.6231,0.0,0.0,0.0,0.0,0.0,0.0,0.0,0.0,0.0,0.0,0.0,0.0,0.0,0.0,0.0,0.0,0.0,0.0,0.0,0.0,0.0,0.0,0.0,0.0,0.0,0.0,0.0,0.0,0.0,0.0,0.0,0.0,0.0,0.0,0.0,0.0,0.0,0.0,0.0,0.0,0.0,0.0,0.0,0.0,0.0,0.0,0.0,0.0,0.0,0.0,0.0,0.0,0.0,-2.0504,-2.0871,-2.1886,-2.1357,-2.1784,-2.2818,-2.0222,-1.9234,-1.9479,-1.8692,0.0,0.0,0.0,0.0,0.0,0.0,0.0,0.0,0.0,0.0,0.0,0.0,0.0,0.0,0.0,0.0,0.0,0.0,0.0,0.0,0.0,0.0,-1.7641,-1.739,-1.7904,-1.7906,-1.6045,0.0,0.0,0.0,0.0,0.0,0.0,0.0,0.0,0.0,0.0,0.0,-1.6227,-1.7969,-1.9101,-1.9101,-1.9101,-1.9101,-1.9101,-1.9101,-1.8883,-1.839,-1.7107,-1.5845,0.0,0.0,0.0,0.0,0.0,0.0,0.0,0.0,0.0,0.0,0.0,0.0,0.0,0.0,0.0,0.0,0.0,0.0,0.0,0.0,0.0,0.0,0.0,0.0,0.0,0.0,0.0,0.0,0.0,0.0,0.0,0.0,-1.4418,-1.5174,0.0,0.0,0.0,0.0,0.0,0.0,0.0,0.0,0.0,0.0,0.0,0.0,0.0,-2.041,-2.1054,-2.195,-2.2485,-2.2684,-2.3479,-2.3739,-2.3588,-2.3538,-2.3719,-2.3983,-2.3562,0.0,-2.1956,-2.123,0.0,0.0,0.0,0.0,0.0,0.0,0.0,0.0,0.0,0.0,0.0,0.0,0.0,0.0,0.0,0.0,0.0,0.0,0.0,0.0,0.0,0.0,-2.0629,-2.0575,-2.0607,-2.0512,-2.0211,-1.7856,-1.5517,-1.4677,-1.4729,-1.4631,0.0,0.0,0.0,0.0,0.0,0.0,-1.6982,-1.8259,-1.9101,-1.9101,-1.9101,-1.9101,-1.9101,-1.9101,-1.9072,-1.8985,-1.8296,-1.7467,-1.6468,-1.525,0.0,0.0,0.0,0.0,0.0,0.0,0.0,0.0,0.0,0.0,0.0,0.0,0.0,0.0,0.0,0.0,0.0,0.0,0.0,0.0,0.0,0.0,0.0,0.0,0.0,0.0,0.0,0.0,0.0,-1.3744,-1.5693,-1.6433,-1.7569,-1.8121,0.0,0.0,0.0,0.0,0.0,0.0,0.0,0.0,0.0,-2.2249,-2.3374,-2.4344,-2.5046,-2.548,-2.5916,-2.6387,-2.6826,-2.6708,-2.61,-2.6605,-2.6547,-2.6089,-2.6517,-2.6389,-2.5678,-2.3635,-2.1866,-2.0431,0.0,0.0,0.0,0.0,-1.9638,-1.9593,-2.0284,-2.0382,-2.0162,-1.9911,0.0,0.0,0.0,0.0,0.0,0.0,0.0,-2.0212,-2.0152,-2.0948,-2.1819,-2.2032,-2.1732,-2.1447,-2.1677,-2.0294,-1.855,-1.7035,-1.6554,-1.5937,-1.4544,-1.4616,0.0,0.0,0.0,-1.7261,-1.8619,-1.9295,-1.9861,-2.0391,-1.9972,-1.9667,-1.9667,-1.9319,-1.9101,-1.9101,-1.8854,-1.8346,-1.7605,-1.657,-1.5074,0.0,0.0,0.0,0.0,0.0,0.0,0.0,0.0,0.0,0.0,0.0,0.0,0.0,0.0,0.0,0.0,0.0,0.0,0.0,0.0,0.0,0.0,0.0,0.0,0.0,0.0,0.0,0.0,-1.5331,-1.7122,-1.8052,-1.9361,-1.9947,0.0,0.0,0.0,0.0,0.0,0.0,-2.1458,-2.341,-2.478,-2.5321,-2.6607,-2.7554,-2.8112,-2.8112,-2.8416,-2.9011,-2.9178,-2.8975,-2.8397,-2.9158,-2.9117,-2.841,-2.8758,-2.8848,-2.8489,-2.5881,-2.4131,-2.3186,-2.3114,-2.2643,-2.2141,-2.2822,-2.2999,-2.3029,-2.3907,-2.4,-2.3645,-2.3145,-2.2638,-2.2051,-2.1183,0.0,0.0,0.0,0.0,-2.2728,-2.2389,-2.2707,-2.3156,-2.3198,-2.2763,-2.2445,-2.2661,-2.2316,-2.1297,-1.9307,-1.8521,-1.7699,-1.6179,-1.631,0.0,-1.7044,-1.7736,-1.8743,-2.0309,-2.0542,-2.0813,-2.1416,-2.0877,-2.04,-2.0335,-1.9725,-1.9362,-1.9362,-1.9203,-1.8898,-1.8448,-1.7777,-1.6584,-1.4945,0.0,0.0,0.0,0.0,0.0,0.0,0.0,0.0,0.0,0.0,0.0,0.0,0.0,0.0,0.0,0.0,0.0,0.0,0.0,0.0,0.0,0.0,0.0,0.0,0.0,0.0,0.0,0.0,0.0,-2.1194,-2.2074,0.0,0.0,0.0,0.0,-2.317,-2.3841,-2.4543,-2.5287,-2.6776,-2.7587,-2.762,-2.845,-2.889,-2.8924,-2.8924,-2.8941,-2.8991,-2.9702,-3.0023,-3.0023,-3.0617,-3.0881,-3.0774,-2.9922,-2.9536,-2.9403,-2.7793,-2.6874,-2.6444,-2.6105,-2.5538,-2.4968,-2.5717,-2.5753,-2.5484,-2.5911,-2.6068,-2.6151,-2.68,-2.6336,-2.564,-2.6168,-2.5121,0.0,0.0,-2.529,-2.5638,-2.4974,-2.5226,-2.5409,-2.4539,-2.4236,-2.4127,-2.3964,-2.3539,-2.2741,-2.1137,-2.0828,-2.0702,-2.0332,0.0,-2.0445,-2.0777,-2.0874,-2.1127,-2.1828,-2.1911,-2.1786,-2.154,-2.1446,-2.1296,-2.0986,-2.0407,-2.0045,-2.0045,-1.9449,-1.9087,-1.9058,-1.9029,-1.8354,-1.705,-1.559,0.0,0.0,0.0,0.0,0.0,0.0,0.0,0.0,0.0,0.0,0.0,0.0,0.0,0.0,0.0,0.0,0.0,0.0,0.0,0.0,0.0,0.0,0.0,0.0,0.0,0.0,0.0,0.0,-2.2295,-2.3357,0.0,-2.4993,-2.4739,-2.4957,-2.5954,-2.6461,-2.6942,-2.7394,-2.8887,-2.9817,-2.9987,-3.0734,-3.0992,-3.0756,-3.072,-3.0626,-3.0412,-3.1157,-3.1258,-3.0852,-3.2298,-3.2491,-3.1722,-3.2293,-3.2355,-3.1999,-3.1089,-2.9571,-2.7789,-2.7656,-2.7481,-2.7257,-2.7519,-2.7519,-2.741,-2.7557,-2.7611,-2.7644,-2.7931,-2.7772,-2.7514,-2.774,-2.7328,-2.6891,-2.7136,-2.7359,-2.7467,-2.7104,-2.6647,-2.619,-2.5751,-2.5154,-2.4639,-2.4502,-2.4683,-2.4539,-2.336,-2.243,-2.1652,-2.1031,-2.1235,-2.1485,-2.1353,-2.155,-2.2056,-2.3094,-2.2862,-2.2848,-2.3371,-2.2671,-2.2088,-2.1963,-2.0805,-2.0103,-2.0103,-1.9464,-1.9101,-1.9101,-1.9101,-1.8709,-1.7867,-1.6901,-1.5205,0.0,0.0,0.0,0.0,0.0,0.0,0.0,0.0,0.0,0.0,0.0,0.0,0.0,0.0,0.0,0.0,0.0,0.0,0.0,0.0,0.0,0.0,0.0,0.0,0.0,-2.1179,-2.3102,-2.4137,-2.5316,-2.6402,-2.7251,-2.7274,-2.7681,-2.8635,-2.8949,-2.9264,-2.9673,-3.0715,-3.1376,-3.1579,-3.2053,-3.2179,-3.1896,-3.1896,-3.1804,-3.1579,-3.2316,-3.2436,-3.1991,-3.3425,-3.3618,-3.2849,-3.377,-3.3916,-3.3488,-3.3237,-3.1964,-3.018,-2.9638,-2.9738,-3.0157,-2.9788,-2.9665,-2.9632,-2.9224,-2.9102,-2.9102,-2.9102,-2.9102,-2.9102,-2.9102,-2.9102,-2.9102,-2.9102,-2.9102,-2.9013,-2.8646,-2.8027,-2.745,-2.7001,-2.6422,-2.595,-2.5759,-2.6165,-2.6347,-2.5617,-2.4309,-2.3103,-2.2355,-2.2578,-2.2809,-2.2702,-2.2863,-2.3313,-2.4169,-2.3943,-2.3875,-2.4451,-2.3712,-2.3107,-2.3038,-2.1503,-2.0552,-2.0552,-1.9657,-1.9101,-1.9101,-1.9101,-1.8912,-1.8521,-1.765,-1.6045,-1.3742,0.0,0.0,0.0,0.0,0.0,0.0,0.0,0.0,0.0,0.0,0.0,0.0,0.0,0.0,0.0,0.0,0.0,0.0,0.0,0.0,0.0,0.0,0.0,-2.2454,-2.4141,-2.578,-2.6863,-2.8018,-2.8903,-2.9242,-2.9917,-3.0601,-3.1303,-3.1276,-3.1544,-3.2282,-3.2317,-3.2317,-3.2351,-3.2351,-3.2317,-3.2317,-3.2317,-3.2317,-3.2317,-3.3037,-3.3406,-3.3423,-3.4049,-3.4265,-3.4125,-3.4192,-3.4056,-3.3744,-3.399,-3.4007,-3.3682,-3.2154,-3.2479,-3.3652,-3.2577,-3.2184,-3.2059,-3.095,-3.0593,-3.0593,-3.0593,-3.0593,-3.0593,-3.0593,-3.0576,-3.0543,-3.0543,-3.0543,-3.0361,-2.9632,-2.9433,-2.9211,-2.8352,-2.8132,-2.8076,-2.7859,-2.7996,-2.8052,-2.7859,-2.6493,-2.5215,-2.471,-2.4601,-2.4683,-2.5005,-2.5084,0.0,-2.5084,-2.5069,-2.4934,-2.457,-2.4513,-2.4374,-2.4024,-2.248,-2.1515,-2.1515,-2.0029,-1.9139,-1.9101,-1.9101,-1.9101,-1.9101,-1.7853,-1.6478,-1.507,0.0,0.0,0.0,0.0,0.0,0.0,0.0,0.0,0.0,0.0,0.0,0.0,0.0,0.0,0.0,0.0,0.0,0.0,0.0,0.0,0.0,-2.4686,-2.6034,-2.5321,-2.643,-2.7727,-2.8739,-2.9414,-3.0128,-3.0999,-3.1005,-3.137,-3.2325,-3.2201,-3.2223,-3.2616,-3.2749,-3.2912,-3.3086,-3.3086,-3.2975,-3.2666,-3.2666,-3.2535,-3.2317,-3.3037,-3.3406,-3.3423,-3.4429,-3.4693,-3.4434,-3.4907,-3.4818,-3.4338,-3.4002,-3.4125,-3.4373,-3.3515,-3.3419,-3.3721,-3.3136,-3.2772,-3.254,-3.2193,-3.21,-3.21,-3.21,-3.21,-3.21,-3.21,-3.1735,-3.1279,-3.1279,-3.0924,-3.0477,-3.0261,-2.9814,-2.9327,-2.9088,-2.8675,-2.8295,-2.8256,-2.8652,-2.8827,-2.8158,-2.7923,-2.7556,-2.6745,-2.6576,-2.6592,-2.6514,-2.6514,-2.6514,-2.6514,-2.6056,-2.5683,-2.5601,-2.4957,-2.4457,-2.4374,-2.2833,-2.1862,-2.1862,-2.0535,-1.9654,-1.9384,-1.9384,-1.931,-1.9101,-1.7853,-1.6877,0.0,0.0,0.0,0.0,0.0,0.0,0.0,0.0,0.0,0.0,0.0,0.0,0.0,0.0,0.0,0.0,0.0,0.0,0.0,0.0,0.0,0.0,-2.7098,-2.8393,-2.8852,-2.935,-2.995,-3.065,-3.1094,-3.1684,-3.2451,-3.2307,-3.2442,-3.3045,-3.3248,-3.3394,-3.3571,-3.3944,-3.4411,-3.4896,-3.4896,-3.4785,-3.4541,-3.4541,-3.4282,-3.3764,-3.4193,-3.4406,-3.4424,-3.4733,-3.4702,-3.4446,-3.4921,-3.484,-3.4359,-3.4479,-3.4658,-3.48,0.0,0.0,0.0,0.0,-3.3812,-3.3317,-3.3,-3.2813,-3.268,-3.268,-3.268,-3.268,-3.268,-3.2398,-3.2067,-3.2067,-3.1537,-3.0974,-3.0974,-3.0385,-2.988,-2.988,-2.9566,-2.9284,-2.9284,-2.9599,-2.9724,-2.9189,-2.9329,0.0,-2.866,-2.7927,-2.7332,-2.7142,-2.7169,-2.7211,-2.7099,-2.6735,-2.634,-2.604,-2.5482,-2.4998,-2.4717,-2.3451,0.0,0.0,0.0,-2.0563,-1.9983,-1.9568,0.0,0.0,0.0,0.0,0.0,-1.7537,0.0,0.0,-1.5558,-1.5393,0.0,0.0,0.0,0.0,0.0,0.0,0.0,0.0,0.0,0.0,0.0,0.0,0.0,0.0,0.0,0.0,-2.8819,-3.0124,-3.2428,-3.2433,-3.2318,-3.2565,-3.3021,-3.3412,-3.3626,-3.3637,-3.3608,-3.3608,-3.422,-3.4679,-3.486,-3.5548,0.0,0.0,0.0,-3.7123,-3.7123,-3.7123,-3.6779,-3.6073,-3.6073,-3.6073,-3.6055,-3.524,-3.478,-3.4618,-3.4708,-3.4528,-3.4255,-3.5103,-3.5287,-3.4834,-3.3283,-3.3898,-3.5574,-3.534,-3.4819,-3.4139,-3.3592,0.0,0.0,-3.3029,-3.3045,-3.3045,-3.3045,-3.2951,-3.2901,-3.2901,-3.2343,-3.1692,-3.1692,-3.1255,-3.0758,-3.0758,-3.0692,-3.06,-3.06,-3.0576,-3.0526,-3.0526,-3.0468,-3.0401,-3.0231,-2.8816,-2.7656,-2.7449,-2.7546,-2.7572,-2.7406,-2.7273,-2.6972,-2.6309,-2.6167,0.0,-2.5195,-2.4233,-2.3639,-2.3561,-2.2547,-2.1652,-2.0797,-1.9839,-1.9595,-2.019,-2.0164,-2.0359,-2.074,-2.0656,-2.0429,-2.0053,-1.7303,-1.6756,0.0,0.0,0.0,0.0,0.0,0.0,0.0,0.0,0.0,0.0,0.0,0.0,0.0,0.0,0.0,-3.021,-3.1283,-3.2409,-3.4126,-3.4236,-3.4207,-3.4295,-3.4915,-3.509,-3.4527,-3.4431,-3.4401,-3.4401,-3.4516,-3.5168,-3.6453,-3.6671,-3.7123,-3.792,-3.7957,-3.7957,-3.7957,-3.7957,-3.7884,-3.7739,-3.7739,0.0,-3.7703,-3.6888,-3.6508,-3.6439,-3.5824,-3.5421,-3.5223,-3.5252,-3.4692,-3.3882,-3.427,-3.444,-3.4497,-3.4458,-3.4146,-3.3794,-3.4329,-3.4457,-3.4499,-3.5077,-3.529,-3.529,-3.529,-3.4682,0.0,-3.399,-3.3251,-3.2481,-3.2481,-3.2381,-3.2266,-3.2266,-3.1835,-3.1404,-3.1404,-3.0898,-3.0526,-3.0526,-3.0359,-3.0231,-3.0189,-2.9917,-2.955,-2.9318,-2.9143,-2.907,-2.9042,-2.837,-2.7841,-2.7699,-2.7209,-2.6593,-2.5866,-2.5115,-2.4445,-2.3878,-2.2655,-2.1918,-2.1758,-2.102,-2.0683,-2.0814,-2.0678,-2.0694,-2.092,-2.0415,-2.0422,-2.0927,-1.9692,-1.9432,0.0,0.0,0.0,0.0,0.0,0.0,0.0,0.0,0.0,0.0,0.0,-2.4814,-2.6833,0.0,-2.9734,-3.2125,-3.2803,-3.3597,-3.5132,-3.5684,-3.5745,-3.5375,-3.5278,-3.5102,-3.4703,-3.4637,-3.4769,-3.5186,-3.5946,-3.6924,-3.8138,-3.8536,-3.9115,-3.993,-3.9948,-3.9948,-3.9948,-3.9948,-3.9749,-3.9351,-3.9351,-3.9351,-3.9315,-3.8536,-3.8192,-3.8156,-3.7341,-3.688,-3.6642,-3.6416,-3.5953,-3.5363,-3.5436,-3.4814,-3.3905,-3.4324,-3.4216,-3.3974,-3.4369,-3.4367,-3.4345,-3.5096,-3.5335,-3.5446,-3.5788,-3.5389,-3.4852,-3.4852,-3.4063,-3.3243,-3.3243,-3.2961,-3.268,-3.268,-3.2415,-3.215,-3.215,-3.1586,-3.1031,-3.1031,-3.0648,-3.0316,-3.0231,-3.0189,-3.006,-2.9722,-2.956,-2.9425,-2.9305,-2.8912,-2.8474,-2.8126,-2.7794,-2.732,-2.6609,-2.623,-2.5882,-2.5535,-2.4073,-2.3247,-2.3247,-2.1939,-2.1542,-2.2173,-2.1831,-2.1882,-2.2495,-2.2044,-2.1939,-2.2179,-2.178,-2.1533,0.0,0.0,0.0,0.0,0.0,0.0,0.0,-2.2473,-2.3472,-2.5721,-2.6825,-2.8055,-3.0246,-3.0797,-3.1641,-3.389,-3.4202,-3.4611,-3.6018,-3.6721,-3.6894,-3.6422,-3.5724,-3.524,-3.5077,-3.5204,-3.5566,-3.6218,-3.7612,-3.8844,-3.9804,-4.0419,-4.1107,-4.1922,-4.194,-4.1868,-4.1723,-4.1723,-4.1379,-4.0745,-4.0745,-4.0836,-4.0944,-4.0184,-3.984,-3.9733,-3.8885,-3.8384,-3.8133,-3.7825,-3.7567,-3.7288,-3.6567,-3.5433,-3.4196,-3.4565,-3.4539,-3.4345,-3.4445,-3.4306,-3.4151,-3.4981,-3.5238,-3.5341,-3.595,-3.5881,-3.5605,-3.5498,-3.4806,-3.4097,-3.4051,-3.3557,-3.311,-3.311,-3.3011,-3.2895,-3.2895,-3.2332,-3.1835,-3.1835,-3.1239,-3.0641,-3.0488,-3.0287,-3.0,-2.9605,-2.9515,-2.9425,-2.9213,-2.9121,-2.8916,-2.8347,-2.83,-2.8015,-2.7352,-2.7178,-2.7099,-2.7099,-2.5701,-2.4896,-2.4896,-2.3284,-2.285,-2.3866,-2.3221,-2.3316,-2.4162,-2.3733,-2.345,-2.3294,-2.335,-2.308,-1.8724,-1.9801,-2.1259,-2.2712,-2.3046,-2.3821,0.0,-2.705,-2.7037,-2.863,-2.9593,-3.0602,-3.2077,-3.3099,-3.4284,-3.5932,-3.613,-3.6362,-3.7198,-3.7155,-3.7247,-3.7881,-3.7848,-3.7504,-3.6779,-3.7377,-3.783,-3.792,-3.8753,-3.9894,-4.1379,-4.1542,-4.194,-4.2737,-4.2755,-4.2411,-4.1723,-4.1723,-4.1669,-4.1578,-4.1578,-4.194,-4.2592,-4.1814,-4.1341,-4.1099,-4.0137,-3.9605,-3.9337,-3.861,-3.8153,-3.794,-3.7185,-3.6781,-3.6443,-3.5162,-3.4688,-3.4756,-3.5384,-3.5612,-3.5696,-3.6466,-3.6768,-3.6786,-3.6856,-3.665,-3.6301,-3.595,-3.5548,-3.517,-3.4861,-3.4717,-3.4651,-3.4651,-3.4137,-3.3673,-3.3673,-3.3094,-3.2564,-3.2564,-3.1984,-3.1461,-3.1461,-3.0555,-2.9853,-2.975,-2.9589,-2.947,-2.947,-2.9259,-2.9059,-2.898,-2.9011,-2.8742,-2.8047,-2.7446,-2.7099,-2.7099,-2.6592,-2.6264,-2.6264,-2.5785,-2.5516,-2.553,-2.4765,-2.45,-2.4693,-2.3719,-2.3346,-2.3554,-2.3877,-2.3987,-2.1531,-2.257,-2.3746,-2.5352,-2.6054,-2.697,-2.9323,-2.9586,-2.9794,-3.135,-3.1946,-3.2633,-3.4181,-3.4716,-3.5498,-3.711,-3.6893,-3.686,-3.7948,-3.7595,-3.7325,-3.764,-3.8095,-3.7994,-3.7084,-3.7286,-3.7884,-3.8826,-3.9604,-4.0727,-4.2321,-4.1959,-4.1868,-4.2194,-4.1759,-4.1343,-4.1017,-4.1017,-4.1017,-4.1017,-4.1017,-4.1198,-4.1506,-4.1651,-4.1922,-4.2206,-4.1223,-4.0917,-4.1108,-4.063,-4.0341,-4.0059,-3.9305,-3.9024,-3.8778,-3.6759,-3.6022,-3.6004,-3.5864,-3.5811,-3.5864,-3.6197,-3.6303,-3.6391,-3.6847,-3.6788,-3.6444,-3.6301,-3.5854,-3.5379,-3.5241,-3.5024,-3.4899,-3.4899,-3.4651,-3.4435,-3.4435,-3.3856,-3.3326,-3.3326,-3.2729,-3.2205,-3.2105,-3.1663,-3.1254,-3.1102,-3.0044,-2.9259,-2.9259,-2.9167,-2.9075,-2.9075,-2.9075,-2.9011,-2.8726,-2.8442,-2.8284,-2.8284,-2.774,-2.7415,-2.7415,-2.6698,-2.6397,-2.6672,-2.5994,-2.5646,-2.5652,-2.5054,-2.464,-2.4436,-2.4572,-2.4639,-2.3861,-2.4955,-2.607,-2.7756,-2.8726,-2.9687,-3.137,-3.1767,-3.2146,-3.3466,-3.3708,-3.4118,-3.5499,-3.5857,-3.6422,-3.786,-3.7478,-3.7431,-3.8593,-3.7824,-3.7276,-3.7686,-3.8034,-3.8065,-3.758,-3.7667,-3.8343,-3.9708,-4.0455,-4.1343,-4.2502,-4.2031,-4.1615,-4.1397,-4.0818,-4.0419,-4.0202,-4.0202,-4.0202,-4.0202,-4.0202,-4.0311,-4.0528,-4.1053,-4.1576,-4.2044,-4.1238,-4.1131,-4.1481,-4.1255,-4.1085,-4.0937,-4.0604,-4.0481,-4.0348,-3.8813,-3.7988,-3.7549,-3.697,-3.6777,-3.6742,-3.6531,-3.6443,-3.6513,-3.6865,-3.6829,-3.6626,-3.6544,-3.6148,-3.565,-3.547,-3.5287,-3.5148,-3.493,-3.4977,-3.5024,-3.4947,-3.4468,-3.4087,-3.4087,-3.3491,-3.2949,-3.28,-3.2544,-3.2321,-3.2026,-3.0718,-2.9721,-2.953,-2.9294,-2.9075,-2.9075,-2.9075,-2.9075,-2.9075,-2.9075,-2.9075,-2.9075,-2.8647,-2.8379,-2.8379,-2.7651,-2.7378,-2.772,-2.7119,-2.6751,-2.664,-2.6297,-2.592,-2.5481,-2.5328,-2.5312,-2.4924,-2.6364,-2.8013,-2.9707,-3.0777,-3.1832,-3.3513,-3.391,-3.4075,-3.4718,-3.4735,-3.4837,-3.5493,-3.641,-3.7328,-3.8169,-3.8153,-3.8347,-3.9264,-3.7662,-3.7026,-3.8641,-3.8124,-3.794,-3.8752,-3.9313,-3.9959,-4.08,-4.1378,-4.1705,-4.1741,-4.1723,-4.1361,-4.0582,-4.0528,-4.0166,-3.9441,-3.9423,-3.9423,-3.9423,-3.9423,-3.9804,-4.0474,-4.031,-4.0141,-3.9985,-3.9771,-3.9547,-3.9375,-3.9375,-3.9392,-3.9463,-4.0182,-4.0481,-4.0551,-4.1218,-4.0516,-3.9234,-3.9217,-3.9199,-3.9076,-3.8286,-3.8041,-3.79,-3.7198,-3.697,-3.6908,-3.6585,-3.6502,-3.6318,-3.5605,-3.5616,-3.5688,-3.5071,-3.5165,-3.5287,-3.4977,-3.4883,-3.4866,-3.4866,-3.427,-3.3756,-3.3756,-3.3011,-3.2292,-3.2059,-3.171,-3.1278,-3.0637,-2.9672,-2.9075,-2.9075,-2.9075,-2.9075,-2.9075,-2.9075,-2.9075,-2.9075,-2.9059,-2.9059,-2.9059,-2.9028,-2.8951,-2.8763,-2.8158,-2.7735,-2.7464,-2.6938,-2.6678,-2.6625,-2.6136,-2.6133,-2.6531,-2.8122,-2.9765,-3.1446,-3.2451,-3.3334,-3.4478,-3.4655,-3.4641,-3.487,-3.4453,-3.4263,-3.4997,-3.539,-3.6029,-3.7404,-3.7088,-3.7272,-3.901,-3.7742,-3.7031,-3.8172,-3.8525,-3.8635,-3.8506,-3.8905,-3.9638,-4.08,-4.1079,-4.1323,-4.1687,-4.1198,-4.0564,-3.9786,-3.9767,-3.9641,-3.9387,-3.9894,-4.013,-4.013,-3.9623,-3.9532,-3.9749,-3.9137,-3.9391,-4.0256,-3.9733,-3.9639,-3.9875,-3.9757,-3.9615,-3.9529,-3.9645,-4.0024,-4.0516,-4.0762,-4.0849,-4.0762,-4.027,-4.0095,-3.9954,-3.9164,-3.855,-3.8058,-3.7812,-3.7374,-3.6987,-3.6851,-3.6667,-3.6402,-3.5881,-3.582,-3.5732,-3.5071,-3.5165,-3.5287,-3.4977,-3.4899,-3.4899,-3.4899,-3.4558,-3.4281,-3.4281,-3.3843,-3.3437,-3.3157,-3.2091,-3.126,-3.1037,-3.0703,-3.0338,-2.988,-2.9817,-2.9643,-2.9122,-2.9075,-2.9075,-2.9075,-2.9075,-2.9075,-2.9075,-2.9075,-2.9014,-2.8794,-2.8573,-2.8434,-2.8255,-2.8033,-2.7977,-2.7995,-2.7845,-2.764,-2.821,-2.9817,-3.1367,-3.2708,-3.3629,-3.4336,-3.4906,-3.4964,-3.4813,-3.4529,-3.379,-3.3374,-3.3903,-3.3696,-3.4163,-3.6467,-3.6061,-3.6339,-3.8969,-3.7897,-3.7393,-3.8831,-3.9186,-3.9425,-3.959,-3.9842,-4.0333,-4.1075,-4.128,-4.1462,-4.1814,-4.1252,-4.06,-3.9822,-3.9786,-3.9786,-3.9786,-4.0274,-4.051,-4.051,-4.0021,-3.9786,-3.9786,-3.926,-3.9388,-3.9968,-3.9409,-3.9157,-3.9151,-3.8961,-3.8925,-3.907,-3.8925,-3.9533,-4.0481,-4.0481,-4.0955,-4.1534,-4.1042,-4.0884,-4.0744,-3.9972,-3.9375,-3.8901,-3.862,-3.8006,-3.7374,-3.7374,-3.7061,-3.6609,-3.6199,-3.6224,-3.6139,-3.5407,-3.5407,-3.5498,-3.5148,-3.4977,-3.4899,-3.4899,-3.4739,-3.4643,-3.4643,-3.4349,-3.4,-3.3745,-3.2673,-3.1871,-3.1618,-3.1365,-3.1049,-3.0591,-3.0559,-3.037,-2.9911,-2.9832,-2.9832,-2.9832,-2.9832,-2.9753,-2.9516,-2.969,-2.9579,-2.9169,-2.9354,-2.9385,-2.9221,-2.9221,-2.9275,-2.9327,-2.9108,-2.8781,-2.9889,-3.144,-3.2794,-3.3562,-3.4339,-3.4889,-3.4851,-3.4775,-3.4529,-3.3714,-3.2788,-3.2128,-3.2181,-3.1506,-3.1993,-3.5329,-3.5192,-3.5841,-3.9207,-3.8244,-3.8131,-4.0572,-4.014,-4.0272,-4.1841,-4.1991,-4.1911,-4.1688,-4.1968,-4.213,-4.2095,-4.1868,-4.1343,-4.0546,-4.0546,-4.0582,-4.0582,-4.0619,-4.0619,-4.0582,-4.0582,-4.0546,-4.051,-4.051,-4.0005,-3.9157,-3.8956,-3.8322,-3.7421,-3.7228,-3.7571,-3.8164,-3.8164,-3.9111,-4.0481,-4.0481,-4.0955,-4.1604,-4.1604,-4.1604,-4.1481,-4.0762,-4.0516,-4.034,-3.9585,-3.8813,-3.8164,-3.8164,-3.7619,-3.7001,-3.6637,-3.6766,-3.6794,-3.6079,-3.5907,-3.582,-3.5453,-3.5165,-3.4947,-3.4899,-3.4899,-3.4851,-3.4804,-3.4399,-3.3949,-3.3694,-3.345,-3.3072,-3.2408,-3.1729,-3.1302,-3.127,-3.127,-3.1255,-3.1223,-3.1223,-3.1223,-3.1223,-3.1223,-3.0923,-3.0259,-3.0728,-3.0626,-2.9886,-3.0344,-3.0583,-3.0474,-3.0474,-3.0489,-3.0468,-2.9962,-2.9663,-3.154,-3.2369,-3.2915,-3.4262,-3.4699,-3.4659,-3.4017,-3.3316,-3.2579,-3.1788,-3.0434,-2.94,-2.9436,-3.0227,-3.1598,-3.3721,-3.4924,-3.6723,-4.0027,-3.9596,-3.9633,-4.1492,-4.0985,-4.0891,-4.1897,-4.1991,-4.2254,-4.2819,-4.2757,-4.2511,-4.2111,-4.2026,-4.154,-4.0528,-4.1089,-4.1415,-4.1415,-4.1995,-4.1995,-4.1415,-4.1415,-4.1089,-4.051,-4.051,-4.0294,-3.993,-3.9856,-3.9618,-3.9228,-3.9031,-3.9058,-3.9194,-3.903,-3.9603,-4.0481,-4.0481,-4.0955,-4.1604,-4.1604,-4.1604,-4.1569,-4.1376,-4.0937,-4.0446,-4.0253,-3.9638,-3.9006,-3.9006,-3.8444,-3.7732,-3.7426,-3.7149,-3.6794,-3.6079,-3.6156,-3.6174,-3.556,-3.5333,-3.5195,-3.4947,-3.4594,-3.4201,-3.3797,-3.3607,-3.3503,-3.3398,-3.3346,-3.3245,-3.3056,-3.2882,-3.2566,-3.2045,-3.1997,-3.1792,-3.1255,-3.1223,-3.1223,-3.1223,-3.1223,-3.1128,-3.0954,-3.1079,-3.0979,-3.0557,-3.0663,-3.0902,-3.1136,-3.1136,-3.1397,-3.189,-3.1781,-3.1174,-3.2735,-3.3448,-3.3834,-3.4585,-3.4466,-3.3973,-3.3068,-3.2201,-3.1241,-3.0039,-2.8763,-2.788,-2.7913,-2.8367,-2.9664,-3.2465,-3.3984,-3.6085,-3.9746,-4.0178,-4.0722,-4.2393,-4.183,-4.1792,-4.2994,-4.2787,-4.2919,-4.3764,-4.3575,-4.3299,-4.2977,-4.2864,-4.2527,-4.1933,-4.2231,-4.2341,-4.223,-4.2665,-4.2665,-4.223,-4.223,-4.1995,-4.1542,-4.1542,-4.1288,-4.0852,-4.0664,-4.0313,-3.9893,-3.9575,-3.9664,-3.9946,-3.9487,-3.9989,-4.0937,-4.0604,-4.0955,-4.1604,-4.1604,-4.1604,-4.1604,-4.1604,-4.1323,-4.0972,-4.0972,-4.0428,-3.9831,-3.9831,-3.9252,-3.8579,-3.8412,-3.8181,-3.7924,-3.7498,-3.7344,-3.7041,-3.6299,-3.5912,-3.5502,-3.4996,-3.4546,-3.4151,-3.3694,-3.3555,-3.345,-3.3309,-3.3309,-3.3309,-3.3309,-3.3309,-3.3151,-3.2756,-3.2724,-3.2566,-3.2171,-3.2124,-3.2124,-3.2124,-3.2124,-3.1997,-3.1681,-3.188,-3.1726,-3.1243,-3.1436,-3.1604,-3.1828,-3.1828,-3.2028,-3.2398,-3.2398,-3.1694,-3.3346,-3.4219,-3.4677,-3.4501,-3.3928,-3.3178,-3.2161,-3.1147,-2.9927,-2.8238,-2.7279,-2.6731,-2.6777,-2.6462,-2.7464,-3.1469,-3.2841,-3.4846,-3.9038,-4.029,-4.1417,-4.3088,-4.2637,-4.2806,-4.4364,-4.3764,-4.3632,-4.4458,-4.4277,-4.414,-4.4091,-4.3873,-4.3744,-4.3712,-4.3442,-4.3196,-4.2957,-4.292,-4.2882,-4.2882,-4.2882,-4.2882,-4.2882,-4.2882,-4.2482,-4.1756,-4.1372,-4.078,-4.0099,-3.977,-4.0024,-4.0569,-3.9884,-4.0428,-4.1516,-4.0867,-4.1042,-4.1604,-4.1604,-4.1604,-4.1604,-4.1604,-4.1604,-4.1604,-4.1604,-4.1148,-4.0639,-4.0639,-4.0059,-3.9463,-3.9463,-3.9392,-3.9305,-3.9305,-3.8816,-3.8145,-3.7329,-3.6498,-3.571,-3.4967,-3.4643,-3.4349,-3.4101,-3.3797,-3.3555,-3.3361,-3.3309,-3.3309,-3.3309,-3.3309,-3.3309,-3.3309,-3.3309,-3.3309,-3.3309,-3.3309,-3.3309,-3.3309,-3.3309,-3.304,-3.244,-3.2729,-3.26,-3.1977,-3.2269,-3.2398,-3.2398,-3.2398,-3.2398,-3.2398,-3.2398,-3.1751,-3.253,-3.3077,-3.3306,-3.3561,-3.3599,-3.3129,-3.1486,-2.942,-2.7373,-2.5702,-2.4707,-2.4159,-2.4155,-2.5718,-2.7899,-3.0697,-3.2405,-3.4846,-3.9038,-4.029,-4.1417,-4.3088,-4.3163,-4.3444,-4.4421,-4.3764,-4.3632,-4.4458,-4.4458,-4.4335,-4.4091,-4.406,-4.3936,-4.3712,-4.3442,-4.3267,-4.3232,-4.2995,-4.2882,-4.2882,-4.2882,-4.2882,-4.2882,-4.2709,-4.2498,-4.2195,-4.189,-4.1566,-4.1288,-4.1244,-4.1288,-4.1394,-4.1271,-4.1358,-4.1587,-4.1464,-4.1499,-4.1604,-4.1604,-4.1604,-4.1604,-4.1604,-4.1604,-4.1604,-4.1604,-4.1516,-4.1411,-4.1411,-4.0867,-4.027,-4.027,-3.9796,-3.9305,-3.9305,-3.9221,-3.8824,-3.775,-3.6423,-3.5298,-3.4707,-3.4349,-3.4101,-3.3813,-3.3555,-3.3346,-3.3309,-3.3309,-3.3309,-3.3309,-3.3309,-3.3309,-3.3309,-3.3309,-3.3309,-3.3309,-3.3309,-3.3309,-3.3309,-3.3309,-3.3245,-3.3135,-3.3087,-3.2942,-3.271,-3.2586,-3.2523,-3.2398,-3.2398,-3.2398,-3.2398,-3.2398,-3.1992,-3.2401,-3.2685,-3.2856,-3.3296,-3.2485,-3.1336,-3.0471,-2.8012,-2.5552,-2.4332,-2.3431,-2.2867,-2.2867,-2.4538,-2.6435,-2.8087,-3.0114,-3.2931,-3.708,-3.8732,-4.044,-4.2994,-4.3294,-4.3613,-4.4421,-4.3764,-4.3632,-4.4458,-4.4515,-4.444,-4.4306,-4.4306,-4.417,-4.3905,-4.3758,-4.3646,-4.3511,-4.3232,-4.3105,-4.3105,-4.2957,-4.2882,-4.2882,-4.267,-4.257,-4.245,-4.2061,-4.1849,-4.1762,-4.1648,-4.1604,-4.1604,-4.1604,-4.1604,-4.1604,-4.1604,-4.1604,-4.1604,-4.1604,-4.1604,-4.1604,-4.1604,-4.1604,-4.1604,-4.1604,-4.1604,-4.1604,-4.1604,-4.1341,-4.106,-4.106,-4.0797,-4.0498,-4.0498,-4.0053,-3.9417,-3.8646,-3.7189,-3.595,-3.5668,-3.4792,-3.405,-3.3949,-3.3555,-3.3309,-3.3309,-3.3309,-3.3309,-3.3309,-3.3309,-3.3309,-3.3309,-3.3309,-3.3309,-3.3309,-3.3309,-3.3309,-3.3309,-3.3309,-3.3256,-3.3203,-3.3058,-3.2951,-3.2773,-3.2578,-3.2453,-3.2398,-3.2398,-3.2398,-3.2398,-3.2398,-3.2064,-3.1914,-3.2354,-3.2714,-3.2844,-3.143,-2.9925,-2.9513,-2.6848,-2.4219,-2.3412,-2.2586,-2.2023,-2.2023,-2.3205,-2.4576,-2.5812,-2.7768,-3.0678,-3.5015,-3.7174,-3.9464,-4.2656,-4.3332,-4.382,-4.4458,-4.3933,-4.382,-4.4458,-4.4515,-4.4515,-4.4515,-4.4515,-4.4411,-4.4199,-4.414,-4.3999,-4.3777,-4.3511,-4.3373,-4.3373,-4.3178,-4.2995,-4.2902,-4.2691,-4.2512,-4.2432,-4.2002,-4.1849,-4.1805,-4.1692,-4.1604,-4.1604,-4.1604,-4.1604,-4.1604,-4.1604,-4.1604,-4.1604,-4.1604,-4.1604,-4.1604,-4.1604,-4.1604,-4.1604,-4.1604,-4.1604,-4.1604,-4.1604,-4.1604,-4.1604,-4.1604,-4.1604,-4.1604,-4.1604,-4.0787,-3.9926,-3.9525,-3.8201,-3.7034,-3.6865,-3.553,-3.4412,-3.4327,-3.3754,-3.3309,-3.3309,-3.3309,-3.3309,-3.3309,-3.3309,-3.3309,-3.3309,-3.3309,-3.3309,-3.3309,-3.3309,-3.3309,-3.3309,-3.3309,-3.3256,-3.3112,-3.2951,-3.2843,-3.2594,-3.2453,-3.2398,-3.2398,-3.2398,-3.2398,-3.2398,-3.2398,-3.216,-3.019,-3.1563,-3.2584,-3.1412,-3.1091,-3.0629,-2.8911,-2.5965,-2.3374,-2.2586,-2.1722,-2.1121,-2.1121,-2.1891,-2.3281,-2.5625,-2.6791,-2.9138,-3.402,-3.6798,-3.9258,-4.183,-4.3463,-4.4421,-4.4496,-4.4439,-4.4421,-4.4496,-4.4515,-4.4515,-4.4515,-4.4515,-4.4487,-4.4468,-4.4229,-4.4109,-4.406,-4.3809,-4.3646,-4.3646,-4.3579,-4.332,-4.2995,-4.2655,-4.2297,-4.1959,-4.1736,-4.1648,-4.1648,-4.1604,-4.1604,-4.1604,-4.1604,-4.1604,-4.1604,-4.1604,-4.1604,-4.1604,-4.1604,-4.1604,-4.1604,-4.1604,-4.1604,-4.1604,-4.1604,-4.1604,-4.1604,-4.1604,-4.1604,-4.1604,-4.1604,-4.1604,-4.1604,-4.1604,-4.1025,-4.0316,-3.9926,-3.9178,-3.8384,-3.7736,-3.652,-3.5531,-3.5175,-3.409,-3.3309,-3.3309,-3.3309,-3.3309,-3.3309,-3.3309,-3.3309,-3.3309,-3.3309,-3.3309,-3.3309,-3.3309,-3.3309,-3.3309,-3.3309,-3.3256,-3.3112,-3.2951,-3.2843,-3.2594,-3.2453,-3.2398,-3.2398,-3.2398,-3.2398,-3.2398,-3.2398,-3.2398,-2.9302,-3.0633,-3.1813,-3.1092,-3.0189,-2.932,-2.8556,-2.5477,-2.268,-2.2379,-2.1215,-2.0277,-2.0277,-2.0952,-2.2004,-2.3525,-2.4445,-2.6341,-3.0321,-3.2593,-3.5334,-3.9314,-4.1248,-4.2862,-4.4364,-4.4515,-4.4515,-4.4515,-4.4515,-4.4515,-4.4515,-4.4515,-4.4515,-4.4515,-4.4411,-4.4335,-4.4335,-4.4079,-4.3936,-4.3936,-4.3712,-4.3408,-4.2995,-4.2637,-4.2297,-4.1892,-4.1692,-4.1604,-4.1604,-4.1604,-4.1604,-4.1604,-4.1604,-4.1604,-4.1604,-4.1604,-4.1604,-4.1604,-4.1604,-4.1604,-4.1604,-4.1604,-4.1604,-4.1604,-4.1604,-4.1604,-4.1604,-4.1604,-4.1604,-4.1604,-4.1604,-4.1604,-4.1604,-4.1604,-4.1376,-4.1104,-4.0954,-4.0147,-3.9385,-3.9095,-3.7597,-3.6223,-3.5661,-3.4635,-3.3893,-3.3893,-3.3893,-3.4051,-3.451,-3.4557,-3.4557,-3.4557,-3.3814,-3.3309,-3.3309,-3.3309,-3.3309,-3.3309,-3.3309,-3.3203,-3.3005,-3.2897,-3.2773,-3.2523,-3.2453,-3.2398,-3.2398,-3.2398,-3.2398,-3.2398,-3.2398,-3.2613,-2.8611,-2.9832,-3.0893,-3.0603,-2.9458,-2.8276,-2.7805,-2.4895,-2.2229,-2.1966,-2.0783,-1.9807,-1.9807,-2.0464,-2.129,0.0,-2.3168,-2.5008,-2.8331,-3.0434,-3.3212,-3.7437,-3.9427,-4.1323,-4.3557,-4.4214,-4.4515,-4.4515,-4.4515,-4.4515,-4.4515,-4.4515,-4.4515,-4.4515,-4.4515,-4.4515,-4.4515,-4.4306,-4.4199,-4.417,-4.3923,-4.3579,-4.3141,-4.2885,-4.248,-4.1984,-4.1831,-4.1719,-4.1604,-4.1604,-4.1604,-4.1604,-4.1604,-4.1604,-4.1604,-4.1604,-4.1604,-4.1604,-4.1604,-4.1604,-4.1604,-4.1604,-4.1604,-4.1604,-4.1604,-4.1604,-4.1604,-4.1604,-4.1604,-4.1604,-4.1604,-4.1604,-4.1604,-4.1604,-4.1604,-4.1604,-4.1604,-4.0971,-4.0363,-4.0255,-3.8792,-3.7336,-3.6538,-3.5558,-3.4807,-3.4659,-3.462,-3.4794,-3.5315,-3.5394,-3.5394,-3.5394,-3.451,-3.383,-3.3609,-3.3419,-3.3309,-3.3309,-3.3256,-3.315,-3.2912,-3.2897,-3.2718,-3.2398,-3.2453,-3.2453,-3.2398,-3.2398,-3.2398,-3.2398,-3.2598,-3.2946,-2.8051,-2.9298,-2.9874,-2.9757,-2.9063,-2.7975,-2.6395,-2.4088,-2.206,-2.1178,-2.037,-1.9807,-1.9807,-2.0464,-2.129,-2.2154,-2.3637,-2.5871,-2.9213,-3.1823,-3.4301,-3.6798,-3.8582,-4.0253,-4.186,-4.3538,-4.4515,-4.4515,-4.4515,-4.4515,-4.4515,-4.4515,-4.4515,-4.4515,-4.4515,-4.4515,-4.4515,-4.4515,-4.444,-4.4383,-4.4344,-4.4017,-4.3505,-4.3422,-4.2959,-4.2216,-4.2198,-4.1984,-4.1604,-4.1604,-4.1604,-4.1604,-4.1604,-4.1604,-4.1604,-4.1604,-4.1604,-4.1604,-4.1604,-4.1604,-4.1604,-4.1604,-4.1604,-4.1604,-4.1604,-4.1604,-4.1604,-4.1604,-4.1604,-4.1604,-4.1604,-4.1604,-4.1604,-4.1604,-4.1604,-4.1604,-4.1604,-4.1604,-4.1453,-4.1071,-4.0105,-3.9064,-3.8063,-3.693,-3.5997,-3.5475,-3.5379,-3.5379,-3.5394,-3.5394,-3.5394,-3.5394,-3.5379,-3.5078,-3.4336,-3.3672,-3.3309,-3.3309,-3.315,-3.3058,-3.2912,-3.2897,-3.2718,-3.2398,-3.2523,-3.2523,-3.2398,-3.2398,-3.2398,-3.2413,-3.3075,-3.3462,-2.5245,-2.6716,-2.7881,-2.6597,-2.651,-2.6322,-2.4666,-2.3262,-2.2041,-2.1178,-2.0352,-1.9807,-1.9807,-2.0464,-2.1647,-2.3618,-2.4858,-2.6341,-2.8519,-3.0959,-3.3456,-3.5972,-4.0234,-4.3163,-4.367,-4.4195,-4.4515,-4.4515,-4.4515,-4.4515,-4.4515,-4.4515,-4.4515,-4.4515,-4.4515,-4.4515,-4.4515,-4.444,-4.4411,-4.4383,-4.4304,-4.3955,-4.3505,-4.3422,-4.2959,-4.2198,-4.2198,-4.1984,-4.1604,-4.1604,-4.1604,-4.1604,-4.1604,-4.1604,-4.1604,-4.1604,-4.1604,-4.1604,-4.1604,-4.1604,-4.1604,-4.1604,-4.1604,-4.1604,-4.1604,-4.1604,-4.1604,-4.1604,-4.1604,-4.1604,-4.1604,-4.1604,-4.1604,-4.1604,-4.1604,-4.1604,-4.1604,-4.1604,-4.156,-4.1408,-4.0706,-3.9725,-3.8488,-3.7567,-3.677,-3.6147,-3.609,-3.6279,-3.6753,-3.6817,-3.6817,-3.6817,-3.639,-3.56,-3.4399,-3.4099,-3.3783,-3.3324,-3.3256,-3.3165,-3.2912,-3.2897,-3.2718,-3.2398,-3.2453,-3.2684,-3.3075,-3.3075,-3.3336,-3.3829,-3.4506,-3.4877,-2.3599,-2.4738,-2.5725,-2.4907,-2.4876,-2.4704,-2.3337,-2.2398,-2.1572,-2.0727,-2.0145,-1.9807,-1.9807,-2.0727,-2.2004,-2.3543,-2.4764,-2.6191,-2.8125,-3.0283,-3.2931,-3.6385,-4.0816,-4.3576,-4.3576,-4.4139,-4.4515,-4.4515,-4.4515,-4.4515,-4.4515,-4.4515,-4.4515,-4.4515,-4.4487,-4.444,-4.444,-4.4401,-4.4344,-4.4314,-4.4244,-4.4005,-4.3707,-4.366,-4.3283,-4.2657,-4.2501,-4.2198,0.0,-4.1675,-4.1604,-4.1604,-4.1604,-4.1604,-4.1604,-4.1604,-4.1604,-4.1604,-4.1604,-4.1604,-4.1604,-4.1604,-4.1604,-4.1604,-4.1604,-4.1604,-4.1604,-4.1604,-4.1604,-4.1604,-4.1604,-4.1604,-4.1604,-4.1604,-4.1604,-4.1604,-4.1604,-4.1604,-4.1604,-4.1515,-4.1053,-4.0391,-3.9294,-3.8529,-3.7828,-3.723,-3.6917,-3.6975,-3.7417,-3.748,-3.748,-3.748,-3.7085,-3.6358,-3.5189,-3.4857,-3.4525,-3.4115,-3.3975,-3.3811,-3.3661,-3.3606,-3.3479,-3.3183,-3.3224,-3.3439,-3.3814,-3.3814,-3.4168,-3.486,-3.5291,-3.563,0.0,-2.3295,-2.3483,-2.4182,-2.3825,-2.3126,-2.2304,-2.1534,0.0,-1.9976,-1.9807,-1.9845,-1.9957,-2.1253,-2.2379,-2.2605,-2.3994,-2.589,-2.8238,-3.0208,-3.3212,-3.8,-4.0703,-4.216,-4.216,-4.3595,-4.4515,-4.4515,-4.4515,-4.4515,-4.4515,-4.4515,-4.4515,-4.4515,-4.4411,-4.4383,-4.4383,-4.4344,-4.4274,-4.4184,-4.4184,-4.4135,-4.4005,-4.4005,-4.3777,-4.3371,-4.2978,-4.2619,-4.2157,-4.1788,-4.1648,-4.1604,-4.1604,-4.1604,-4.1604,-4.1604,-4.1604,-4.1604,-4.1604,-4.1604,-4.1604,-4.1604,-4.1604,-4.1604,-4.1604,-4.1604,-4.1604,-4.1604,-4.1604,-4.1604,-4.1604,-4.1604,-4.1604,-4.1604,-4.1604,-4.1604,-4.1604,-4.1604,-4.156,-4.1426,-4.1318,-4.1007,-4.0334,-3.9645,-3.9028,-3.839,-3.7828,-3.748,-3.748,-3.748,-3.748,-3.748,-3.748,-3.7212,-3.6564,-3.5868,-3.5442,-3.5394,-3.508,-3.4909,-3.4893,-3.4794,-3.4635,-3.4475,-3.4682,-3.4713,-3.4552,-3.4599,-3.4937,-3.5553,-3.5553,-3.5891,-2.0658,0.0,-2.1563,-2.1078,-2.1311,-2.1437,0.0,-2.0708,-2.0765,-1.9976,0.0,-2.0201,-2.1478,-2.2041,-2.313,-2.5646,-2.743,-2.895,-3.0133,-3.3926,-3.7699,-4.0753,-4.2787,-4.3914,-4.3914,-4.4289,-4.4515,-4.4515,-4.4515,-4.4515,-4.4515,-4.4515,-4.4515,-4.4515,-4.4401,-4.4344,-4.4383,-4.4344,-4.4274,-4.4184,-4.4104,-4.4036,-4.4005,-4.4005,-4.3777,-4.3387,-4.3283,-4.2847,-4.2198,-4.2092,-4.1874,-4.1604,-4.1604,-4.1604,-4.1604,-4.1604,-4.1604,-4.1604,-4.1604,-4.1604,-4.1604,-4.1604,-4.1604,-4.1604,-4.1604,-4.1604,-4.1604,-4.1604,-4.1604,-4.1604,-4.1604,-4.1604,-4.1604,-4.1604,-4.1604,-4.1604,-4.1604,-4.1604,-4.1604,-4.156,-4.1453,-4.1163,-4.0449,-3.98,-3.9119,-3.839,-3.7828,-3.748,-3.748,-3.748,-3.748,-3.748,-3.748,-3.7417,-3.7243,-3.6579,-3.5963,-3.5426,-3.5194,-3.5008,-3.4893,-3.4794,-3.4635,-3.4475,-3.5043,-3.5305,-3.5245,-3.5768,-3.6107,-3.6245,-3.6245,-3.6338,-1.9926,-2.0464,-2.0948,-2.0502,-2.0741,-2.0935,-2.0458,0.0,0.0,0.0,0.0,-2.0633,-2.1534,-2.2623,-2.3975,-2.5759,-2.7768,-2.9927,-3.2274,-3.6554,-4.0084,-4.1785,-4.3482,-4.4515,-4.4515,-4.4515,-4.4515,-4.4515,-4.4515,-4.4515,-4.4515,-4.4515,-4.4487,-4.4458,-4.4383,-4.4344,-4.4354,-4.4237,-4.4147,-4.4104,-4.4036,-4.4005,-4.4005,-4.4005,-4.3892,-4.366,-4.3474,-4.3141,-4.2734,-4.236,-4.205,-4.1874,-4.1675,-4.1604,-4.1604,-4.1604,-4.1604,-4.1604,-4.1604,-4.1604,-4.1604,-4.1604,-4.1604,-4.1604,-4.1604,-4.1604,-4.1604,-4.1604,-4.1604,-4.1604,-4.1604,-4.1604,-4.1604,-4.1604,-4.1604,-4.1604,-4.1604,-4.1604,-4.156,-4.1515,-4.1408,-4.1163,-4.0789,-3.9919,-3.9172,-3.8794,-3.8001,-3.748,-3.748,-3.748,-3.748,-3.748,-3.748,-3.748,-3.748,-3.7133,-3.6753,-3.6374,-3.6095,-3.5919,-3.5876,-3.5639,-3.5504,-3.5399,-3.5753,-3.5953,-3.5953,-3.6307,-3.6492,-3.6492,-3.6492,-3.6492,-2.004,-2.0628,-2.1153,-2.0941,-2.1061,-2.1153,-2.1041,0.0,0.0,0.0,0.0,0.0,-2.1516,-2.3393,-2.4989,-2.5233,-2.745,-3.0584,-3.4602,-3.8413,-4.1098,-4.1897,-4.3482,-4.4515,-4.4515,-4.4515,-4.4515,-4.4515,-4.4515,-4.4515,-4.4515,-4.4515,-4.4468,-4.4411,-4.4383,-4.4373,-4.4285,-4.4116,-4.4005,-4.4005,-4.4005,-4.4005,-4.4005,-4.4005,-4.4005,-4.3974,-4.3627,-4.344,-4.3371,-4.2657,-4.232,-4.2175,-4.1831,-4.1631,-4.1604,-4.1604,-4.1604,-4.1604,-4.1604,-4.1604,-4.1604,-4.1604,-4.1604,-4.1604,-4.1604,-4.1604,-4.1604,-4.1604,-4.1604,-4.1604,-4.1604,-4.1604,-4.1604,-4.1604,-4.1604,-4.1604,-4.1604,-4.1604,-4.156,-4.1426,-4.1318,-4.118,-4.1093,-4.0137,-3.9295,-3.9206,-3.8286,-3.7583,-3.7539,-3.748,-3.748,-3.748,-3.748,-3.748,-3.748,-3.748,-3.748,-3.748,-3.7181,-3.6954,-3.6954,-3.6616,-3.6492,-3.6492,-3.6492,-3.6492,-3.6492,-3.6492,-3.6492,-3.6492,-3.6492,-3.6492,-2.0557,-2.1512,-2.176,-2.0364,-2.1061,-2.1902,-2.1172,0.0,0.0,0.0,0.0,0.0,-2.3881,-2.5045,-2.6247,-2.76,-3.0527,-3.3832,-3.7249,-3.9502,-4.1098,-4.1897,-4.3482,-4.4515,-4.4515,-4.4515,-4.4515,-4.4515,-4.4515,-4.4515,-4.4515,-4.4515,-4.4515,-4.4487,-4.4373,-4.4314,-4.4285,-4.4195,-4.4104,-4.4005,-4.4005,-4.4005,-4.4005,-4.4005,-4.4005,-4.4005,-4.3923,-4.3693,-4.3406,-4.3248,-4.2792,-4.2198,-4.2133,-4.1899,-4.1604,-4.1604,-4.1604,-4.1604,-4.1604,-4.1604,-4.1604,-4.1604,-4.1604,-4.1604,-4.1604,-4.1604,-4.1604,-4.1604,-4.1604,-4.1604,-4.1604,-4.1604,-4.1604,-4.1604,-4.1604,-4.1604,-4.1604,-4.1604,-4.156,-4.1426,-4.1363,-4.129,-4.114,-4.0531,-3.9834,-3.9312,-3.8645,-3.8042,-3.7583,-3.748,-3.748,-3.748,-3.748,-3.748,-3.748,-3.748,-3.748,-3.748,-3.7181,-3.6877,-3.6616,-3.6554,-3.6492,-3.6492,-3.6492,-3.6492,-3.6492,-3.6492,-3.6492,-3.6492,-3.6492,-3.6414,-1.9556,-2.0646,-2.1403,-2.0633,-2.1712,-2.2835,-2.2431,-2.2323,0.0,0.0,0.0,0.0,-2.4557,-2.651,-2.8819,-3.1335,-3.3438,-3.5578,-3.7981,-4.0121,-4.1605,-4.1954,-4.3482,-4.4515,-4.4515,-4.4515,-4.4515,-4.4515,-4.4515,-4.4515,-4.4515,-4.4515,-4.4487,-4.4458,-4.4401,-4.4314,-4.4244,-4.4214,-4.4135,-4.4005,-4.4005,-4.4005,-4.4005,-4.4005,-4.4005,-4.4005,-4.4005,-4.3892,-4.3712,-4.3474,-4.3177,-4.281,-4.236,-4.2092,-4.1917,-4.1675,-4.1604,-4.1604,-4.1604,-4.1604,-4.1604,-4.1604,-4.1604,-4.1604,-4.1604,-4.1604,-4.1604,-4.1604,-4.1604,-4.1604,-4.1604,-4.1604,-4.1604,-4.1604,-4.1604,-4.1604,-4.1604,-4.1604,-4.156,-4.1515,-4.1408,-4.1272,-4.1152,-4.0319,-3.9542,-3.9259,-3.8439,-3.7786,-3.7524,-3.748,-3.748,-3.748,-3.748,-3.748,-3.748,-3.748,-3.7421,-3.7241,-3.7165,-3.6923,-3.6492,-3.6554,-3.6538,-3.6492,-3.6492,-3.6492,-3.6492,-3.6492,-3.6492,-3.6492,-3.6414,-3.6274,-1.8801,-1.9931,-2.1046,-2.1253,0.0,-2.3333,-2.3694,-2.3299,-2.3036,0.0,0.0,-2.5571,-2.5571,-2.7993,-3.111,-3.462,-3.5747,-3.6742,-3.8375,-4.0403,-4.1736,-4.1736,-4.32,-4.4233,-4.4233,-4.4402,-4.4515,-4.4515,-4.4515,-4.4515,-4.4515,-4.4515,-4.4487,-4.4411,-4.4383,-4.4344,-4.4214,-4.4214,-4.4135,-4.4005,-4.4005,-4.4005,-4.4005,-4.4005,-4.4005,-4.4005,-4.4005,-4.4005,-4.3974,-4.366,-4.3474,-4.3336,-4.2734,-4.236,-4.2175,-4.1762,-4.1604,-4.1604,-4.1604,-4.1604,-4.1604,-4.1604,-4.1604,-4.1604,-4.1604,-4.1604,-4.1604,-4.1604,-4.1604,-4.1604,-4.1604,-4.1604,-4.1604,-4.1604,-4.1604,-4.1604,-4.1604,-4.1604,-4.1604,-4.156,-4.1363,-4.1209,-4.118,-4.0319,-3.9523,-3.9259,-3.8455,-3.7801,-3.7539,-3.748,-3.748,-3.748,-3.748,-3.748,-3.748,-3.748,-3.7361,-3.7015,-3.7105,-3.6968,-3.6492,-3.66,-3.66,-3.6492,-3.6492,-3.6492,-3.6492,-3.6492,-3.6492,-3.6492,-3.6274,-3.6211,-1.9307,-2.0333,-2.1178,-2.2004,-2.2304,0.0,-2.4276,-2.4576,0.0,-2.7488,-2.805,-2.8125,-2.8125,-2.9589,-3.2161,-3.6235,-3.6967,-3.7587,-3.9282,-4.029,-4.0891,-4.0891,-4.2374,-4.3388,-4.3388,-4.4064,-4.4515,-4.4515,-4.4515,-4.4515,-4.4515,-4.4515,-4.4515,-4.4487,-4.4373,-4.4314,-4.4285,-4.4244,-4.4135,-4.4005,-4.4005,-4.4005,-4.4005,-4.4005,-4.4005,-4.4005,-4.4005,-4.4005,-4.4005,-4.3974,-4.3744,-4.3387,-4.3336,-4.2847,-4.2175,-4.1762,-4.1604,-4.1604,-4.1604,-4.1604,-4.1604,-4.1604,-4.1604,-4.1604,-4.1604,-4.1604,-4.1604,-4.1604,-4.1604,-4.1604,-4.1604,-4.1604,-4.1604,-4.1604,-4.1604,-4.1604,-4.1604,-4.1604,-4.156,-4.1426,-4.1318,-4.118,-4.114,-4.0935,-4.0402,-3.9365,-3.9152,-3.8717,-3.7642,-3.748,-3.748,-3.748,-3.748,-3.748,-3.748,-3.748,-3.7361,-3.7015,-3.6999,-3.6877,-3.6492,-3.6492,-3.6492,-3.6492,-3.6492,-3.6492,-3.6492,-3.6492,-3.6492,-3.6492,-3.6274,-3.6148,-1.7955,-1.9237,-2.0577,-2.1966,-2.2304,0.0,0.0,-2.5515,-2.666,-2.8088,-2.9232,-3.0264,-3.1335,-3.2029,-3.3475,-3.6573,-3.7099,-3.7704,-3.9376,-4.029,-4.0797,-4.0797,-4.1811,-4.2712,-4.3238,-4.3576,-4.397,-4.4477,-4.4515,-4.4515,-4.4515,-4.4515,-4.4515,-4.4515,-4.4458,-4.4373,-4.4285,-4.4314,-4.4255,-4.4135,-4.4135,-4.4085,-4.4005,-4.4005,-4.4005,-4.4005,-4.4005,-4.4005,-4.4005,-4.4005,-4.3923,-4.3726,-4.3212,-4.2696,-4.2175,-4.1762,-4.1604,-4.1604,-4.1604,-4.1604,-4.1604,-4.1604,-4.1604,-4.1604,-4.1604,-4.1604,-4.1604,-4.1604,-4.1604,-4.1604,-4.1604,-4.1604,-4.1604,-4.1604,-4.1604,-4.1604,-4.1604,-4.1604,-4.1604,-4.1515,-4.1363,-4.1209,-4.118,-4.0693,-4.007,-3.9312,-3.8865,-3.8367,-3.7583,-3.748,-3.748,-3.748,-3.748,-3.748,-3.748,-3.748,-3.7405,-3.715,-3.715,-3.6907,-3.6492,-3.66,-3.6616,-3.6492,-3.6492,-3.6492,-3.6492,-3.6492,-3.6492,-3.6492,-3.6226,-3.6037,-1.7183,-1.8542,-2.0145,-2.1534,0.0,0.0,-2.4745,-2.6191,-2.7655,-2.9251,-3.049,-3.1804,-3.3475,-3.3569,-3.4207,-3.6686,-3.7305,-3.7981,-3.9414,-4.0065,-4.0422,-4.0422,-4.1135,-4.1867,-4.2449,-4.275,-4.3238,-4.4064,-4.412,-4.4233,-4.4496,-4.4515,-4.4515,-4.4515,-4.4487,-4.4411,-4.4344,-4.4383,-4.4344,-4.4244,-4.4244,-4.4195,-4.4097,-4.4036,-4.4005,-4.4055,-4.4005,-4.4005,-4.4005,-4.4005,-4.4005,-4.3923,-4.3248,-4.281,-4.2541,-4.2133,-4.1899,-4.1788,-4.1788,-4.1719,-4.1604,-4.1604,-4.1604,-4.1604,-4.1604,-4.1604,-4.1604,-4.1604,-4.1604,-4.1604,-4.1604,-4.1604,-4.1604,-4.1604,-4.1604,-4.1604,-4.1604,-4.1604,-4.1604,-4.1604,-4.1408,-4.1255,-4.1209,-4.0724,-4.012,-3.9558,-3.8957,-3.8351,-3.7844,-3.7583,-3.748,-3.748,-3.748,-3.748,-3.748,-3.748,-3.7405,-3.7194,-3.7134,-3.6968,-3.66,-3.66,-3.66,-3.6492,-3.6492,-3.6492,-3.6492,-3.6492,-3.6492,-3.6492,-3.6163,-3.5973,-1.7394,-1.8584,-1.9995,-2.0802,0.0,0.0,-2.5625,-2.6641,-2.8162,-3.1447,-3.2123,-3.263,-3.4282,-3.3963,-3.4226,-3.6686,-3.7774,-3.8601,-3.9489,-3.9602,-3.9602,-3.9602,-4.029,-4.0797,-4.0797,-4.1529,-4.2355,-4.3219,-4.3294,-4.3632,-4.4439,-4.4496,-4.4496,-4.4496,-4.444,-4.4383,-4.4383,-4.4383,-4.4373,-4.4314,-4.4373,-4.4354,-4.4285,-4.4097,-4.4085,-4.4184,-4.4055,-4.4005,-4.4005,-4.4005,-4.4005,-4.3955,-4.356,-4.3406,-4.3353,-4.2959,-4.2541,-4.2198,-4.2198,-4.1941,-4.1604,-4.1604,-4.1604,-4.1604,-4.1604,-4.1604,-4.1604,-4.1604,-4.1604,-4.1604,-4.1604,-4.1604,-4.1604,-4.1604,-4.1604,-4.1604,-4.1604,-4.1604,-4.1604,-4.1604,-4.1471,-4.138,-4.1209,-4.1152,-4.0823,-4.012,-3.9558,-3.8974,-3.8351,-3.7828,-3.748,-3.748,-3.748,-3.748,-3.748,-3.748,-3.7405,-3.7194,-3.7105,-3.6938,-3.6723,-3.6538,-3.6492,-3.6492,-3.6492,-3.6492,-3.6492,-3.6492,-3.6492,-3.6492,-3.6163,-3.5973,-1.7353,-1.8955,-2.084,-2.1703,-2.36,-2.5549,0.0,-2.8387,0.0,-3.3306,-3.3851,-3.4001,-3.4508,-3.4902,-3.5578,-3.6873,-3.7774,-3.8601,-3.9489,-3.9602,-3.9602,-3.9602,-3.9802,-4.0178,-4.0741,-4.1022,-4.1511,-4.2337,-4.2393,-4.2506,-4.275,-4.3332,-4.3651,-4.3651,-4.4186,-4.4458,-4.4383,-4.4458,-4.4458,-4.4354,-4.4383,-4.4354,-4.4285,-4.4195,-4.4153,-4.4184,-4.4055,-4.4005,-4.4005,-4.4005,-4.4005,-4.3955,-4.356,-4.3406,-4.3353,-4.2959,-4.2541,-4.2198,-4.2198,-4.1941,-4.1604,-4.1604,-4.1604,-4.1604,-4.1604,-4.1604,-4.1604,-4.1604,-4.1604,-4.1604,-4.1604,-4.1604,-4.1604,-4.1604,-4.1604,-4.1604,-4.1604,-4.1604,-4.1604,-4.1604,-4.1408,-4.1255,-4.1209,-4.1059,-4.071,-4.012,-3.9558,-3.8827,-3.7844,-3.7583,-3.748,-3.748,-3.748,-3.748,-3.748,-3.748,-3.748,-3.7405,-3.7181,-3.6938,-3.6723,-3.6538,-3.6492,-3.6492,-3.6492,-3.6492,-3.6492,-3.6492,-3.6492,-3.6492,-3.6163,-3.5973,-1.8129,-1.9619,-2.1347,-2.2886,-2.4632,-2.6564,-2.8669,-3.0302,-3.1992,-3.4151,-3.4339,-3.4226,-3.4526,-3.5033,-3.5747,-3.6892,-3.7774,-3.8601,-3.9489,-3.9602,-3.9602,-3.9602,-3.9602,-3.9808,-4.0272,-4.0309,-4.0666,-4.1473,-4.1529,-4.168,-4.1972,-4.2506,-4.2787,-4.2787,-4.3595,-4.3999,-4.3971,-4.4318,-4.4487,-4.444,-4.444,-4.443,-4.4373,-4.4244,-4.4214,-4.4244,-4.4085,-4.4005,-4.4005,-4.4005,-4.4005,-4.3974,-4.3744,-4.3627,-4.3627,-4.3371,-4.2922,-4.2422,-4.2422,-4.205,-4.1604,-4.1604,-4.1604,-4.1604,-4.1604,-4.1604,-4.1604,-4.1604,-4.1604,-4.1604,-4.1604,-4.1604,-4.1604,-4.1604,-4.1604,-4.1604,-4.1604,-4.1604,-4.1604,-4.1604,-4.1408,-4.1255,-4.1209,-4.1105,-4.0823,-4.0434,-3.9714,-3.8882,-3.7943,-3.7626,-3.748,-3.748,-3.748,-3.748,-3.748,-3.748,-3.748,-3.748,-3.7181,-3.6938,-3.68,-3.6616,-3.6492,-3.6492,-3.6492,-3.6492,-3.6492,-3.6492,-3.6492,-3.6492,-3.6163,-3.5973,-1.9294,-2.0389,-2.1685,-2.4107,-2.5458,-2.724,-3.111,-3.2048,-3.2574,-3.4245,-3.402,-3.3738,-3.447,-3.4658,-3.5221,-3.6723,-3.7718,-3.8582,-3.9352,-3.9564,-3.9602,-3.9602,-3.9602,-3.9602,-3.9602,-3.9602,-3.9896,-4.0647,-4.0685,-4.1004,-4.1755,-4.1841,-4.1905,-4.1905,-4.2731,-4.3182,-4.3182,-4.3914,-4.4289,-4.4289,-4.4289,-4.4289,-4.4261,-4.4229,-4.4244,-4.4285,-4.4067,-4.4005,-4.4005,-4.4005,-4.4005,-4.4005,-4.3955,-4.3942,-4.3923,-4.3892,-4.3406,-4.2734,-4.2734,-4.2239,-4.1604,-4.1604,-4.1604,-4.1604,-4.1604,-4.1604,-4.1604,-4.1604,-4.1604,-4.1604,-4.1604,-4.1604,-4.1604,-4.1604,-4.1604,-4.1604,-4.1604,-4.1604,-4.1604,-4.1604,-4.1471,-4.1318,-4.1209,-4.1105,-4.1047,-4.0823,-3.9885,-3.8974,-3.8407,-3.7828,-3.748,-3.748,-3.748,-3.748,-3.748,-3.748,-3.748,-3.748,-3.7181,-3.7015,-3.7015,-3.6693,-3.6492,-3.6492,-3.6492,-3.6492,-3.6492,-3.6492,-3.6492,-3.6492,-3.6163,-3.5973,-1.8692,-2.037,-2.2454,-2.4257,-2.6303,-2.8462,-3.0659,-3.1654,-3.2574,-3.4245,-3.4451,-3.4395,-3.4564,-3.5165,-3.5747,-3.6104,-3.7361,-3.8375,-3.8544,-3.9164,-3.9602,-3.9602,-3.9602,-3.9602,-3.9602,-3.9602,-3.9677,-3.984,-3.9858,-3.9915,-4.0103,-4.0703,-4.106,-4.106,-4.1849,-4.228,-4.228,-4.2468,-4.2535,-4.2535,-4.2535,-4.2535,-4.2573,-4.3802,-4.4314,-4.4214,-4.4055,-4.4005,-4.4005,-4.4005,-4.4005,-4.3974,-4.366,-4.3508,-4.3474,-4.3177,-4.2772,-4.232,-4.232,-4.2026,-4.1604,-4.1604,-4.1604,-4.1604,-4.1604,-4.1604,-4.1604,-4.1604,-4.1604,-4.1604,-4.1604,-4.1604,-4.1604,-4.1604,-4.1604,-4.1604,-4.1604,-4.1604,-4.156,-4.1471,-4.1318,-4.1226,-4.1123,-4.1029,-4.0776,-4.0269,-3.961,-3.8974,-3.8407,-3.7828,-3.748,-3.748,-3.748,-3.748,-3.748,-3.748,-3.748,-3.748,-3.7181,-3.7015,-3.7015,-3.6693,-3.6492,-3.6492,-3.6492,-3.6492,-3.6492,-3.6492,-3.6492,-3.6492,-3.6163,-3.5973,-1.9387,-2.0971,-2.2886,-2.5289,-2.715,-2.8838,-3.0508,-3.1222,-3.2011,-3.3682,-3.432,-3.4602,-3.4602,-3.4958,-3.5409,-3.5841,-3.661,-3.7286,-3.7662,-3.845,-3.8976,-3.8976,-3.9333,-3.9602,-3.9602,-3.9602,-3.9602,-3.9602,-3.9602,-3.9602,-3.9602,-3.999,-4.0215,-4.0215,-4.1004,-4.1436,-4.1436,-4.1804,-4.1991,-4.1991,-4.1991,-4.1991,-4.2029,-4.3268,-4.3716,-4.3606,-4.3949,-4.4055,-4.4005,-4.4005,-4.4005,-4.3974,-4.3777,-4.3693,-4.3627,-4.3248,-4.2829,-4.2462,-4.2279,-4.1941,-4.1604,-4.1604,-4.1604,-4.1604,-4.1604,-4.1604,-4.1604,-4.1604,-4.1604,-4.1604,-4.1604,-4.1604,-4.1604,-4.1604,-4.1604,-4.1604,-4.1604,-4.156,-4.1471,-4.1426,-4.129,-4.1169,-4.1093,-4.1,-4.0776,-4.05,-3.9714,-3.9082,-3.8739,-3.8001,-3.748,-3.748,-3.748,-3.748,-3.748,-3.748,-3.748,-3.748,-3.7181,-3.7015,-3.7015,-3.6693,-3.6492,-3.6492,-3.6492,-3.6492,-3.6492,-3.6492,-3.6492,-3.6492,-3.6163,-3.5973,-1.9782,-2.1403,-2.3262,-2.6416,-2.7805,-2.8801,-3.0359,-3.0809,-3.1278,-3.2687,-3.3738,-3.4433,-3.4564,-3.4602,-3.4827,-3.5559,-3.5803,-3.6122,-3.6798,-3.7587,-3.8094,-3.807,-3.8845,-3.937,-3.937,-3.9502,-3.9602,-3.9602,-3.9602,-3.9602,-3.9602,-3.9602,-3.9602,-3.9602,-4.0253,-4.0591,-4.0591,-4.1248,-4.1605,-4.1605,-4.1605,-4.1605,-4.1623,-4.2433,-4.2773,-4.2768,-4.3606,-4.3899,-4.3801,-4.3949,-4.4005,-4.4005,-4.3923,-4.3892,-4.3841,-4.3371,-4.2978,-4.2657,-4.2239,-4.1856,-4.1604,-4.1604,-4.1604,-4.1604,-4.1604,-4.1604,-4.1604,-4.1604,-4.1604,-4.1604,-4.1604,-4.1604,-4.1604,-4.1604,-4.1604,-4.1604,-4.1604,-4.1515,-4.138,-4.138,-4.1215,-4.1047,-4.1047,-4.0982,-4.0888,-4.0888,-3.9986,-3.9295,-3.9206,-3.8286,-3.7583,-3.7539,-3.748,-3.748,-3.748,-3.748,-3.748,-3.748,-3.7181,-3.7015,-3.7015,-3.6693,-3.6492,-3.6492,-3.6492,-3.6492,-3.6492,-3.6492,-3.6492,-3.6492,-3.6163,-3.5973,-1.7517,-2.0502,-2.3956,-2.6547,-2.7805,-2.8651,-2.9645,-3.0396,-3.0959,-3.1184,-3.248,-3.3776,-3.447,-3.4602,-3.4639,-3.4752,-3.5409,-3.5935,-3.6047,-3.6742,-3.7249,-3.7178,-3.7938,-3.8445,-3.8396,-3.912,-3.9602,-3.9602,-3.9602,-3.9602,-3.9602,-3.9602,-3.9602,-3.9602,-3.9714,-3.9771,-3.9771,-3.9858,-3.9915,-3.9915,-3.9915,-3.9915,-3.9934,-4.076,-4.1405,-4.1997,-4.2701,-4.2965,-4.3002,-4.3708,-4.4005,-4.3974,-4.3627,-4.3474,-4.3406,-4.2657,-4.232,-4.2239,-4.1831,-4.1631,-4.1604,-4.1604,-4.1604,-4.1604,-4.1604,-4.1604,-4.1604,-4.1604,-4.1604,-4.1604,-4.1604,-4.1604,-4.1604,-4.1604,-4.1604,-4.1604,-4.1604,-4.1515,-4.138,-4.1255,-4.1041,-4.0935,-4.0935,-4.0935,-4.0888,-4.0888,-4.0336,-3.9697,-3.9259,-3.8629,-3.8042,-3.7524,-3.748,-3.748,-3.748,-3.748,-3.748,-3.748,-3.7181,-3.7015,-3.7015,-3.6693,-3.6492,-3.6492,-3.6492,-3.6492,-3.6492,-3.6492,-3.6492,-3.6492,-3.6163,-3.5973,-1.8786,-2.1384,-2.399,-2.6019,-2.6791,-2.7392,-2.8688,-2.9251,-2.9758,-3.0658,-3.1427,-3.2345,-3.3682,-3.3926,-3.4076,-3.4526,-3.4921,-3.5165,-3.5165,-3.5897,-3.64,-3.6354,-3.7047,-3.7577,-3.7534,-3.8327,-3.8814,-3.8814,-3.9264,-3.9546,-3.9546,-3.952,-3.9502,-3.9596,-3.9571,-3.9571,-3.9602,-3.9602,-3.9602,-3.9602,-3.9602,-3.9602,-3.962,-3.9946,-4.0469,-4.1166,-4.1903,-4.2199,-4.2166,-4.25,-4.2927,-4.3318,-4.3143,-4.3061,-4.3051,-4.2905,-4.2445,-4.1869,-4.1908,-4.1788,-4.1604,-4.1604,-4.1604,-4.1604,-4.1604,-4.1604,-4.1604,-4.1604,-4.1604,-4.1604,-4.1604,-4.1604,-4.1604,-4.1604,-4.156,-4.1471,-4.1471,-4.1363,-4.1226,-4.1088,-4.0965,-4.0888,-4.0888,-4.0888,-4.0888,-4.0888,-4.0385,-3.98,-3.9259,-3.8684,-3.8084,-3.7583,-3.748,-3.748,-3.748,-3.748,-3.748,-3.748,-3.7181,-3.7015,-3.7015,-3.6693,-3.6492,-3.6492,-3.6492,-3.6492,-3.6492,-3.6492,-3.6492,-3.6492,-3.6163,-3.5973,-1.9519,-2.1272,-2.2788,-2.5098,-2.5665,-2.6097,-2.7713,-2.824,-2.8727,-2.9944,-3.0338,-3.0937,-3.2477,-3.3077,-3.3567,-3.4167,-3.443,-3.4561,-3.4561,-3.5124,-3.5514,-3.5446,-3.6157,-3.6643,-3.6662,-3.7392,-3.786,-3.786,-3.8459,-3.8833,-3.8833,-3.8808,-3.8883,-3.9208,-3.9183,-3.9296,-3.9552,-3.9577,-3.9602,-3.9602,-3.9602,-3.9602,-3.9596,-3.9546,-3.9806,-4.0344,-4.112,-4.139,-4.1311,-4.1516,-4.1943,-4.25,-4.25,-4.25,-4.2526,-4.2732,-4.2302,-4.1649,-4.1819,-4.1782,-4.1604,-4.1604,-4.1604,-4.1604,-4.1604,-4.1604,-4.1604,-4.1604,-4.1604,-4.1604,-4.1604,-4.1604,-4.1604,-4.1604,-4.1515,-4.138,-4.1335,-4.1244,-4.1134,-4.0918,-4.0888,-4.0888,-4.0888,-4.0888,-4.0888,-4.0888,-4.05,-3.9969,-3.9312,-3.881,-3.8254,-3.7583,-3.748,-3.748,-3.748,-3.748,-3.748,-3.748,-3.7241,-3.706,-3.7015,-3.6677,-3.6554,-3.6492,-3.6492,-3.6492,-3.6492,-3.6492,-3.6492,-3.6492,-3.6163,-3.5973,-1.7949,-1.8681,-1.9732,-2.3769,-2.477,-2.5204,-2.6868,-2.7791,-2.8353,-2.8502,-2.9082,-2.9867,-3.0783,-3.2224,-3.3315,-3.3355,-3.4011,-3.4517,-3.4517,-3.4532,-3.4506,-3.4391,-3.5203,-3.5725,-3.5677,-3.6453,-3.6969,-3.6969,-3.7007,-3.7044,-3.7044,-3.7025,-3.738,-3.8147,-3.8234,-3.8671,-3.9495,-3.9571,-3.9602,-3.9602,-3.9602,-3.9602,-3.9602,-3.9596,-3.9539,-3.9485,-4.0244,-4.0542,-4.0513,-4.1293,-4.1609,-4.1664,-4.1664,-4.1664,-4.1616,-4.1245,-4.1318,-4.1577,-4.121,-4.1297,-4.1604,-4.1604,-4.1604,-4.1604,-4.1604,-4.1604,-4.1604,-4.1604,-4.1604,-4.1604,-4.1604,-4.1604,-4.1604,-4.1604,-4.1515,-4.1335,-4.114,-4.1093,-4.1047,-4.0935,-4.0888,-4.0888,-4.0888,-4.0888,-4.0888,-4.0888,-4.0871,-4.0451,-3.9348,-3.9152,-3.8717,-3.7642,-3.748,-3.748,-3.748,-3.748,-3.748,-3.748,-3.7329,-3.715,-3.7015,-3.68,-3.66,-3.6492,-3.6492,-3.6492,-3.6492,-3.6492,-3.6492,-3.6492,-3.6163,-3.5973,-1.7205,-1.8531,-1.9826,-2.1816,-2.3101,-2.4176,-2.5316,-2.6184,-2.699,-2.8054,-2.8483,-2.8911,-2.9748,-3.0854,-3.1792,-3.2355,-3.3141,-3.3665,-3.3665,-3.4113,-3.4386,-3.4316,-3.4716,-3.4974,-3.4952,-3.5857,-3.6389,-3.6273,-3.6738,-3.6967,-3.6839,-3.6789,-3.6945,-3.7324,-3.7318,-3.7754,-3.8652,-3.9289,-3.9596,-3.9546,-3.9596,-3.9596,-3.9546,-3.9546,-3.9495,-3.941,-3.9591,-3.9621,-3.9584,-3.9881,-4.0327,-4.0828,-4.0828,-4.0828,-4.0884,-4.1267,-4.0988,-4.0479,-4.0886,-4.0925,-4.0885,-4.112,-4.1197,-4.1262,-4.1534,-4.1604,-4.1604,-4.1604,-4.1604,-4.1604,-4.1604,-4.1604,-4.156,-4.1408,-4.129,-4.1169,-4.0982,-4.1047,-4.1047,-4.0935,-4.0888,-4.0888,-4.0888,-4.0888,-4.0888,-4.0888,-4.0888,-4.0614,-3.9817,-3.9401,-3.892,-3.81,-3.7685,-3.748,-3.748,-3.748,-3.748,-3.748,-3.7329,-3.715,-3.7015,-3.68,-3.6662,-3.6492,-3.6492,-3.6492,-3.6492,-3.6492,-3.6492,-3.6492,-3.6163,-3.5973,-1.6511,-1.7723,-1.8944,-2.0577,-2.1569,-2.2607,-2.4308,-2.5047,-2.5743,-2.7103,-2.7587,-2.7995,-2.8831,-2.9429,-3.0217,-3.1379,-3.2257,-3.278,-3.2866,-3.3559,-3.4046,-3.4067,-3.4421,-3.4694,-3.4694,-3.5362,-3.5723,-3.5562,-3.605,-3.6283,-3.6067,-3.6018,-3.613,-3.6435,-3.6684,-3.7231,-3.8159,-3.879,-3.9221,-3.9469,-3.952,-3.952,-3.9469,-3.9469,-3.9418,-3.9328,-3.9256,-3.9156,-3.9101,-3.9101,-3.9435,-3.9955,-3.9955,-3.9955,-4.003,-4.055,-4.0362,-3.9887,-4.04,-4.0516,-4.0438,-4.0545,-4.0606,-4.0633,-4.0785,-4.0832,-4.0832,-4.0832,-4.0832,-4.0832,-4.0832,-4.0981,-4.1156,-4.1185,-4.1152,-4.1047,-4.0935,-4.0982,-4.1,-4.0935,-4.0888,-4.0888,-4.0888,-4.0888,-4.0888,-4.0888,-4.0888,-4.0662,-4.0053,-3.9558,-3.8974,-3.8334,-3.7844,-3.748,-3.748,-3.748,-3.748,-3.748,-3.7389,-3.721,-3.7044,-3.6923,-3.6739,-3.6554,-3.6492,-3.6492,-3.6492,-3.6492,-3.6492,-3.6492,-3.6226,-3.6037,0.0,0.0,0.0,-2.0101,-2.0307,-2.0586,-2.3839,-2.4508,-2.4683,-2.5575,-2.6321,-2.7083,-2.79,-2.8049,-2.8646,-3.0346,-3.1334,-3.1939,-3.2144,-3.2861,-3.341,-3.3563,-3.432,-3.4832,-3.487,-3.4889,-3.4889,-3.4927,-3.4908,-3.4831,-3.4604,-3.4583,-3.4888,-3.5522,-3.6342,-3.715,-3.8009,-3.8047,-3.8495,-3.9354,-3.9354,-3.9354,-3.9373,-3.9373,-3.9328,-3.921,-3.9183,-3.9156,-3.9101,-3.9101,-3.9101,-3.9101,-3.9101,-3.9101,-3.9101,-3.9101,-3.9401,-3.9777,-3.9777,-4.0024,-4.0312,-3.9904,-3.9789,-3.9729,-3.9394,-3.9305,-3.9305,-3.9305,-3.9305,-3.9305,-3.9322,-3.9799,-4.0403,-4.0965,-4.11,-4.1012,-4.0901,-4.0853,-4.0888,-4.0888,-4.0888,-4.0888,-4.0888,-4.0888,-4.0888,-4.0888,-4.0888,-4.071,-4.0103,-3.9558,-3.8974,-3.839,-3.7828,-3.748,-3.748,-3.748,-3.748,-3.748,-3.748,-3.7405,-3.7194,-3.7044,-3.6938,-3.6723,-3.6554,-3.6492,-3.6492,-3.6492,-3.6492,-3.6492,-3.6274,-3.6006,-1.532,0.0,0.0,0.0,0.0,0.0,-2.1798,-2.241,-2.3151,-2.4569,-2.5018,-2.5596,-2.699,-2.7232,-2.7624,-2.8839,-3.0207,-3.1125,-3.1185,-3.2015,-3.2618,-3.2655,-3.3004,-3.3487,-3.4116,-3.432,-3.4584,-3.5086,-3.5107,-3.4964,-3.4623,-3.4427,-3.4405,-3.4574,-3.546,-3.605,-3.6298,-3.6926,-3.7636,-3.838,-3.8432,-3.873,-3.9256,-3.9256,-3.9229,-3.9183,-3.9156,-3.9129,-3.9101,-3.9101,-3.9101,-3.9101,-3.9101,-3.9101,-3.9101,-3.9101,-3.9175,-3.9293,-3.9293,-3.9364,-3.9491,-3.971,-3.9603,-3.9409,-3.9605,-3.9499,-3.9305,-3.9305,-3.9305,-3.9263,-3.9161,-3.925,-3.9391,-3.9467,-3.9783,-4.0072,-4.0026,-4.0474,-4.0888,-4.0888,-4.0888,-4.0888,-4.0888,-4.0888,-4.0888,-4.0888,-4.0888,-4.0823,-4.0662,-3.9817,-3.9152,-3.8974,-3.8059,-3.748,-3.748,-3.748,-3.748,-3.748,-3.748,-3.7405,-3.7194,-3.7044,-3.6938,-3.6723,-3.6554,-3.6492,-3.6492,-3.6492,-3.6492,-3.6492,-3.6274,-3.6006,-1.6242,-1.717,-1.826,-1.8401,0.0,0.0,-2.1282,-2.1601,-2.2131,-2.3675,-2.3994,-2.4513,-2.6188,-2.6468,-2.6801,-2.778,-2.8806,-2.9708,-3.0406,-3.1322,-3.1955,-3.2038,-3.245,-3.291,-3.3442,-3.3588,-3.3953,-3.4614,-3.4737,-3.4759,-3.4732,-3.4386,-3.4197,-3.4197,-3.4729,-3.52,-3.5553,-3.6044,-3.6696,-3.7445,-3.7497,-3.7739,-3.817,-3.8505,-3.8654,-3.8672,-3.898,-3.9101,-3.9101,-3.9101,-3.9101,-3.9101,-3.9101,-3.9101,-3.9101,-3.9101,-3.9101,-3.9101,-3.9101,-3.9101,-3.9119,-3.9258,-3.9118,-3.8928,-3.885,-3.8688,-3.8505,-3.838,-3.8339,-3.8368,-3.8601,-3.8562,-3.8564,-3.8764,-3.9029,-3.9319,-3.9629,-4.006,-4.0491,-4.0819,-4.0888,-4.0888,-4.0888,-4.0888,-4.0888,-4.0888,-4.0888,-4.0888,-4.0888,-4.0087,-3.9454,-3.9206,-3.8383,-3.7727,-3.7539,-3.748,-3.748,-3.748,-3.748,-3.7464,-3.7329,-3.7121,-3.6938,-3.68,-3.6616,-3.6492,-3.6492,-3.6492,-3.6492,-3.6492,-3.6274,-3.6085,-1.8145,-1.8045,0.0,-1.9639,-1.9564,0.0,-2.155,-2.1532,-2.1501,-2.2798,-2.307,-2.3568,-2.5214,-2.5587,-2.5954,-2.69,-2.729,-2.8051,-2.9726,-3.0652,-3.1243,-3.1532,-3.2199,-3.266,-3.2756,-3.2776,-3.305,-3.3731,-3.3925,-3.4251,-3.4774,-3.4349,-3.4152,-3.4245,-3.4221,-3.4569,-3.533,-3.5349,-3.5757,-3.6556,-3.6556,-3.6593,-3.6705,-3.7429,-3.7764,-3.7801,-3.8618,-3.8971,-3.8971,-3.9064,-3.9101,-3.9101,-3.9101,-3.9101,-3.9101,-3.9101,-3.9101,-3.9101,-3.9101,-3.9101,-3.9045,-3.8748,-3.8609,-3.8486,-3.7808,-3.756,-3.7432,-3.7069,-3.6987,-3.7145,-3.7726,-3.7777,-3.7826,-3.8374,-3.8511,-3.8646,-3.9301,-3.9577,-3.9905,-4.0612,-4.0819,-4.0888,-4.0888,-4.0888,-4.0888,-4.0888,-4.0888,-4.0888,-4.0888,-4.0385,-3.98,-3.9348,-3.8739,-3.8197,-3.7642,-3.7583,-3.7583,-3.748,-3.748,-3.748,-3.748,-3.7181,-3.7015,-3.7015,-3.6693,-3.6492,-3.6492,-3.6492,-3.6492,-3.6492,-3.6336,-3.6211,-2.0089,-2.0793,-2.1515,-2.0417,-2.1014,0.0,-2.0726,-2.0946,-2.1395,-2.1563,-2.1609,-2.19,-2.2899,-2.3651,-2.4442,-2.5392,-2.6147,-2.7223,-2.8905,-2.936,-2.9829,-3.0571,-3.0794,-3.116,-3.1872,-3.1929,-3.2263,-3.3044,-3.2967,-3.3257,-3.4053,-3.3693,-3.3802,-3.4498,-3.4316,-3.4271,-3.4439,-3.4439,-3.4866,-3.572,-3.572,-3.6055,-3.6705,-3.6853,-3.6928,-3.6965,-3.7782,-3.8135,-3.8172,-3.8822,-3.9101,-3.9101,-3.9101,-3.9101,-3.9101,-3.9101,-3.9101,-3.9101,-3.9101,-3.9101,-3.9101,-3.9027,-3.8807,-3.8579,-3.8423,-3.798,-3.7432,-3.7069,-3.6987,-3.6983,-3.6957,-3.6911,-3.6904,-3.6817,-3.7275,-3.7732,-3.7887,-3.8853,-3.975,-3.9888,-4.044,-4.0888,-4.0888,-4.0888,-4.0888,-4.0888,-4.0888,-4.0888,-4.0888,-4.0385,-3.9952,-3.9851,-3.9332,-3.881,-3.8181,-3.8124,-3.7927,-3.7539,-3.748,-3.748,-3.748,-3.7181,-3.7015,-3.7015,-3.6693,-3.6492,-3.6492,-3.6492,-3.6492,-3.6492,-3.6492,-3.6289,-2.1933,-2.2267,-2.2628,-2.1713,-2.2136,0.0,0.0,-2.1397,-2.1646,-2.235,-2.1803,-2.1594,-2.2912,-2.3515,-2.3979,-2.4514,-2.5321,-2.6329,-2.7581,-2.8184,-2.8659,-2.9102,-2.9159,-2.9486,-3.0314,-3.039,-3.0929,-3.2218,-3.2382,-3.2673,-3.3207,-3.2883,-3.3098,-3.3923,-3.372,-3.3788,-3.4197,-3.4197,-3.442,-3.4847,-3.4847,-3.5052,-3.546,-3.5887,-3.6092,-3.6147,-3.6946,-3.7299,-3.7318,-3.7745,-3.8135,-3.8544,-3.8934,-3.9101,-3.9101,-3.9101,-3.9101,-3.9101,-3.9101,-3.9101,-3.9101,-3.9101,-3.897,-3.8807,-3.864,-3.8231,-3.7721,-3.7339,-3.7223,-3.7108,-3.6806,-3.6643,-3.6544,-3.636,-3.6611,-3.7008,-3.7404,-3.8077,-3.8819,-3.956,-4.0026,-4.0422,-4.0819,-4.0888,-4.0888,-4.0888,-4.0888,-4.0888,-4.0888,-4.0662,-4.0336,-4.0053,-3.9749,-3.9385,-3.8794,-3.8446,-3.8181,-3.7943,-3.7626,-3.748,-3.748,-3.7225,-3.7044,-3.6862,-3.6616,-3.6492,-3.6492,-3.6492,-3.6492,-3.6492,-3.6492,-3.6429,-2.3663,-2.3436,-2.3311,-2.2929,-2.2999,-2.3025,0.0,0.0,0.0,-2.337,-2.2517,-2.1972,-2.3439,-2.3717,-2.3745,-2.3863,-2.4587,-2.535,-2.5813,-2.6631,-2.7343,-2.7832,-2.789,-2.8159,-2.8813,-2.8717,-2.9275,-3.0852,-3.1264,-3.1651,-3.21,-3.2011,-3.239,-3.3285,-3.3131,-3.3427,-3.4179,-3.4197,-3.4197,-3.4197,-3.4197,-3.4197,-3.4216,-3.4922,-3.5237,-3.5293,-3.611,-3.6463,-3.6482,-3.663,-3.7076,-3.7745,-3.8544,-3.8952,-3.9101,-3.9101,-3.9101,-3.9101,-3.9101,-3.9101,-3.9101,-3.9101,-3.9101,-3.9045,-3.8718,-3.841,-3.8083,-3.765,-3.7432,-3.7281,-3.6829,-3.6602,-3.6461,-3.6343,-3.6301,-3.6473,-3.7111,-3.737,-3.7887,-3.9215,-3.9595,-3.9957,-4.075,-4.0888,-4.0888,-4.0888,-4.0888,-4.0888,-4.0888,-4.0888,-4.071,-4.022,-4.017,-3.9969,-3.9401,-3.8903,-3.8557,-3.8278,-3.7886,-3.7642,-3.748,-3.727,-3.7013,-3.6723,-3.6554,-3.6492,-3.6492,-3.6492,-3.6492,-3.6492,-3.6492,-3.6492,-2.5236,-2.5201,-2.4834,-2.328,-2.3473,-2.3654,-2.2151,0.0,-2.2789,-2.2975,0.0,-2.2774,-2.2975,0.0,0.0,-2.3025,-2.3779,-2.4091,-2.343,-2.4028,-2.536,-2.7631,-2.789,-2.7928,-2.8025,-2.7332,-2.7294,-2.8255,-2.8357,-2.8969,-3.03,-3.1081,-3.2043,-3.3271,-3.3283,-3.3564,-3.4179,-3.4197,-3.4197,-3.4197,-3.4197,-3.4197,-3.4197,-3.429,-3.4346,-3.4401,-3.5256,-3.5627,-3.5683,-3.6408,-3.6742,-3.6909,-3.7708,-3.8469,-3.9101,-3.9101,-3.9101,-3.9101,-3.9101,-3.9101,-3.9101,-3.9101,-3.9101,-3.9045,-3.8718,-3.8579,-3.8392,-3.7703,-3.7432,-3.7281,-3.6829,-3.6602,-3.6461,-3.6343,-3.6301,-3.6335,-3.6422,-3.6991,-3.7732,-3.856,-3.925,-3.9957,-4.075,-4.0888,-4.0888,-4.0888,-4.0888,-4.0888,-4.0888,-4.0888,-4.0871,-4.0823,-4.0823,-4.0549,-3.9952,-3.9851,-3.9368,-3.8334,-3.8238,-3.7985,-3.7539,-3.7181,-3.6923,-3.6723,-3.6554,-3.6492,-3.6492,-3.6492,-3.6492,-3.6492,-3.6492,-3.6414,-2.5517,-2.551,-2.5193,-2.3952,-2.3932,-2.4017,-2.3313,-2.3016,-2.319,-2.4196,0.0,0.0,0.0,0.0,0.0,0.0,-2.3207,-2.3315,-2.2952,-2.3187,-2.3788,-2.4821,-2.4928,-2.5332,-2.6294,-2.6524,-2.6967,-2.7832,-2.7428,-2.7816,-2.9325,-2.9646,-3.0419,-3.1804,-3.1776,-3.2281,-3.3491,-3.3491,-3.3733,-3.4197,-3.4197,-3.4197,-3.4197,-3.4197,-3.4197,-3.4216,-3.4587,-3.4736,-3.4773,-3.5107,-3.5535,-3.6036,-3.637,-3.7281,-3.8451,-3.8934,-3.9101,-3.9101,-3.9101,-3.9101,-3.9101,-3.9101,-3.9101,-3.9073,-3.8942,-3.8884,-3.8748,-3.8032,-3.7756,-3.7542,-3.6869,-3.6602,-3.6461,-3.6343,-3.6301,-3.6301,-3.6301,-3.6559,-3.7025,-3.7801,-3.8543,-3.9301,-4.006,-4.0578,-4.0888,-4.0888,-4.0888,-4.0888,-4.0888,-4.0888,-4.0888,-4.0888,-4.0888,-4.0823,-4.0549,-3.9919,-3.9332,-3.8849,-3.8214,-3.7669,-3.7329,-3.7121,-3.6938,-3.6723,-3.6554,-3.6492,-3.6492,-3.6492,-3.6492,-3.6492,-3.6492,-3.6429,-2.5511,-2.5505,-2.5226,-2.4126,-2.3836,-2.385,-2.3874,-2.3371,-2.3383,-2.5151,-2.4486,0.0,0.0,0.0,-2.3171,-2.2939,0.0,-2.2743,-2.2279,-2.2419,-2.2628,-2.2778,-2.2808,-2.3272,-2.4505,-2.4966,-2.5659,-2.6774,-2.6274,-2.6587,-2.8109,-2.8508,-2.9231,-3.0433,-3.0594,-3.1402,-3.2971,-3.299,-3.3398,-3.4197,-3.4197,-3.4197,-3.4197,-3.4197,-3.4197,-3.4197,-3.4197,-3.4197,-3.4197,-3.4197,-3.4569,-3.5163,-3.5404,-3.6203,-3.7355,-3.8395,-3.8915,-3.9101,-3.9101,-3.9101,-3.9101,-3.9101,-3.9101,-3.9101,-3.9101,-3.9101,-3.897,-3.841,-3.8132,-3.7825,-3.7052,-3.6731,-3.655,-3.6343,-3.6301,-3.6301,-3.6301,-3.6301,-3.6542,-3.7318,-3.7922,-3.8525,-3.9267,-4.0215,-4.0888,-4.0888,-4.0888,-4.0888,-4.0888,-4.0888,-4.0888,-4.0888,-4.0888,-4.0823,-4.0662,-3.9868,-3.9295,-3.8974,-3.8017,-3.7405,-3.7194,-3.7044,-3.6938,-3.6723,-3.6554,-3.6492,-3.6492,-3.6492,-3.6492,-3.6492,-3.6492,-3.6492,-2.5529,-2.5495,-2.5089,-2.3371,-2.2939,-2.2965,-2.3024,-2.2972,-2.3391,-2.5147,-2.5461,-2.5434,-2.5453,-2.4757,-2.3886,0.0,-2.29,0.0,0.0,-2.1217,-2.1989,-2.272,-2.2791,-2.2812,-2.287,-2.2139,-2.237,-2.4091,-2.4206,-2.4821,-2.6294,-2.7981,-2.9114,-2.9626,-3.0395,-3.1514,-3.299,-3.299,-3.3398,-3.4197,-3.4197,-3.4197,-3.4197,-3.4197,-3.4197,-3.4197,-3.4197,-3.4197,-3.4197,-3.4197,-3.4216,-3.4327,-3.5163,-3.5516,-3.5757,-3.7336,-3.8432,-3.9101,-3.9101,-3.9101,-3.9101,-3.9101,-3.9101,-3.9101,-3.9101,-3.9101,-3.9027,-3.8688,-3.8436,-3.8129,-3.736,-3.7055,-3.6799,-3.6367,-3.6301,-3.6301,-3.6301,-3.6301,-3.6542,-3.7318,-3.7508,-3.7749,-3.8491,-3.9871,-4.0888,-4.0888,-4.0888,-4.0888,-4.0888,-4.0888,-4.0888,-4.0888,-4.0888,-4.0662,-4.0053,-4.0003,-3.9525,-3.839,-3.7786,-3.7405,-3.7194,-3.7044,-3.6938,-3.6723,-3.6554,-3.6492,-3.6492,-3.6492,-3.6492,-3.6492,-3.6492,-3.6492,-2.5564,-2.5576,-2.5279,-2.407,-2.3366,-2.3114,-2.3663,-2.3372,-2.3443,-2.5147,-2.5495,-2.5507,-2.5492,-2.4795,-2.4099,0.0,0.0,-2.192,0.0,-2.0979,-2.0869,-2.1118,-2.1648,-2.201,-2.201,-2.1705,-2.2216,-2.3975,-2.3571,-2.4149,-2.6199,-2.7408,-2.8278,-2.8783,-2.9589,-3.0468,-3.1414,-3.1931,-3.26,-3.3398,-3.3956,-3.4197,-3.4197,-3.4197,-3.4197,-3.4197,-3.4197,-3.4197,-3.4197,-3.4197,-3.4197,-3.4234,-3.4513,-3.4977,-3.5683,-3.7299,-3.8061,-3.8377,-3.8915,-3.9101,-3.9101,-3.9101,-3.9101,-3.9101,-3.9101,-3.9101,-3.9027,-3.867,-3.8342,-3.7893,-3.7358,-3.6917,-3.6591,-3.6343,-3.6301,-3.6301,-3.6301,-3.6301,-3.6387,-3.6646,-3.7129,-3.756,-3.7818,-3.8698,-3.9526,-4.0026,-4.0095,-4.0284,-4.0819,-4.0888,-4.0888,-4.0888,-4.0888,-4.0823,-4.0597,-3.9919,-3.8957,-3.7828,-3.7583,-3.7361,-3.7105,-3.6999,-3.6877,-3.6538,-3.6492,-3.6492,-3.6492,-3.6492,-3.6492,-3.6492,-3.6492,-3.6492,-2.5602,-2.581,-2.5803,-2.489,-2.4515,-2.4406,-2.4599,-2.427,-2.4205,-2.5277,-2.5503,-2.5584,-2.5878,-2.4989,-2.4196,0.0,0.0,-2.1591,0.0,-2.0727,-2.0334,-2.0334,-2.0815,-2.1132,-2.1132,-2.1089,-2.1793,-2.3514,-2.3129,-2.3717,-2.5819,-2.6689,-2.74,-2.7988,-2.8744,-2.9606,-3.0597,-3.1117,-3.1764,-3.2581,-3.338,-3.377,-3.377,-3.4067,-3.4197,-3.4197,-3.4197,-3.4197,-3.4197,-3.4197,-3.4197,-3.4197,-3.4197,-3.4531,-3.52,-3.6538,-3.7411,-3.8024,-3.8822,-3.9101,-3.9101,-3.9101,-3.9101,-3.9101,-3.9101,-3.9101,-3.9045,-3.8826,-3.8504,-3.8114,-3.7487,-3.7111,-3.6776,-3.6385,-3.6301,-3.6301,-3.6301,-3.6301,-3.6301,-3.6301,-3.6715,-3.706,-3.706,-3.7456,-3.8215,-3.9508,-3.9698,-3.9991,-4.0784,-4.0888,-4.0888,-4.0888,-4.0888,-4.0823,-4.0597,-3.9558,-3.859,-3.7844,-3.7583,-3.7361,-3.6999,-3.7015,-3.6816,-3.6492,-3.6492,-3.6492,-3.6492,-3.6492,-3.6492,-3.6492,-3.6492,-3.6492]}]]